Date StartTime U_cm/s V_cm/s W_cm/s Ustd_cm/s Vstd_cm/s Wstd_cm/s Uvar_(cm/s)^2 Vvar_(cm/s)^2 Wvar_(cm/s)^2 KE_(m/s)^2 TurbulentKE_(m/s)^2 HorizWindSpeed_cm/s FrictionSpeec_cm/s DragCoef SpeedOfSound_m/s SonicTemperature_C Pressure_mb 
11/23/2013  00:00:00      -77.588        0.648      -16.075       13.333       17.488       10.922      177.757      305.834      119.285        0.344        0.030       77.590        9.863        0.016      331.326       -0.731      865.622
11/23/2013  00:01:00      -58.293        7.686      -13.742       16.369       14.178        7.602      267.959      201.024       57.791        0.209        0.026       58.798        6.497        0.012      331.516       -0.418      865.582
11/23/2013  00:02:00      -28.705        6.744       -6.175       23.387       21.864       14.703      546.973      478.047      216.178        0.107        0.062       29.487       11.157        0.143      331.673       -0.160      865.562
11/23/2013  00:03:00      -24.504       12.198       -9.796       12.552       13.548        8.984      157.555      183.540       80.704        0.063        0.021       27.372        4.815        0.031      331.682       -0.146      865.558
11/23/2013  00:04:00       -3.837       10.473       -3.411       17.565       14.868       10.119      308.512      221.062      102.394        0.038        0.032       11.154       10.111        0.822      331.967        0.324      865.552
11/23/2013  00:05:00        1.377       17.882       -0.508       15.283       16.481        9.954      233.562      271.631       99.076        0.046        0.030       17.935        7.397        0.170      332.145        0.618      865.531
11/23/2013  00:06:00        7.353       17.917        2.996       18.179       21.088       11.833      330.494      444.685      140.013        0.065        0.046       19.368       12.007        0.384      332.161        0.643      865.517
11/23/2013  00:07:00       11.269        9.215       11.873       16.507       11.206       10.536      272.496      125.570      111.014        0.043        0.025       14.557        9.132        0.393      331.904        0.221      865.534
11/23/2013  00:08:00       12.636      -21.162        0.532        8.879       12.201        7.844       78.838      148.871       61.525        0.045        0.014       24.647        1.641        0.004      331.765       -0.009      865.558
11/23/2013  00:09:00        2.882      -18.064        3.716       10.582        9.993        7.720      111.972       99.869       59.599        0.031        0.014       18.292        5.163        0.080      331.919        0.244      865.559
11/23/2013  00:10:00        7.857        4.406        3.716       12.201        5.887        5.112      148.862       34.655       26.138        0.015        0.010        9.008        3.325        0.136      332.142        0.614      865.540
11/23/2013  00:11:00       -5.888        3.770        0.725       15.560       11.502        6.318      242.116      132.291       39.920        0.023        0.021        6.991        6.848        0.959      331.975        0.336      865.510
11/23/2013  00:12:00      -36.930      -20.926       -4.938       10.305       10.795        7.057      106.189      116.542       49.806        0.105        0.014       42.447        3.891        0.008      331.370       -0.659      865.487
11/23/2013  00:13:00      -14.809        0.587       -4.016       17.476       11.794        4.857      305.414      139.090       23.591        0.035        0.023       14.821        5.473        0.136      331.732       -0.063      865.475
11/23/2013  00:14:00      -13.265        5.637        1.527        9.694        8.707        6.954       93.969       75.810       48.354        0.021        0.011       14.413        6.771        0.221      331.757       -0.022      865.488
11/23/2013  00:15:00       23.524        8.018        2.831       10.660        9.731        6.206      113.633       94.695       38.511        0.044        0.012       24.853        5.607        0.051      332.133        0.599      865.494
11/23/2013  00:16:00        1.422       -7.282        0.248        6.218        7.418        5.165       38.659       55.033       26.680        0.009        0.006        7.419        4.421        0.355      331.925        0.254      865.504
11/23/2013  00:17:00        6.017       -1.702        3.387        8.210       10.407        5.702       67.403      108.312       32.514        0.013        0.010        6.253        1.172        0.035      331.784        0.024      865.513
11/23/2013  00:18:00        7.243       -7.528        1.398        7.790        7.141        4.739       60.691       50.991       22.459        0.012        0.007       10.447        4.276        0.168      331.826        0.090      865.514
11/23/2013  00:19:00       34.516      -25.193        5.040       14.986       15.775        8.697      224.581      248.865       75.641        0.120        0.027       42.732        7.827        0.034      331.992        0.365      865.510
11/23/2013  00:20:00        7.598        4.080        1.562       19.007       31.449       12.558      361.271      989.021      157.697        0.079        0.075        8.624       14.363        2.774      332.030        0.428      865.491
11/23/2013  00:21:00       38.521       20.227        9.671       17.579       11.981       14.347      309.014      143.550      205.837        0.132        0.033       43.509       10.795        0.062      332.171        0.660      865.493
11/23/2013  00:22:00       11.652       -2.786        4.572       18.459       10.112        6.317      340.725      102.258       39.899        0.032        0.024       11.981        6.214        0.269      331.688       -0.136      865.532
11/23/2013  00:23:00       21.224        8.091        5.167        9.225        7.090        5.260       85.108       50.261       27.664        0.035        0.008       22.714        4.334        0.036      331.990        0.363      865.563
11/23/2013  00:24:00       25.342       12.040        4.265       13.122        6.605        4.394      172.198       43.624       19.305        0.052        0.012       28.057        4.226        0.023      331.963        0.319      865.570
11/23/2013  00:25:00       13.399       28.193       13.398       14.368       10.534       13.945      206.431      110.975      194.456        0.083        0.026       31.215       10.853        0.121      331.979        0.344      865.561
11/23/2013  00:26:00       -9.690      -11.591        7.046       16.900       23.334       15.889      285.624      544.496      252.447        0.068        0.054       15.108       18.654        1.525      331.677       -0.155      865.558
11/23/2013  00:27:00      -33.639      -30.391       -1.668       13.243       11.398       10.150      175.380      129.904      103.014        0.123        0.020       45.335        9.156        0.041      331.422       -0.572      865.572
11/23/2013  00:28:00      -50.772       -9.334       -7.608       19.157       17.038       10.943      367.002      290.302      119.742        0.175        0.039       51.622        6.943        0.018      331.206       -0.929      865.598
11/23/2013  00:29:00      -55.745        0.888       -4.503       20.253        9.940        8.032      410.164       98.794       64.505        0.185        0.029       55.752        8.322        0.022      331.376       -0.649      865.607
11/23/2013  00:30:00      -47.653        7.588       -5.685        9.831       11.160        8.282       96.644      124.535       68.596        0.133        0.014       48.254        6.642        0.019      331.364       -0.669      865.615
11/23/2013  00:31:00      -48.903        0.966       -5.086       11.534       12.725        7.104      133.024      161.936       50.468        0.138        0.017       48.912        6.051        0.015      331.346       -0.698      865.626
11/23/2013  00:32:00      -32.002        3.638       -0.448        9.211        7.956        7.164       84.847       63.300       51.327        0.062        0.010       32.208        6.900        0.046      331.558       -0.348      865.640
11/23/2013  00:33:00      -43.687      -24.700      -10.391        9.149        9.816        7.137       83.704       96.355       50.931        0.143        0.012       50.186        1.551        0.001      331.257       -0.843      865.633
11/23/2013  00:34:00      -35.855      -23.344      -12.875       13.371        9.909        8.107      178.786       98.194       65.728        0.117        0.017       42.785        6.754        0.025      331.238       -0.874      865.630
11/23/2013  00:35:00      -50.021      -10.443      -15.386       13.093       15.701       10.574      171.430      246.530      111.815        0.169        0.026       51.100        6.541        0.016      331.320       -0.740      865.622
11/23/2013  00:36:00      -55.463        5.819      -12.357       13.835        9.749        9.469      191.395       95.038       89.661        0.182        0.019       55.767        5.259        0.009      331.298       -0.777      865.615
11/23/2013  00:37:00      -50.022       11.591       -5.389       19.196       12.219        9.336      368.468      149.301       87.158        0.164        0.030       51.348        2.431        0.002      331.490       -0.462      865.621
11/23/2013  00:38:00      -38.666        2.076       -7.217        6.012        4.446        4.642       36.144       19.771       21.547        0.081        0.004       38.721        1.366        0.001      331.726       -0.071      865.628
11/23/2013  00:39:00      -60.656      -12.544      -12.807        9.709       19.563        6.359       94.264      382.692       40.435        0.226        0.026       61.939        4.312        0.005      331.465       -0.504      865.617
11/23/2013  00:40:00      -47.149        2.739      -12.185       17.541        4.709        8.841      307.680       22.178       78.164        0.139        0.020       47.229        9.256        0.038      331.851        0.133      865.614
11/23/2013  00:41:00        6.521       15.616        3.464       28.458       16.150       13.684      809.864      260.827      187.243        0.078        0.063       16.922       10.594        0.392      331.942        0.283      865.629
11/23/2013  00:42:00       16.894       -9.209        5.271       12.876       18.199        9.234      165.793      331.219       85.276        0.049        0.029       19.241        2.853        0.022      331.595       -0.288      865.644
11/23/2013  00:43:00        4.510      -10.363        9.266       10.853       16.966       13.267      117.790      287.843      176.008        0.040        0.029       11.302        7.262        0.413      331.216       -0.913      865.663
11/23/2013  00:44:00       19.189      -21.862        2.107        9.736       15.693        5.347       94.790      246.259       28.586        0.061        0.018       29.089        6.122        0.044      331.600       -0.280      865.664
11/23/2013  00:45:00       28.174        1.749        2.173        6.446        3.984        4.316       41.551       15.872       18.625        0.044        0.004       28.228        2.610        0.009      331.761       -0.017      865.662
11/23/2013  00:46:00       34.033       15.823        7.449       12.844        6.860        7.280      164.965       47.064       52.992        0.086        0.013       37.532        3.610        0.009      331.682       -0.144      865.671
11/23/2013  00:47:00       21.906       10.735        5.451       10.084       12.404        8.719      101.686      153.851       76.013        0.048        0.017       24.395        8.651        0.126      331.667       -0.170      865.685
11/23/2013  00:48:00       19.524        1.141        4.142       13.874       14.739        8.711      192.492      217.223       75.889        0.044        0.024       19.557        7.851        0.161      331.384       -0.635      865.709
11/23/2013  00:49:00        0.064      -13.169        1.434        5.639        8.385        5.282       31.797       70.311       27.901        0.015        0.007       13.169        5.061        0.148      331.353       -0.686      865.729
11/23/2013  00:50:00      -37.947      -20.744       -8.718       13.856        6.145        5.546      191.990       37.763       30.757        0.110        0.013       43.247        3.142        0.005      331.162       -1.001      865.730
11/23/2013  00:51:00      -42.775       -6.546      -11.419       11.638        7.177        6.357      135.433       51.511       40.407        0.112        0.011       43.273        4.523        0.011      331.058       -1.170      865.738
11/23/2013  00:52:00       14.095       16.585        4.462       18.225       10.305        8.058      332.152      106.187       64.932        0.050        0.025       21.766       10.211        0.220      331.455       -0.517      865.750
11/23/2013  00:53:00        6.875       -1.579       10.405       12.769       18.599       10.624      163.053      345.931      112.877        0.039        0.031        7.054       11.899        2.846      331.250       -0.855      865.769
11/23/2013  00:54:00        5.439      -16.516       -0.947       14.984       17.340        9.438      224.514      300.671       89.085        0.046        0.031       17.388        9.072        0.272      331.336       -0.715      865.788
11/23/2013  00:55:00      -32.288       -4.350       -3.916       26.158        9.168        8.668      684.237       84.061       75.126        0.096        0.042       32.580        8.390        0.066      331.171       -0.986      865.772
11/23/2013  00:56:00      -53.240      -18.754       -6.739       11.776       19.486        8.418      138.679      379.710       70.859        0.191        0.029       56.446        6.220        0.012      330.892       -1.444      865.748
11/23/2013  00:57:00      -48.661      -27.523       -6.606       20.314        8.718        7.863      412.671       76.010       61.828        0.186        0.028       55.905        7.126        0.016      330.954       -1.344      865.740
11/23/2013  00:58:00     -108.433       -8.947      -17.393       35.449       12.964       13.108     1256.608      168.069      171.808        0.687        0.080      108.802       10.802        0.010      330.911       -1.412      865.729
11/23/2013  00:59:00     -125.118       -0.382      -20.343       30.477       22.278       13.271      928.823      496.292      176.118        0.883        0.080      125.119       12.675        0.010      330.675       -1.799      865.723
11/23/2013  01:00:00     -121.623       17.560      -23.401       17.915       17.270       12.299      320.948      298.264      151.265        0.821        0.039      122.884        4.484        0.001      330.673       -1.803      865.728
11/23/2013  01:01:00      -99.056        6.508      -24.790       22.354       16.134       11.820      499.720      260.296      139.718        0.568        0.045       99.270        7.637        0.006      330.885       -1.455      865.730
11/23/2013  01:02:00      -53.811      -28.354      -12.808       24.601       17.952       13.537      605.226      322.258      183.252        0.249        0.056       60.824       16.852        0.077      331.041       -1.199      865.731
11/23/2013  01:03:00      -39.028      -10.018       -5.503       16.292       16.056       11.581      265.442      257.808      134.130        0.116        0.033       40.293        5.968        0.022      330.959       -1.335      865.735
11/23/2013  01:04:00      -56.038       -7.822      -10.869       15.047       21.775       10.864      226.418      474.161      118.020        0.207        0.041       56.581        4.512        0.006      331.261       -0.837      865.741
11/23/2013  01:05:00      -74.617      -11.611      -13.116       14.090       11.610       10.680      198.532      134.791      114.055        0.316        0.022       75.515        3.824        0.003      331.130       -1.054      865.749
11/23/2013  01:06:00      -81.302        2.893      -14.415       15.933       15.651       14.507      253.857      244.939      210.454        0.377        0.035       81.353        4.571        0.003      330.984       -1.292      865.744
11/23/2013  01:07:00      -78.669       -0.184       -9.738       22.830       15.104       13.659      521.223      228.140      186.572        0.361        0.047       78.669       10.998        0.020      330.791       -1.610      865.740
11/23/2013  01:08:00      -80.772      -10.705      -11.949       19.147       15.163       14.387      366.590      229.913      206.985        0.379        0.040       81.479       13.034        0.026      330.777       -1.634      865.753
11/23/2013  01:09:00      -76.278      -34.612      -13.444       21.545       17.714       13.792      464.179      313.798      190.232        0.408        0.048       83.763        6.960        0.007      330.882       -1.460      865.767
11/23/2013  01:10:00     -100.111       -7.327      -19.714       23.068       20.608       13.695      532.137      424.700      187.554        0.580        0.057      100.379       10.856        0.012      330.838       -1.534      865.775
11/23/2013  01:11:00      -97.879       -0.920      -20.841       17.000       14.012       11.532      289.011      196.335      132.991        0.532        0.031       97.883        6.696        0.005      330.901       -1.430      865.771
11/23/2013  01:12:00      -87.815        6.967      -19.894       10.210        9.961        7.000      104.237       99.227       48.997        0.420        0.013       88.091        3.483        0.002      330.926       -1.389      865.767
11/23/2013  01:13:00      -85.452       11.184      -12.762        6.013        9.139        7.961       36.150       83.526       63.383        0.389        0.009       86.180        3.828        0.002      331.192       -0.952      865.768
11/23/2013  01:14:00      -71.747      -12.035       -9.643        8.617       12.703       11.020       74.247      161.371      121.440        0.287        0.018       72.749        6.896        0.009      331.028       -1.221      865.759
11/23/2013  01:15:00      -65.552       -5.897       -9.121       11.717       10.227       10.869      137.291      104.584      118.131        0.239        0.018       65.816       10.038        0.023      330.966       -1.323      865.744
11/23/2013  01:16:00      -63.685      -14.955      -10.247        8.486       10.943       10.554       72.010      119.738      111.385        0.234        0.015       65.417        7.176        0.012      330.899       -1.432      865.740
11/23/2013  01:17:00      -43.378      -12.962      -11.660        9.772        8.497        6.648       95.490       72.191       44.193        0.120        0.011       45.273        5.950        0.017      331.102       -1.098      865.757
11/23/2013  01:18:00      -36.641      -17.270       -9.464        8.382       11.126        6.725       70.259      123.792       45.222        0.098        0.012       40.507        4.673        0.013      331.388       -0.629      865.783
11/23/2013  01:19:00      -41.805       11.076       -8.633       11.987       12.710        7.647      143.691      161.544       58.482        0.115        0.018       43.247        7.835        0.033      331.822        0.086      865.798
11/23/2013  01:20:00      -35.494      -10.422       -8.145       10.123        8.904        8.640      102.472       79.283       74.645        0.085        0.013       36.992        7.349        0.039      331.349       -0.693      865.805
11/23/2013  01:21:00      -66.437      -15.502      -14.446        8.939        7.608        6.859       79.910       57.879       47.041        0.252        0.009       68.221        4.122        0.004      330.985       -1.291      865.799
11/23/2013  01:22:00      -85.341       -4.266      -15.489        9.018       12.418        9.886       81.327      154.215       97.741        0.394        0.017       85.447        4.777        0.003      330.991       -1.281      865.783
11/23/2013  01:23:00      -67.794      -18.251      -12.822       15.968       14.088        9.040      254.968      198.458       81.718        0.281        0.027       70.207        6.632        0.009      331.107       -1.091      865.777
11/23/2013  01:24:00      -69.159      -28.559      -17.636        8.225        9.630        7.705       67.654       92.743       59.361        0.306        0.011       74.823        3.436        0.002      331.004       -1.258      865.777
11/23/2013  01:25:00      -66.842      -38.395      -21.387       20.498       20.282       16.331      420.164      411.365      266.698        0.375        0.055       77.085        6.610        0.007      331.057       -1.172      865.779
11/23/2013  01:26:00      -75.571       -0.910       -8.762       12.618       10.849        5.245      159.202      117.693       27.509        0.305        0.015       75.576        4.024        0.003      331.439       -0.544      865.793
11/23/2013  01:27:00      -32.274      -10.019       -0.492       17.045       12.327        9.200      290.526      151.953       84.632        0.083        0.026       33.794        7.549        0.050      331.108       -1.089      865.796
11/23/2013  01:28:00      -25.215      -20.185      -10.818       14.897       12.456        9.059      221.907      155.158       82.060        0.081        0.023       32.299        7.274        0.051      331.111       -1.084      865.794
11/23/2013  01:29:00      -47.238      -22.382       -5.392       19.982       17.361       12.165      399.289      301.411      147.992        0.180        0.042       52.272        9.755        0.035      330.991       -1.281      865.789
11/23/2013  01:30:00      -39.957       35.939      -10.033       20.192       35.437       12.161      407.727     1255.766      147.902        0.240        0.091       53.742       15.191        0.080      331.347       -0.696      865.802
11/23/2013  01:31:00      -35.115       34.795       -6.071       17.836       22.984       10.313      318.119      528.263      106.360        0.172        0.048       49.434        7.742        0.025      331.594       -0.290      865.793
11/23/2013  01:32:00      -42.290      -11.922       -6.294       20.719       22.906       11.109      429.297      524.673      123.414        0.152        0.054       43.939        2.899        0.004      331.098       -1.105      865.773
11/23/2013  01:33:00      -63.698      -33.285      -14.440       15.839       13.225       13.552      250.882      174.908      183.649        0.299        0.030       71.870        7.267        0.010      330.917       -1.403      865.761
11/23/2013  01:34:00      -63.449      -16.914       -4.150       15.238       13.921       11.109      232.202      193.803      123.406        0.244        0.027       65.665        9.114        0.019      330.824       -1.555      865.784
11/23/2013  01:35:00      -52.401      -13.061      -18.170       15.820       14.341       12.427      250.278      205.670      154.434        0.193        0.031       54.004        6.230        0.013      330.905       -1.423      865.801
11/23/2013  01:36:00      -55.734      -50.579      -12.386       21.664       19.376       14.356      469.334      375.439      206.088        0.343        0.053       75.263       12.397        0.027      330.995       -1.276      865.797
11/23/2013  01:37:00      -79.305      -33.198       -8.534       10.644       13.795       11.463      113.305      190.289      131.391        0.395        0.022       85.973        9.754        0.013      330.934       -1.376      865.805
11/23/2013  01:38:00     -106.168       -6.908      -25.174       10.613        7.839        6.640      112.633       61.446       44.094        0.609        0.011      106.393        2.936        0.001      330.804       -1.589      865.809
11/23/2013  01:39:00      -98.651      -18.668      -18.504       13.558       17.527       14.158      183.826      307.207      200.461        0.556        0.035      100.402        7.889        0.006      330.781       -1.630      865.816
11/23/2013  01:40:00      -82.596      -16.033      -16.730       17.210       13.776       13.544      296.200      189.786      183.442        0.401        0.033       84.138        9.992        0.014      330.750       -1.677      865.842
11/23/2013  01:41:00     -110.048        4.592      -16.991       27.116       17.277        9.766      735.282      298.509       95.375        0.677        0.056      110.144        9.923        0.008      330.817       -1.567      865.873
11/23/2013  01:42:00      -65.805       -8.171      -17.611       12.063       11.629       13.188      145.505      135.244      173.917        0.258        0.023       66.310        6.216        0.009      330.853       -1.508      865.895
11/23/2013  01:43:00      -59.526      -26.871      -10.190       11.607       11.092        9.743      134.723      123.029       94.933        0.236        0.018       65.310        6.310        0.009      331.039       -1.202      865.912
11/23/2013  01:44:00      -41.826      -30.999        1.369       13.561       11.031        9.431      183.906      121.677       88.935        0.155        0.020       52.061        4.080        0.006      331.172       -0.985      865.944
11/23/2013  01:45:00      -65.994      -24.677       -9.525       34.343       14.445       14.303     1179.448      208.646      204.582        0.332        0.080       70.457       17.500        0.062      330.900       -1.431      865.954
11/23/2013  01:46:00      -86.555      -23.026      -13.803       21.642       14.352       11.832      468.395      205.971      139.999        0.451        0.041       89.565       11.815        0.017      330.849       -1.513      865.954
11/23/2013  01:47:00     -104.489      -23.071      -17.204       21.955       22.762       13.830      482.001      518.118      191.264        0.647        0.060      107.006       11.796        0.012      330.881       -1.463      865.956
11/23/2013  01:48:00      -94.027      -17.287      -16.268       16.729       20.517       10.693      279.864      420.939      114.332        0.511        0.041       95.603        9.427        0.010      330.817       -1.568      865.953
11/23/2013  01:49:00      -79.052      -11.544      -24.153       13.674       13.978       12.214      186.984      195.377      149.189        0.375        0.027       79.891        9.117        0.013      330.889       -1.451      865.954
11/23/2013  01:50:00      -70.524      -10.080      -10.266       14.239        9.701        9.018      202.743       94.105       81.331        0.278        0.019       71.240        8.690        0.015      330.930       -1.381      865.970
11/23/2013  01:51:00      -58.693       -3.135      -10.359       20.044        9.478       11.868      401.748       89.836      140.844        0.210        0.032       58.776        8.048        0.019      331.304       -0.767      865.965
11/23/2013  01:52:00      -84.467       -1.387      -16.376       12.063       13.511       12.234      145.528      182.554      149.680        0.394        0.024       84.479        7.428        0.008      330.925       -1.390      865.953
11/23/2013  01:53:00      -88.276       -7.193      -18.464       12.064       17.390       10.327      145.535      302.396      106.641        0.437        0.028       88.569        8.714        0.010      330.840       -1.530      865.954
11/23/2013  01:54:00      -86.780      -11.869      -20.170       11.776       13.324       10.193      138.670      177.520      103.890        0.425        0.021       87.588        8.176        0.009      330.885       -1.457      865.951
11/23/2013  01:55:00     -101.963      -10.281      -18.711       19.464       16.369       11.944      378.863      267.948      142.660        0.582        0.039      102.480       12.218        0.014      330.824       -1.556      865.932
11/23/2013  01:56:00      -98.022      -10.123      -19.072       16.435       17.944       14.443      270.122      322.001      208.587        0.544        0.040       98.543        9.798        0.010      330.768       -1.647      865.932
11/23/2013  01:57:00     -106.883       -5.748      -24.461       14.606       14.816       10.574      213.329      219.512      111.812        0.630        0.027      107.037        7.117        0.004      330.871       -1.478      865.940
11/23/2013  01:58:00      -93.351      -14.920      -15.203       12.666       16.366       10.128      160.440      267.842      102.574        0.485        0.027       94.535        7.603        0.006      330.757       -1.666      865.940
11/23/2013  01:59:00      -88.545      -26.882      -20.242       13.886       23.189       13.159      192.812      537.722      173.156        0.494        0.045       92.535        6.879        0.006      330.721       -1.723      865.933
11/23/2013  02:00:00      -95.975      -22.949      -16.670       14.971       12.995       10.102      224.127      168.873      102.050        0.526        0.025       98.680        8.792        0.008      330.727       -1.715      865.920
11/23/2013  02:01:00      -98.747      -24.191      -15.877       10.369       13.789       11.938      107.517      190.136      142.505        0.551        0.022      101.667        7.730        0.006      330.736       -1.700      865.922
11/23/2013  02:02:00      -83.648      -30.978      -19.714       13.173       17.520       13.260      173.530      306.948      175.819        0.450        0.033       89.200        6.369        0.005      330.788       -1.614      865.944
11/23/2013  02:03:00      -90.317      -31.254      -19.715       12.607       16.798       11.842      158.933      282.178      140.228        0.505        0.029       95.571        7.932        0.007      330.925       -1.390      865.957
11/23/2013  02:04:00      -80.237      -20.030      -13.094       11.089        9.942        9.726      122.955       98.851       94.594        0.366        0.016       82.699        6.024        0.005      330.821       -1.563      865.958
11/23/2013  02:05:00      -67.843      -23.193      -15.116       12.539       10.504        8.990      157.221      110.339       80.811        0.286        0.017       71.698        6.766        0.009      330.927       -1.385      865.949
11/23/2013  02:06:00      -40.747      -38.852       -7.999       20.290       21.287       15.624      411.667      453.117      244.100        0.217        0.055       56.301       13.967        0.062      330.847       -1.518      865.946
11/23/2013  02:07:00      -68.230      -48.924      -12.241       30.911       16.590       15.638      955.464      275.222      244.540        0.434        0.074       83.958       16.032        0.036      330.765       -1.653      865.945
11/23/2013  02:08:00     -110.818      -32.852      -18.459       20.194       21.658       12.960      407.801      469.072      167.961        0.737        0.052      115.585        9.932        0.007      330.728       -1.712      865.951
11/23/2013  02:09:00     -104.654      -46.066      -19.499       18.803       23.428       16.568      353.560      548.876      274.513        0.732        0.059      114.344        8.263        0.005      330.737       -1.699      865.932
11/23/2013  02:10:00      -98.968      -43.635      -15.561       29.589       29.412       21.363      875.519      865.052      456.374        0.707        0.110      108.160       18.239        0.028      330.678       -1.795      865.920
11/23/2013  02:11:00      -86.290      -38.548      -13.447       23.022       21.867       21.237      529.994      478.157      451.025        0.529        0.073       94.509       15.765        0.028      330.693       -1.770      865.930
11/23/2013  02:12:00     -112.229      -17.818      -23.358       23.990       18.704       14.199      575.532      349.834      201.598        0.729        0.056      113.634        9.260        0.007      330.654       -1.834      865.946
11/23/2013  02:13:00     -103.036      -42.509       -9.707       25.863       22.109       19.691      668.920      488.804      387.718        0.703        0.077      111.461       13.408        0.014      330.640       -1.857      865.948
11/23/2013  02:14:00     -104.811      -22.732      -19.074       14.374       17.882       12.035      206.600      319.778      144.841        0.627        0.034      107.248        9.715        0.008      330.652       -1.837      865.944
11/23/2013  02:15:00     -107.485       -8.883      -22.771       11.737       15.398       11.823      137.764      237.111      139.776        0.633        0.026      107.851        8.502        0.006      330.678       -1.793      865.935
11/23/2013  02:16:00     -113.742      -23.278      -17.040       14.247       20.315       12.416      202.990      412.694      154.168        0.727        0.038      116.099       11.243        0.009      330.684       -1.786      865.921
11/23/2013  02:17:00      -89.688      -19.671      -18.330       15.224       13.720       11.722      231.781      188.234      137.411        0.466        0.028       91.819        5.892        0.004      330.734       -1.703      865.905
11/23/2013  02:18:00      -78.883      -16.501      -12.990       18.365       18.929       11.838      337.278      358.323      140.129        0.375        0.042       80.590       11.817        0.021      330.864       -1.490      865.897
11/23/2013  02:19:00      -77.699      -24.281      -10.025       13.260       12.790       11.676      175.817      163.583      136.324        0.360        0.024       81.404        7.494        0.008      330.751       -1.678      865.873
11/23/2013  02:20:00      -72.737      -34.562      -19.895       19.464       23.980       14.264      378.841      575.038      203.475        0.402        0.058       80.531        9.078        0.013      330.775       -1.636      865.845
11/23/2013  02:21:00      -76.873      -19.700      -22.293       14.674       20.005       11.283      215.325      400.186      127.313        0.377        0.037       79.357        9.879        0.015      330.969       -1.318      865.852
11/23/2013  02:22:00      -69.571      -10.542      -17.179       14.004       11.340       10.314      196.112      128.601      106.373        0.284        0.022       70.366        8.342        0.014      331.213       -0.918      865.865
11/23/2013  02:23:00      -89.857      -21.569      -15.801       10.564       10.452        8.018      111.597      109.254       64.291        0.454        0.014       92.409        4.086        0.002      330.686       -1.782      865.877
11/23/2013  02:24:00     -110.430      -17.482      -21.853       10.403       10.046        9.947      108.230      100.927       98.945        0.664        0.015      111.805        6.112        0.003      330.725       -1.718      865.868
11/23/2013  02:25:00     -103.482      -27.642      -18.882       18.317       21.313       15.214      335.520      454.238      231.460        0.642        0.051      107.110       13.366        0.016      330.678       -1.795      865.857
11/23/2013  02:26:00     -117.742      -19.304      -17.596       18.921       16.254       14.078      357.995      264.204      198.181        0.768        0.041      119.314       10.490        0.008      330.675       -1.801      865.863
11/23/2013  02:27:00      -83.723      -41.194      -13.864       23.264       31.760       15.898      541.209     1008.698      252.761        0.535        0.090       93.309       16.512        0.031      330.709       -1.744      865.886
11/23/2013  02:28:00      -95.391      -32.829      -17.629       15.117       23.446       14.743      228.522      549.694      217.368        0.574        0.050      100.882       11.956        0.014      330.674       -1.802      865.895
11/23/2013  02:29:00     -118.406      -18.324      -26.641       24.501       20.514       13.727      600.293      420.808      188.424        0.814        0.060      119.815       13.512        0.013      330.657       -1.830      865.869
11/23/2013  02:30:00      -91.286      -33.254      -13.414       24.688       23.819       21.361      609.503      567.327      456.297        0.563        0.082       97.154       16.166        0.028      330.637       -1.864      865.841
11/23/2013  02:31:00      -99.860      -13.728      -11.010       23.737       19.334       19.680      563.451      373.805      387.310        0.580        0.066      100.799       16.098        0.026      330.667       -1.814      865.832
11/23/2013  02:32:00      -96.690       -3.723      -13.405       18.280       15.831       13.471      334.160      250.633      181.455        0.515        0.038       96.761        8.802        0.008      330.696       -1.766      865.829
11/23/2013  02:33:00      -83.490      -10.107      -17.312       10.350       10.089        8.734      107.117      101.781       76.290        0.383        0.014       84.099        3.790        0.002      330.672       -1.805      865.833
11/23/2013  02:34:00      -70.808      -25.607       -5.592       14.428       14.918       17.591      208.178      222.535      309.436        0.322        0.037       75.296       13.715        0.033      330.721       -1.726      865.841
11/23/2013  02:35:00      -91.054      -26.644      -15.179        9.003       14.509       10.453       81.051      210.523      109.263        0.482        0.020       94.872        6.963        0.005      330.701       -1.757      865.854
11/23/2013  02:36:00      -95.192       -3.379      -16.987       11.351       10.374        8.912      128.857      107.629       79.416        0.484        0.016       95.252        5.536        0.003      330.669       -1.811      865.849
11/23/2013  02:37:00      -90.632       -8.754      -14.713       12.340       13.164        8.548      152.266      173.302       73.071        0.445        0.020       91.053        3.313        0.001      330.749       -1.679      865.847
11/23/2013  02:38:00      -94.597      -24.919      -13.758       16.513       19.038        8.889      272.692      362.463       79.023        0.524        0.036       97.824        4.692        0.002      330.722       -1.722      865.862
11/23/2013  02:39:00      -88.639      -11.957      -22.990       11.957       12.141        7.974      142.975      147.396       63.593        0.444        0.018       89.442        5.253        0.003      330.744       -1.687      865.868
11/23/2013  02:40:00      -78.602      -21.390      -21.771        9.058       13.786        8.302       82.047      190.045       68.924        0.373        0.017       81.460        7.364        0.008      330.699       -1.760      865.862
11/23/2013  02:41:00      -64.390      -31.766      -14.611       14.540        9.457        7.446      211.420       89.427       55.437        0.286        0.018       71.799        5.365        0.006      330.661       -1.823      865.843
11/23/2013  02:42:00      -53.310      -21.701      -10.420       10.235        9.340        8.030      104.758       87.234       64.477        0.184        0.013       57.558        5.914        0.011      331.068       -1.155      865.839
11/23/2013  02:43:00      -57.213      -34.633      -18.392       18.045       12.063       11.241      325.630      145.517      126.367        0.270        0.030       66.879        6.543        0.010      330.909       -1.417      865.834
11/23/2013  02:44:00      -91.783      -32.032      -15.988       15.519       19.118       15.286      240.850      365.481      233.657        0.527        0.042       97.212       11.050        0.013      330.606       -1.914      865.816
11/23/2013  02:45:00      -93.011      -23.989      -22.965        8.403        8.457        9.491       70.607       71.523       90.077        0.499        0.012       96.055        4.131        0.002      330.563       -1.984      865.792
11/23/2013  02:46:00      -98.533      -16.469      -20.691       12.815       12.378        8.936      164.237      153.218       79.860        0.540        0.020       99.900        6.736        0.005      330.564       -1.984      865.775
11/23/2013  02:47:00      -89.194      -17.439      -14.732       18.601       20.324       12.584      346.014      413.077      158.356        0.470        0.046       90.883        9.131        0.010      330.519       -2.056      865.775
11/23/2013  02:48:00      -87.663      -22.536      -12.633       18.074       14.384       12.710      326.684      206.901      161.534        0.452        0.035       90.514        6.931        0.006      330.569       -1.975      865.797
11/23/2013  02:49:00      -76.933      -12.353      -17.703       14.971       13.850       18.928      224.118      191.822      358.270        0.358        0.039       77.918       13.166        0.029      330.669       -1.811      865.817
11/23/2013  02:50:00      -88.096      -22.667      -20.772       11.673       16.880       11.783      136.259      284.925      138.843        0.463        0.028       90.966        4.623        0.003      330.705       -1.750      865.829
11/23/2013  02:51:00      -87.940      -29.683      -19.076       11.009       16.437       12.254      121.191      270.183      150.153        0.476        0.027       92.814        6.053        0.004      330.558       -1.993      865.815
11/23/2013  02:52:00      -99.599       -8.866      -18.394       16.431       11.970       10.855      269.968      143.276      117.836        0.543        0.027       99.992        7.430        0.006      330.592       -1.938      865.788
11/23/2013  02:53:00      -98.147       -9.209      -18.718       16.480       11.974       11.438      271.579      143.365      130.819        0.531        0.027       98.578        7.797        0.006      330.546       -2.013      865.765
11/23/2013  02:54:00     -106.875      -30.101      -21.517        9.677       12.451        9.232       93.641      155.015       85.227        0.656        0.017      111.033        4.535        0.002      330.493       -2.099      865.753
11/23/2013  02:55:00     -107.926       -8.283      -21.782       11.729       13.775       10.159      137.561      189.743      103.210        0.631        0.022      108.243        8.233        0.006      330.538       -2.026      865.765
11/23/2013  02:56:00      -98.735      -15.629      -15.825       13.562       16.869       11.497      183.924      284.571      132.188        0.542        0.030       99.965        7.310        0.005      330.568       -1.977      865.780
11/23/2013  02:57:00      -92.495      -27.299      -14.612       16.771       17.201       12.285      281.269      295.869      150.921        0.512        0.036       96.440        4.959        0.003      330.570       -1.973      865.791
11/23/2013  02:58:00      -93.542      -50.019      -21.251       23.102       21.460       18.617      533.715      460.533      346.599        0.652        0.067      106.076       11.248        0.011      330.565       -1.979      865.784
11/23/2013  02:59:00     -113.787      -43.937      -15.520       29.646       29.755       20.234      878.869      885.367      409.423        0.865        0.109      121.976       17.646        0.021      330.441       -2.186      865.763
11/23/2013  03:00:00      -92.150      -13.873      -10.107       21.255       21.082       16.986      451.782      444.444      288.514        0.499        0.059       93.189       11.869        0.016      330.515       -2.063      865.761
11/23/2013  03:01:00      -83.615       -6.874      -14.899       29.551       19.511       13.822      873.280      380.676      191.055        0.435        0.072       83.897       15.841        0.036      330.558       -1.994      865.784
11/23/2013  03:02:00      -95.944      -10.749      -21.502       13.572       14.292        7.684      184.193      204.268       59.049        0.512        0.022       96.544        4.775        0.002      330.431       -2.201      865.781
11/23/2013  03:03:00      -88.835      -11.293      -13.024       19.812       14.321       10.151      392.500      205.103      103.047        0.444        0.035       89.550        6.509        0.005      330.599       -1.926      865.767
11/23/2013  03:04:00      -88.286      -13.076      -12.344       14.402       14.925       13.594      207.432      222.755      184.799        0.437        0.031       89.250        8.289        0.009      330.493       -2.100      865.769
11/23/2013  03:05:00      -75.037       -4.783      -14.950       15.308       15.585       11.031      234.344      242.894      121.688        0.324        0.030       75.190        7.926        0.011      330.467       -2.142      865.792
11/23/2013  03:06:00      -79.455       -9.954      -13.147       15.778       11.370        9.467      248.947      129.279       89.623        0.353        0.023       80.076        4.515        0.003      330.468       -2.140      865.806
11/23/2013  03:07:00      -81.807      -19.843      -17.731       17.340       20.855       12.355      300.671      434.950      152.637        0.414        0.044       84.179        9.666        0.013      330.499       -2.088      865.801
11/23/2013  03:08:00      -91.597      -27.992      -22.363       18.106       24.627       16.653      327.824      606.475      277.337        0.544        0.061       95.779        6.374        0.004      330.488       -2.106      865.777
11/23/2013  03:09:00      -82.666      -23.530      -16.583       13.043       11.714       12.712      170.130      137.211      161.604        0.407        0.023       85.950        8.221        0.009      330.410       -2.235      865.753
11/23/2013  03:10:00      -89.543       -6.751      -15.011       10.832        9.737        9.915      117.327       94.816       98.308        0.430        0.016       89.797        3.725        0.002      330.354       -2.327      865.730
11/23/2013  03:11:00      -82.985      -14.178      -16.017       11.043       11.774        9.366      121.954      138.628       87.723        0.385        0.017       84.188        5.255        0.004      330.447       -2.176      865.718
11/23/2013  03:12:00      -79.563      -29.114      -23.260       12.317       11.370        9.442      151.697      129.276       89.152        0.404        0.019       84.723        5.691        0.005      330.439       -2.188      865.714
11/23/2013  03:13:00      -75.546      -35.394      -19.144       19.323       18.643       13.818      373.370      347.579      190.945        0.412        0.046       83.426        4.898        0.003      330.378       -2.288      865.721
11/23/2013  03:14:00      -87.003      -18.070      -15.597       12.495       10.282        9.611      156.135      105.712       92.378        0.425        0.018       88.860        4.098        0.002      330.407       -2.241      865.738
11/23/2013  03:15:00      -76.759      -18.764      -14.988       15.137       14.455        9.978      229.143      208.939       99.555        0.350        0.027       79.019        5.546        0.005      330.364       -2.313      865.734
11/23/2013  03:16:00      -84.180      -17.119      -12.170       10.047       10.850        8.930      100.940      117.723       79.752        0.391        0.015       85.903        4.271        0.002      330.392       -2.265      865.712
11/23/2013  03:17:00      -96.288       -7.844      -17.407       13.784       11.574        9.594      189.989      133.968       92.047        0.503        0.021       96.607        6.906        0.005      330.282       -2.445      865.703
11/23/2013  03:18:00      -76.909      -19.631      -16.462       20.631       12.469       10.417      425.627      155.481      108.515        0.363        0.034       79.375        9.241        0.014      330.375       -2.293      865.715
11/23/2013  03:19:00      -64.911      -21.752      -16.793       18.469       16.051       19.169      341.103      257.644      367.438        0.297        0.048       68.459       10.702        0.024      330.569       -1.975      865.731
11/23/2013  03:20:00      -91.031      -22.301      -15.144       11.570       11.560       10.100      133.859      133.624      102.000        0.469        0.018       93.723        6.253        0.004      330.525       -2.046      865.737
11/23/2013  03:21:00      -99.654      -18.414      -18.612       15.081       13.601        8.961      227.449      184.988       80.295        0.555        0.025      101.341        4.499        0.002      330.455       -2.161      865.725
11/23/2013  03:22:00     -101.576      -27.449      -16.582       18.751       25.387       18.936      351.610      644.486      358.572        0.635        0.068      105.219       14.982        0.020      330.451       -2.167      865.722
11/23/2013  03:23:00     -107.836      -13.357      -19.740       21.608       16.814       15.500      466.902      282.702      240.253        0.659        0.049      108.660       14.187        0.017      330.316       -2.389      865.717
11/23/2013  03:24:00     -123.512      -14.615      -23.464       14.064       16.382       10.998      197.804      268.362      120.960        0.830        0.029      124.374        7.428        0.004      330.296       -2.422      865.706
11/23/2013  03:25:00     -129.608      -12.215      -26.484       21.970       15.949       15.476      482.664      254.375      239.500        0.931        0.049      130.183       10.349        0.006      330.282       -2.445      865.694
11/23/2013  03:26:00     -115.966      -25.987      -12.688       29.270       34.140       20.435      856.755     1165.528      417.607        0.836        0.122      118.842       16.090        0.018      330.312       -2.395      865.671
11/23/2013  03:27:00      -94.150      -19.092       -6.236       41.567       30.309       23.220     1727.800      918.630      539.148        0.623        0.159       96.066       17.851        0.035      330.276       -2.454      865.643
11/23/2013  03:28:00      -94.000       -9.552      -23.674       51.123       27.470       26.940     2613.521      754.586      725.737        0.679        0.205       94.484       17.674        0.035      330.298       -2.418      865.622
11/23/2013  03:29:00      -80.709       -3.061       -8.217       32.605       26.949       17.052     1063.072      726.225      290.768        0.434        0.104       80.767        9.762        0.015      330.315       -2.390      865.627
11/23/2013  03:30:00      -85.126      -32.808      -13.833       41.174       28.753       26.846     1695.288      826.716      720.707        0.588        0.162       91.230       18.589        0.042      330.281       -2.445      865.642
11/23/2013  03:31:00      -98.120      -85.239        0.072       67.827       44.167       31.793     4600.564     1950.690     1010.796        1.223        0.378      129.974       34.553        0.071      330.317       -2.388      865.671
11/23/2013  03:32:00     -114.119      -24.178       -5.306       74.097       55.466       26.868     5490.412     3076.483      721.884        1.146        0.464      116.652       31.321        0.072      330.294       -2.426      865.678
11/23/2013  03:33:00     -135.060      -17.322      -11.598       55.595       42.345       27.668     3090.777     1793.112      765.542        1.216        0.282      136.166       18.386        0.018      330.295       -2.424      865.673
11/23/2013  03:34:00     -124.864       -2.891      -12.093       39.616       40.810       22.617     1569.410     1665.466      511.541        0.975        0.187      124.898       19.925        0.025      330.341       -2.348      865.681
11/23/2013  03:35:00      -96.616       14.008      -16.058       23.974       33.912       20.321      574.769     1150.004      412.960        0.596        0.107       97.626       14.364        0.022      330.344       -2.343      865.697
11/23/2013  03:36:00      -79.963      -40.711      -10.460       36.780       27.102       22.253     1352.782      734.499      495.181        0.537        0.129       89.730       12.742        0.020      330.421       -2.217      865.712
11/23/2013  03:37:00      -84.911      -55.668      -10.199       40.393       28.309       27.045     1631.574      801.396      731.457        0.679        0.158      101.532       23.910        0.055      330.405       -2.243      865.720
11/23/2013  03:38:00     -112.611      -65.796       -8.326       72.290       28.212       21.199     5225.805      795.922      449.410        1.177        0.324      130.423       23.046        0.031      330.339       -2.351      865.725
11/23/2013  03:39:00     -133.948      -54.416      -14.634       20.363       22.260       18.179      414.651      495.490      330.463        1.118        0.062      144.579       12.230        0.007      330.296       -2.422      865.729
11/23/2013  03:40:00      -53.151      -45.826        1.248       45.711       26.662       20.610     2089.496      710.871      424.778        0.408        0.161       70.178       12.862        0.034      330.327       -2.371      865.717
11/23/2013  03:41:00      -20.610      -34.209        8.053       50.505       23.446       28.976     2550.773      549.723      839.637        0.280        0.197       39.938       33.969        0.723      330.360       -2.319      865.709
11/23/2013  03:42:00      -36.318      -18.716       -0.613       26.961       16.635       14.129      726.908      276.737      199.624        0.144        0.060       40.857       13.617        0.111      330.380       -2.286      865.711
11/23/2013  03:43:00      -64.458      -20.693      -17.383       27.507       19.438       18.995      756.633      377.826      360.799        0.319        0.075       67.698        9.994        0.022      330.435       -2.195      865.724
11/23/2013  03:44:00      -91.058      -24.666       -7.467       26.492       24.490       17.476      701.816      599.741      305.410        0.528        0.080       94.339       10.124        0.012      330.410       -2.234      865.738
11/23/2013  03:45:00      -99.092      -51.228       -5.397       24.818       25.552       16.711      615.954      652.912      279.247        0.701        0.077      111.550        4.095        0.001      330.421       -2.215      865.753
11/23/2013  03:46:00     -117.221      -33.559       -9.951       25.595       24.457       15.172      655.105      598.137      230.186        0.822        0.074      121.930       10.890        0.008      330.388       -2.272      865.770
11/23/2013  03:47:00     -117.738      -38.096      -18.465       24.846       23.692       13.712      617.321      561.319      188.012        0.851        0.068      123.748       10.780        0.008      330.381       -2.281      865.777
11/23/2013  03:48:00      -87.537      -29.564       -3.589       34.591       31.133       19.116     1196.532      969.289      365.423        0.554        0.127       92.395       17.103        0.034      330.370       -2.301      865.763
11/23/2013  03:49:00      -79.280      -30.132      -17.598       29.166       24.749       16.682      850.675      612.491      278.288        0.462        0.087       84.813       11.045        0.017      330.462       -2.150      865.759
11/23/2013  03:50:00      -95.038      -26.883      -15.146       27.317       25.026       18.975      746.207      626.281      360.062        0.586        0.087       98.767       13.598        0.019      330.465       -2.146      865.761
11/23/2013  03:51:00      -45.814      -35.646       -6.967       35.385       28.755       20.323     1252.126      826.873      413.038        0.295        0.125       58.048       17.702        0.093      330.439       -2.187      865.770
11/23/2013  03:52:00      -72.726      -36.384       -2.547       48.056       43.148       24.348     2309.427     1861.732      592.815        0.569        0.238       81.320       19.179        0.056      330.405       -2.244      865.775
11/23/2013  03:53:00     -153.447      -30.981      -12.385       40.616       27.470       18.029     1649.672      754.579      325.043        1.369        0.136      156.543       15.973        0.010      330.390       -2.268      865.782
11/23/2013  03:54:00      -83.201      -50.874       -1.324       51.741       42.861       20.984     2677.183     1837.054      440.336        0.723        0.248       97.522       26.113        0.072      330.369       -2.303      865.778
11/23/2013  03:55:00      -88.143      -26.529       -1.388       43.548       34.655       22.538     1896.452     1201.001      507.973        0.604        0.180       92.049       24.170        0.069      330.347       -2.338      865.781
11/23/2013  03:56:00      -25.106      -28.800       10.492       56.228       27.148       20.947     3161.541      736.987      438.778        0.295        0.217       38.207       19.067        0.249      330.351       -2.332      865.798
11/23/2013  03:57:00      -22.301      -13.870       -5.400       26.550       23.975       12.322      704.880      574.782      151.837        0.107        0.072       26.262        8.740        0.111      330.352       -2.331      865.821
11/23/2013  03:58:00      -48.899        0.315      -15.821       23.255       23.095       15.005      540.808      533.400      225.147        0.197        0.065       48.900       14.415        0.087      330.579       -1.958      865.837
11/23/2013  03:59:00      -52.640      -47.418      -16.596       18.076       18.325       16.110      326.737      335.807      259.536        0.311        0.046       70.848        5.395        0.006      330.693       -1.772      865.850
11/23/2013  04:00:00      -20.806      -39.129      -11.187       16.958       25.654       11.740      287.559      658.116      137.816        0.159        0.054       44.317        6.867        0.024      330.540       -2.022      865.853
11/23/2013  04:01:00      -16.325      -23.325        4.443       23.978       18.815       14.789      574.960      353.996      218.703        0.099        0.057       28.470       12.732        0.200      330.467       -2.142      865.862
11/23/2013  04:02:00      -40.629      -41.014      -11.663       16.485       13.526        9.501      271.752      182.942       90.268        0.201        0.027       57.732        8.747        0.023      330.615       -1.899      865.861
11/23/2013  04:03:00      -69.095      -25.613       -4.402        7.945        9.082        5.339       63.120       82.480       28.507        0.281        0.009       73.690        3.323        0.002      330.505       -2.079      865.862
11/23/2013  04:04:00      -92.075      -34.401       -9.059       12.850       10.667        6.754      165.112      113.787       45.613        0.503        0.016       98.292        2.133        0.000      330.536       -2.028      865.854
11/23/2013  04:05:00     -116.490      -23.339      -12.557       13.959       15.027       10.679      194.862      225.817      114.034        0.740        0.027      118.805        8.762        0.005      330.555       -1.997      865.857
11/23/2013  04:06:00     -117.187      -27.330      -13.623       13.640       18.315       12.150      186.044      335.454      147.617        0.767        0.033      120.332        7.718        0.004      330.466       -2.142      865.851
11/23/2013  04:07:00     -115.623      -31.917      -11.633       13.944       12.643        8.850      194.429      159.851       78.323        0.748        0.022      119.947        5.724        0.002      330.544       -2.015      865.844
11/23/2013  04:08:00      -98.703      -20.964      -11.281       18.780       11.531        8.480      352.705      132.972       71.903        0.543        0.028      100.905        7.327        0.005      330.573       -1.967      865.827
11/23/2013  04:09:00      -93.356        7.973       -8.314       24.842       18.718       14.743      617.111      350.377      217.364        0.502        0.059       93.696       15.682        0.028      330.694       -1.770      865.815
11/23/2013  04:10:00      -92.443       -6.106      -14.148       17.656        9.033        8.423      311.747       81.593       70.941        0.462        0.023       92.645        2.277        0.001      330.677       -1.797      865.814
11/23/2013  04:11:00      -86.734      -18.600      -10.761       16.312       10.479       12.343      266.085      109.802      152.341        0.426        0.026       88.706       10.370        0.014      330.646       -1.848      865.821
11/23/2013  04:12:00     -100.734      -30.943      -10.183       14.893       16.302       11.495      221.809      265.758      132.135        0.591        0.031      105.379        9.348        0.008      330.539       -2.022      865.830
11/23/2013  04:13:00     -100.150      -21.803      -14.252       11.691       13.270        9.981      136.690      176.097       99.617        0.556        0.021      102.496        7.627        0.006      330.609       -1.908      865.839
11/23/2013  04:14:00      -71.207      -38.970      -17.493       29.365       21.939       19.211      862.309      481.307      369.051        0.430        0.086       81.173       18.241        0.050      330.548       -2.007      865.856
11/23/2013  04:15:00      -91.346      -49.303      -15.180       19.278       23.549       14.308      371.635      554.572      204.727        0.607        0.057      103.802        7.258        0.005      330.499       -2.088      865.870
11/23/2013  04:16:00      -91.090      -50.838      -15.167       29.733       30.512       16.665      884.044      931.002      277.720        0.660        0.105      104.316       13.730        0.017      330.458       -2.156      865.883
11/23/2013  04:17:00     -131.278      -23.958      -17.369       31.713       28.204       19.220     1005.708      795.456      369.412        1.014        0.109      133.447       14.558        0.012      330.366       -2.308      865.869
11/23/2013  04:18:00     -110.801      -66.107      -11.109       27.545       22.530       17.869      758.708      507.596      319.302        0.918        0.079      129.023       14.416        0.012      330.312       -2.396      865.854
11/23/2013  04:19:00      -77.909      -27.388      -12.759       52.092       29.493       21.917     2713.590      869.834      480.334        0.552        0.203       82.582       25.366        0.094      330.291       -2.430      865.851
11/23/2013  04:20:00      -33.618      -28.241        1.109       34.774       32.741       17.494     1209.220     1071.961      306.039        0.226        0.129       43.906       19.527        0.198      330.229       -2.532      865.860
11/23/2013  04:21:00     -117.544      -25.880      -11.875       35.990       19.523       16.659     1295.272      381.143      277.524        0.829        0.098      120.360       17.177        0.020      330.240       -2.514      865.858
11/23/2013  04:22:00     -152.730      -31.578      -20.120       19.108       16.148       15.328      365.128      260.752      234.935        1.279        0.043      155.961        9.639        0.004      330.221       -2.546      865.829
11/23/2013  04:23:00     -122.658      -54.021      -22.948       39.560       23.809       16.781     1564.968      566.875      281.607        1.045        0.121      134.027       17.562        0.017      330.211       -2.560      865.822
11/23/2013  04:24:00      -47.250      -42.193       -5.583       32.461       30.783       22.907     1053.708      947.565      524.731        0.328        0.126       63.347       15.993        0.064      330.193       -2.591      865.839
11/23/2013  04:25:00      -59.291      -47.491       -6.797       40.091       35.110       22.314     1607.283     1232.725      497.902        0.458        0.167       75.966       19.178        0.064      330.249       -2.499      865.855
11/23/2013  04:26:00      -99.970      -44.728       -5.922       23.001       36.849       20.924      529.029     1357.849      437.826        0.718        0.116      109.520       10.553        0.009      330.272       -2.461      865.882
11/23/2013  04:27:00     -121.973      -13.828      -12.677       19.342       10.494       12.777      374.111      110.122      163.255        0.794        0.032      122.755       10.404        0.007      330.326       -2.372      865.896
11/23/2013  04:28:00     -112.166      -13.731      -19.286       20.556       18.227       11.057      422.569      332.211      122.251        0.701        0.044      113.003       10.300        0.008      330.274       -2.458      865.904
11/23/2013  04:29:00      -99.566      -12.586      -18.596       15.119       20.122       10.325      228.584      404.876      106.607        0.558        0.037      100.359        5.646        0.003      330.350       -2.332      865.907
11/23/2013  04:30:00      -72.520      -35.467       -4.630       22.278       17.467       15.286      496.299      305.085      233.665        0.379        0.052       80.729       12.065        0.022      330.279       -2.449      865.907
11/23/2013  04:31:00      -82.241      -20.840       -5.109       35.524       16.348       14.825     1261.960      267.270      219.777        0.449        0.087       84.840       16.606        0.038      330.286       -2.440      865.910
11/23/2013  04:32:00      -70.063      -15.826      -10.775       27.453       18.569       14.469      753.671      344.821      209.344        0.329        0.065       71.828        8.763        0.015      330.311       -2.396      865.913
11/23/2013  04:33:00      -85.540      -19.809       -8.448       19.263       16.327       16.526      371.057      266.567      273.094        0.435        0.046       87.804       12.473        0.020      330.226       -2.538      865.916
11/23/2013  04:34:00      -89.141      -21.603      -14.527       12.659       15.558       10.102      160.249      242.056      102.050        0.456        0.025       91.722        0.511        0.000      330.232       -2.526      865.911
11/23/2013  04:35:00      -92.923      -34.859       -9.574       18.317       16.815       11.960      335.511      282.754      143.045        0.535        0.038       99.247        5.860        0.003      330.256       -2.487      865.897
11/23/2013  04:36:00      -86.735      -14.515       -5.672       29.956       25.599       18.795      897.346      655.304      353.265        0.484        0.095       87.941       19.830        0.051      330.207       -2.568      865.887
11/23/2013  04:37:00      -89.517      -26.200       -8.486       20.509       20.190       13.112      420.599      407.624      171.925        0.489        0.050       93.273        9.059        0.009      330.183       -2.608      865.887
11/23/2013  04:38:00      -94.131      -25.764      -13.489       30.932       16.202       17.982      956.778      262.498      323.366        0.562        0.077       97.593       13.243        0.018      330.229       -2.531      865.893
11/23/2013  04:39:00      -72.151      -35.853      -14.047       27.701       18.524       17.830      767.350      343.155      317.916        0.406        0.071       80.568        3.899        0.002      330.235       -2.520      865.896
11/23/2013  04:40:00      -74.781      -27.482       -5.683       28.601       19.657       17.128      817.992      386.378      293.357        0.394        0.075       79.671        8.785        0.012      330.171       -2.627      865.897
11/23/2013  04:41:00      -34.480      -10.602       -9.074       21.870       22.922       16.988      478.280      525.407      288.579        0.134        0.065       36.073       10.549        0.086      330.127       -2.700      865.909
11/23/2013  04:42:00      -42.694      -14.741       -4.313       14.818       15.543       13.541      219.570      241.582      183.353        0.135        0.032       45.167        9.254        0.042      330.176       -2.618      865.935
11/23/2013  04:43:00      -21.271      -10.733        1.033       26.691       14.257       13.379      712.409      203.250      178.998        0.083        0.055       23.825       13.651        0.328      330.168       -2.632      865.949
11/23/2013  04:44:00      -68.933      -34.155      -11.526        9.987       12.273        8.747       99.738      150.631       76.508        0.319        0.016       76.931        6.596        0.007      330.133       -2.689      865.938
11/23/2013  04:45:00      -66.705      -30.944      -12.372       14.174       12.167        8.972      200.890      148.027       80.496        0.299        0.021       73.533        5.286        0.005      330.111       -2.726      865.933
11/23/2013  04:46:00      -94.739      -13.685      -10.152       17.812       16.751       10.904      317.265      280.594      118.906        0.499        0.036       95.722       10.014        0.011      330.095       -2.752      865.938
11/23/2013  04:47:00      -98.651      -23.837      -15.723       15.488       16.286       13.821      239.873      265.231      191.008        0.562        0.035      101.490       11.830        0.014      329.999       -2.909      865.938
11/23/2013  04:48:00      -86.110      -22.786      -11.112       15.498       20.049       12.342      240.173      401.968      152.318        0.443        0.040       89.074       10.835        0.015      330.007       -2.895      865.934
11/23/2013  04:49:00      -82.839      -15.810      -12.004       16.015        9.981       13.812      256.473       99.613      190.777        0.390        0.027       84.334       10.106        0.014      330.024       -2.867      865.917
11/23/2013  04:50:00      -80.015      -29.821       -6.515       18.017       14.969       10.614      324.606      224.060      112.664        0.400        0.033       85.391        7.389        0.007      330.216       -2.554      865.907
11/23/2013  04:51:00      -64.935      -16.098       -6.556       10.733       10.503        8.374      115.194      110.314       70.126        0.241        0.015       66.900        6.359        0.009      330.192       -2.593      865.904
11/23/2013  04:52:00      -63.163      -16.002       -7.244        7.752       11.600        8.331       60.087      134.570       69.401        0.228        0.013       65.159        5.198        0.006      330.260       -2.481      865.885
11/23/2013  04:53:00      -75.895      -16.190       -8.146       14.382       15.561       10.387      206.852      242.137      107.895        0.332        0.028       77.603        8.430        0.012      330.236       -2.520      865.871
11/23/2013  04:54:00     -132.534        5.870      -16.320       15.656       17.613        8.954      245.126      310.210       80.177        0.925        0.032      132.664        4.475        0.001      330.192       -2.593      865.866
11/23/2013  04:55:00     -133.171       24.922      -20.538       12.040       14.102       10.885      144.959      198.880      118.475        0.962        0.023      135.483        4.359        0.001      330.181       -2.612      865.870
11/23/2013  04:56:00     -112.888       -2.339      -11.385       19.045       12.622        9.816      362.695      159.322       96.352        0.675        0.031      112.912        5.584        0.002      330.208       -2.567      865.893
11/23/2013  04:57:00      -77.775      -21.336       -7.825       14.903       23.431       10.540      222.086      549.021      111.086        0.372        0.044       80.649        7.236        0.008      330.030       -2.858      865.915
11/23/2013  04:58:00      -70.133      -18.552       -9.465       14.484       18.069       10.651      209.792      326.497      113.438        0.300        0.032       72.545        6.201        0.007      329.962       -2.970      865.916
11/23/2013  04:59:00      -89.161      -28.783       -7.071       16.037       14.248        9.310      257.173      203.012       86.668        0.469        0.027       93.691        7.947        0.007      330.260       -2.481      865.918
11/23/2013  05:00:00      -72.916      -27.301       -5.175        9.888        9.126        6.713       97.766       83.291       45.062        0.316        0.011       77.859        5.273        0.005      330.229       -2.531      865.915
11/23/2013  05:01:00      -82.511      -20.107       -5.257       13.568       11.694        9.623      184.100      136.758       92.606        0.383        0.021       84.926        6.862        0.007      330.209       -2.563      865.912
11/23/2013  05:02:00      -76.513      -23.143       -5.775       21.510       10.858       10.301      462.689      117.898      106.103        0.355        0.034       79.937        9.789        0.015      330.158       -2.648      865.901
11/23/2013  05:03:00      -77.908      -36.191        0.475       24.502       13.526        9.303      600.351      182.952       86.546        0.412        0.043       85.904       10.094        0.014      330.160       -2.646      865.890
11/23/2013  05:04:00      -71.869      -26.964       -1.083       15.025       11.846       11.137      225.758      140.322      124.040        0.319        0.025       76.760        9.297        0.015      330.116       -2.720      865.884
11/23/2013  05:05:00      -74.289       -1.861       -1.302       29.953       14.567       10.687      897.169      212.192      114.216        0.337        0.061       74.312       13.501        0.033      330.098       -2.746      865.878
11/23/2013  05:06:00      -94.254       10.352       -8.711       27.445       13.762       13.462      753.227      189.398      181.235        0.510        0.056       94.821       15.991        0.028      330.206       -2.570      865.892
11/23/2013  05:07:00      -66.402      -11.206       -5.742       15.637       19.334       11.756      244.531      373.809      138.197        0.266        0.038       67.341        5.884        0.008      330.100       -2.743      865.902
11/23/2013  05:08:00      -64.265      -15.054       -4.542       29.656       23.464       17.308      879.468      550.544      299.576        0.305        0.086       66.005       16.530        0.063      330.063       -2.804      865.904
11/23/2013  05:09:00      -93.159      -36.731      -10.790       38.768       28.812       19.923     1502.969      830.156      396.937        0.644        0.137      100.139       22.559        0.051      330.155       -2.654      865.884
11/23/2013  05:10:00      -82.939      -54.378       -8.903       23.506       17.198       15.192      552.515      295.783      230.811        0.550        0.054       99.176       11.236        0.013      330.052       -2.823      865.849
11/23/2013  05:11:00      -78.837      -43.814       -8.740       12.547       15.109        7.810      157.415      228.289       60.996        0.433        0.022       90.194        5.276        0.003      330.065       -2.801      865.824
11/23/2013  05:12:00      -71.352       -9.977       -8.843       24.726       16.844        8.719      611.377      283.719       76.024        0.312        0.049       72.047        8.459        0.014      330.036       -2.848      865.822
11/23/2013  05:13:00      -85.509       17.047       -7.225       19.187       13.028       13.147      368.132      169.738      172.849        0.418        0.036       87.191        9.395        0.012      330.054       -2.818      865.841
11/23/2013  05:14:00     -107.157       10.370      -12.748       10.395       10.870        7.852      108.058      118.157       61.657        0.602        0.014      107.657        3.732        0.001      330.220       -2.546      865.851
11/23/2013  05:15:00      -91.975        1.434      -11.052       12.170       10.520        8.705      148.100      110.680       75.777        0.446        0.017       91.986        4.803        0.003      330.144       -2.672      865.856
11/23/2013  05:16:00      -87.980      -21.156      -10.063        9.918       17.087        9.199       98.360      291.962       84.620        0.438        0.024       90.488        6.530        0.005      329.939       -3.008      865.845
11/23/2013  05:17:00      -66.892       -8.167       -5.205       29.182       19.876       11.119      851.579      395.046      123.642        0.297        0.069       67.388        7.701        0.013      329.801       -3.232      865.838
11/23/2013  05:18:00      -59.783       -1.616      -11.516       23.784       34.473       15.201      565.676     1188.414      231.085        0.285        0.099       59.805       14.836        0.062      329.840       -3.168      865.831
11/23/2013  05:19:00      -54.022       14.739       -8.842       28.731       20.437       14.701      825.450      417.668      216.126        0.234        0.073       55.996       10.214        0.033      329.884       -3.098      865.829
11/23/2013  05:20:00      -63.904      -17.622      -10.279       16.821       19.944        9.863      282.931      397.771       97.269        0.264        0.039       66.289        9.742        0.022      329.952       -2.986      865.825
11/23/2013  05:21:00      -56.063      -16.285      -18.988       21.177       20.596       14.719      448.451      424.202      216.658        0.243        0.054       58.381        8.599        0.022      330.034       -2.852      865.825
11/23/2013  05:22:00      -51.179      -17.214      -14.528       12.986       16.596        8.299      168.635      275.443       68.872        0.182        0.026       53.996        4.159        0.006      330.140       -2.678      865.810
11/23/2013  05:23:00      -76.468      -25.790      -11.016       18.757       14.032        8.966      351.811      196.887       80.381        0.363        0.031       80.700        5.398        0.004      329.954       -2.983      865.798
11/23/2013  05:24:00      -78.071      -19.691      -13.239       15.824       12.330       12.147      250.398      152.029      147.549        0.360        0.027       80.515       10.233        0.016      329.894       -3.081      865.788
11/23/2013  05:25:00      -80.141        0.520      -15.519       14.194       10.745        9.807      201.459      115.457       96.186        0.354        0.021       80.143        7.383        0.008      329.904       -3.064      865.778
11/23/2013  05:26:00      -55.578        0.380      -10.134        6.670        6.569        5.413       44.490       43.148       29.301        0.165        0.006       55.579        3.368        0.004      330.391       -2.265      865.779
11/23/2013  05:27:00      -35.124        2.303       -3.002        8.691        9.741        6.599       75.529       94.880       43.545        0.073        0.011       35.200        3.402        0.009      330.757       -1.665      865.792
11/23/2013  05:28:00      -26.910      -16.373       -4.068        7.724       14.282        9.419       59.652      203.986       88.711        0.068        0.018       31.499        5.554        0.031      330.289       -2.435      865.806
11/23/2013  05:29:00      -41.792      -27.846      -15.444       14.650       12.393        9.112      214.617      153.585       83.033        0.161        0.023       50.219        5.274        0.011      330.050       -2.825      865.789
11/23/2013  05:30:00      -51.250      -32.796       -9.623       22.252       19.354       17.770      495.164      374.592      315.788        0.249        0.059       60.845       13.822        0.052      329.836       -3.176      865.773
11/23/2013  05:31:00      -55.101      -21.983      -14.046       13.770       15.610        7.614      189.614      243.674       57.979        0.210        0.025       59.325        4.868        0.007      330.003       -2.902      865.781
11/23/2013  05:32:00      -42.291      -20.315      -16.054       15.273       14.981        7.087      233.252      224.445       50.220        0.148        0.025       46.917        3.067        0.004      329.934       -3.015      865.812
11/23/2013  05:33:00      -37.299      -29.914      -11.408       20.456       20.207       11.444      418.460      408.307      130.960        0.169        0.048       47.813       11.871        0.062      330.196       -2.585      865.839
11/23/2013  05:34:00      -37.609      -31.853      -10.827       16.709       14.629       11.681      279.189      214.011      136.446        0.159        0.031       49.286        7.288        0.022      330.002       -2.905      865.852
11/23/2013  05:35:00      -29.501      -22.809       -6.195       22.802       15.922       12.342      519.922      253.503      152.334        0.118        0.046       37.290       11.722        0.099      329.800       -3.235      865.865
11/23/2013  05:36:00      -65.022      -31.087      -20.902       21.018       18.231       18.384      441.738      332.365      337.968        0.337        0.056       72.072       10.014        0.019      329.778       -3.269      865.865
11/23/2013  05:37:00      -84.767      -32.138      -14.452       12.107       13.232        9.302      146.586      175.090       86.520        0.442        0.020       90.654        5.932        0.004      329.683       -3.427      865.868
11/23/2013  05:38:00      -79.064      -24.816      -13.410       11.277       11.970        8.372      127.178      143.276       70.086        0.369        0.017       82.867        3.386        0.002      329.793       -3.244      865.880
11/23/2013  05:39:00      -62.747      -31.196      -11.478       18.249       14.375       13.396      333.031      206.647      179.451        0.288        0.036       70.074        8.133        0.013      329.860       -3.135      865.899
11/23/2013  05:40:00      -64.667      -31.855      -14.541       15.707       12.373        8.859      246.698      153.101       78.481        0.294        0.024       72.087        3.716        0.003      329.859       -3.139      865.932
11/23/2013  05:41:00      -58.648      -27.506       -9.962       14.602       13.267       13.629      213.207      176.012      185.757        0.244        0.029       64.778        8.889        0.019      329.780       -3.267      865.944
11/23/2013  05:42:00      -73.094      -26.712      -10.588       13.702       14.520        9.244      187.740      210.845       85.451        0.333        0.024       77.822        6.637        0.007      329.723       -3.362      865.952
11/23/2013  05:43:00      -95.118      -23.474      -15.526       16.957       11.266       10.312      287.550      126.925      106.344        0.518        0.026       97.972        7.891        0.006      329.787       -3.257      865.955
11/23/2013  05:44:00      -92.407      -35.560       -8.604       11.348       14.444       12.192      128.775      208.631      148.655        0.518        0.024       99.013        5.126        0.003      329.783       -3.262      865.950
11/23/2013  05:45:00      -83.036      -27.055       -9.215       17.704       13.947       11.252      313.419      194.516      126.610        0.417        0.032       87.333        7.473        0.007      329.782       -3.264      865.958
11/23/2013  05:46:00      -90.950       -2.573      -13.982       19.521       14.361       11.742      381.082      206.249      137.874        0.460        0.036       90.986        6.956        0.006      329.732       -3.346      865.979
11/23/2013  05:47:00      -55.592      -11.625      -14.591       18.982       17.580        9.646      360.310      309.049       93.042        0.210        0.038       56.794       10.047        0.031      329.847       -3.158      866.011
11/23/2013  05:48:00      -58.117      -12.640      -11.453       10.861       13.353        8.389      117.963      178.294       70.371        0.202        0.018       59.475        8.314        0.020      329.796       -3.242      866.013
11/23/2013  05:49:00      -65.551       -8.806       -7.541        9.353        8.626        9.848       87.473       74.402       96.989        0.235        0.013       66.139        7.314        0.012      329.827       -3.191      865.999
11/23/2013  05:50:00      -44.505       -9.494      -15.690        9.120       10.075        6.251       83.168      101.498       39.075        0.127        0.011       45.507        6.397        0.020      329.888       -3.092      866.005
11/23/2013  05:51:00      -44.132      -14.057       -7.006       10.994       15.771       10.539      120.860      248.729      111.080        0.134        0.024       46.317       10.024        0.047      330.177       -2.617      866.009
11/23/2013  05:52:00      -45.873      -21.990       -9.561        9.917        6.295        4.897       98.344       39.625       23.978        0.142        0.008       50.872        2.499        0.002      330.091       -2.759      866.014
11/23/2013  05:53:00      -23.078      -29.358      -10.360       18.850        9.594        6.108      355.307       92.039       37.302        0.099        0.024       37.343        3.144        0.007      330.186       -2.601      866.009
11/23/2013  05:54:00       -1.786      -12.643       -1.903       11.331        9.524        7.466      128.393       90.699       55.748        0.022        0.014       12.768        7.220        0.320      330.351       -2.331      866.020
11/23/2013  05:55:00       -5.955      -16.389       -2.516        6.523       11.993        5.272       42.548      143.835       27.799        0.026        0.011       17.438        4.797        0.076      330.236       -2.521      866.038
11/23/2013  05:56:00      -21.044      -14.777       -6.565       18.525       12.812        5.922      343.175      164.156       35.075        0.062        0.027       25.714        5.803        0.051      330.307       -2.402      866.030
11/23/2013  05:57:00      -68.407        1.224      -10.674        9.282        4.608        5.690       86.150       21.232       32.375        0.247        0.007       68.418        3.824        0.003      329.869       -3.123      866.025
11/23/2013  05:58:00      -73.890       11.275      -15.400       13.513        7.933        6.785      182.613       62.933       46.037        0.306        0.015       74.746        3.541        0.002      329.873       -3.116      866.019
11/23/2013  05:59:00      -44.306        2.707       -9.904       11.459        6.005        5.355      131.299       36.061       28.680        0.113        0.010       44.388        3.952        0.008      330.217       -2.551      866.031
11/23/2013  06:00:00      -38.152       -3.155       -2.835        6.562       12.918        7.063       43.060      166.869       49.892        0.087        0.013       38.282        4.045        0.011      330.065       -2.801      866.043
11/23/2013  06:01:00      -54.122      -16.353      -10.631       12.715       12.384       10.543      161.682      153.372      111.150        0.187        0.021       56.538        5.646        0.010      329.925       -3.030      866.049
11/23/2013  06:02:00      -72.788      -44.654      -13.127       13.075       14.100       12.256      170.956      198.798      150.222        0.399        0.026       85.393        4.243        0.002      329.780       -3.266      866.031
11/23/2013  06:03:00      -79.435      -33.022      -13.681       21.502       28.164       11.737      462.318      793.203      137.759        0.449        0.070       86.025        6.880        0.006      329.698       -3.401      866.035
11/23/2013  06:04:00     -101.931       -5.223       -9.958       26.800       17.858       16.896      718.222      318.913      285.474        0.592        0.066      102.065       13.852        0.018      329.622       -3.525      866.045
11/23/2013  06:05:00      -78.875       -1.879      -16.802       11.413        8.803        8.742      130.246       77.484       76.422        0.340        0.014       78.897        4.727        0.004      329.605       -3.554      866.047
11/23/2013  06:06:00      -67.842       -2.018      -15.177       10.283       15.676        9.136      105.742      245.736       83.459        0.264        0.022       67.872        8.142        0.014      329.816       -3.208      866.031
11/23/2013  06:07:00      -88.834       -2.128      -13.923       20.683       14.231       11.526      427.791      202.512      132.854        0.443        0.038       88.859        9.092        0.010      329.761       -3.297      866.014
11/23/2013  06:08:00      -94.616      -14.027      -12.806       17.211       10.499       13.054      296.202      110.230      170.409        0.494        0.029       95.650        9.142        0.009      329.666       -3.454      866.011
11/23/2013  06:09:00     -102.515      -18.812      -13.379       47.094       18.417       16.385     2217.862      339.193      268.473        0.693        0.141      104.227       16.796        0.026      329.672       -3.444      866.024
11/23/2013  06:10:00      -79.899        4.823      -15.864       33.017       19.419       16.053     1090.137      377.089      257.684        0.419        0.086       80.045       15.604        0.038      329.615       -3.536      866.041
11/23/2013  06:11:00      -83.184        1.129      -11.647       24.701       19.194       13.301      610.124      368.406      176.910        0.411        0.058       83.192        9.772        0.014      329.606       -3.552      866.050
11/23/2013  06:12:00      -86.184       -9.004      -19.667       19.309       25.122       11.834      372.835      631.111      140.040        0.452        0.057       86.653        5.234        0.004      329.672       -3.443      866.061
11/23/2013  06:13:00      -78.616      -26.151      -14.575       24.510       17.625       18.221      600.734      310.637      332.013        0.416        0.062       82.851        9.858        0.014      329.749       -3.317      866.060
11/23/2013  06:14:00      -98.077      -29.708      -22.711       20.421       20.227       13.670      417.029      409.113      186.875        0.602        0.051      102.478        9.884        0.009      329.807       -3.223      866.061
11/23/2013  06:15:00     -101.861      -31.827      -15.797       18.767       19.985       14.448      352.211      399.382      208.735        0.630        0.048      106.717        9.212        0.007      329.659       -3.465      866.060
11/23/2013  06:16:00      -85.887      -20.419      -16.144       24.074       16.275       13.220      579.576      264.881      174.776        0.454        0.051       88.281       10.675        0.015      329.706       -3.389      866.052
11/23/2013  06:17:00      -99.035      -23.563      -12.599       18.907       11.999       12.134      357.487      143.968      147.238        0.559        0.032      101.799       11.504        0.013      329.729       -3.352      866.036
11/23/2013  06:18:00     -125.311      -13.295      -20.169       10.684       11.005       12.047      114.143      121.118      145.135        0.833        0.019      126.015        4.112        0.001      329.791       -3.250      866.022
11/23/2013  06:19:00     -103.273      -12.673      -13.788       22.702       15.873       14.359      515.370      251.961      206.175        0.599        0.049      104.048       11.751        0.013      329.812       -3.216      866.014
11/23/2013  06:20:00     -104.434      -12.678      -16.972       31.286       15.734       12.531      978.830      247.567      157.030        0.637        0.069      105.201       13.340        0.016      329.776       -3.273      866.004
11/23/2013  06:21:00     -129.828       -5.530      -16.402       21.294       19.047       13.596      453.418      362.771      184.850        0.908        0.050      129.946        7.948        0.004      329.786       -3.259      865.994
11/23/2013  06:22:00     -121.526      -14.435      -22.433       17.100       21.076       12.159      292.404      444.192      147.838        0.818        0.044      122.380        7.491        0.004      329.969       -2.959      865.999
11/23/2013  06:23:00     -103.380       -3.800      -11.951       25.143       13.929       11.717      632.178      194.004      137.282        0.590        0.048      103.450       10.608        0.011      329.947       -2.994      866.018
11/23/2013  06:24:00      -70.277      -26.668       -7.579       23.244       20.153       11.291      540.276      406.130      127.476        0.339        0.054       75.166       12.635        0.028      329.868       -3.122      866.033
11/23/2013  06:25:00     -126.412      -10.859      -17.375       23.546       12.106        9.364      554.409      146.549       87.691        0.859        0.039      126.877        8.950        0.005      329.938       -3.008      866.032
11/23/2013  06:26:00     -107.014      -26.812      -14.248       19.670       18.328       12.710      386.918      335.916      161.535        0.663        0.044      110.321       10.960        0.010      329.845       -3.163      866.030
11/23/2013  06:27:00     -111.647      -28.423      -17.427       17.621       18.547       10.197      310.493      343.975      103.978        0.717        0.038      115.208        6.153        0.003      329.854       -3.147      866.055
11/23/2013  06:28:00     -119.025      -10.102      -22.234       15.104       10.633       10.240      228.116      113.058      104.863        0.760        0.022      119.453        7.908        0.004      329.899       -3.072      866.075
11/23/2013  06:29:00     -102.668      -22.784      -13.428       18.889       12.356       10.036      356.782      152.667      100.726        0.593        0.031      105.165        8.337        0.006      329.792       -3.248      866.081
11/23/2013  06:30:00     -107.260       -1.676      -16.698       15.915       13.530        6.314      253.295      183.055       39.865        0.613        0.024      107.273        6.522        0.004      329.797       -3.241      866.081
11/23/2013  06:31:00     -117.437        8.596      -13.024       15.671       13.319       11.350      245.584      177.405      128.814        0.729        0.028      117.752        4.218        0.001      329.819       -3.204      866.080
11/23/2013  06:32:00     -125.189       -8.242      -19.378       16.901       14.557       10.239      285.638      211.916      104.846        0.836        0.030      125.460        6.762        0.003      329.880       -3.104      866.085
11/23/2013  06:33:00     -127.334      -30.108      -19.656       18.176       17.106       13.103      330.352      292.609      171.691        0.915        0.040      130.845        9.346        0.005      329.749       -3.318      866.059
11/23/2013  06:34:00     -115.154      -25.140      -18.508       14.106       15.013       13.637      198.976      225.396      185.967        0.742        0.031      117.867        6.302        0.003      329.691       -3.412      866.046
11/23/2013  06:35:00      -89.389      -29.271      -10.304       16.052       17.366       12.067      257.665      301.570      145.617        0.483        0.035       94.059        8.829        0.009      329.758       -3.304      866.048
11/23/2013  06:36:00     -100.139       -4.860      -13.524       23.504       23.885       11.112      552.426      570.474      123.487        0.574        0.062      100.256        9.190        0.008      329.834       -3.181      866.064
11/23/2013  06:37:00      -76.446      -19.255       -5.820       17.814       16.441       10.135      317.334      270.322      102.717        0.347        0.035       78.833        9.222        0.014      329.798       -3.237      866.087
11/23/2013  06:38:00      -68.478      -12.988      -10.902       14.931       11.505        9.312      222.937      132.357       86.718        0.271        0.022       69.698        5.444        0.006      329.813       -3.212      866.118
11/23/2013  06:39:00      -80.158      -24.117      -10.433       19.106       13.918        9.249      365.029      193.724       85.547        0.388        0.032       83.708        9.078        0.012      329.875       -3.111      866.138
11/23/2013  06:40:00      -80.305      -37.731      -12.070       11.116        6.886        6.379      123.560       47.422       40.686        0.411        0.011       88.728        3.570        0.002      329.857       -3.142      866.143
11/23/2013  06:41:00      -52.705      -33.921       -4.798       22.825       16.048        8.992      520.969      257.539       80.851        0.241        0.043       62.677        9.337        0.022      329.922       -3.035      866.135
11/23/2013  06:42:00      -44.584      -19.275       -8.019        9.672        8.170        5.213       93.555       66.753       27.175        0.131        0.009       48.572        2.773        0.003      329.943       -3.003      866.117
11/23/2013  06:43:00      -42.797      -20.203       -3.413        7.156       10.911        5.910       51.210      119.052       34.931        0.123        0.010       47.326        2.625        0.003      329.993       -2.917      866.110
11/23/2013  06:44:00      -49.335      -19.633       -4.318       12.391        8.344        6.232      153.530       69.621       38.837        0.155        0.013       53.098        5.927        0.012      330.027       -2.864      866.117
11/23/2013  06:45:00      -23.177      -12.545       -3.811       10.721        7.491        6.834      114.936       56.115       46.698        0.046        0.011       26.354        6.803        0.067      329.880       -3.105      866.129
11/23/2013  06:46:00      -27.258       -8.803       -1.339       12.918        9.529        7.986      166.886       90.803       63.771        0.057        0.016       28.644        8.300        0.084      329.854       -3.148      866.133
11/23/2013  06:47:00      -33.651        7.083       -6.124       12.345        8.385        7.685      152.389       70.302       59.065        0.075        0.014       34.388        6.630        0.037      329.761       -3.297      866.135
11/23/2013  06:48:00      -31.079       17.892        0.631       11.013       16.554        9.786      121.285      274.022       95.757        0.089        0.025       35.862        6.599        0.034      329.739       -3.336      866.148
11/23/2013  06:49:00        1.650       32.765        0.399       24.500       22.891       17.206      600.258      523.996      296.062        0.125        0.071       32.806       19.557        0.355      329.723       -3.360      866.171
11/23/2013  06:50:00       33.898       32.721       -3.015       12.130       15.136       12.139      147.126      229.101      147.360        0.138        0.026       47.114        9.286        0.039      329.601       -3.561      866.189
11/23/2013  06:51:00       -0.425       20.042       -5.820       11.681        7.076        6.336      136.457       50.069       40.144        0.033        0.011       20.046        3.342        0.028      329.649       -3.481      866.190
11/23/2013  06:52:00      -50.951        0.284       -7.751       27.068        8.771        6.607      732.662       76.926       43.646        0.175        0.043       50.952        6.825        0.018      329.749       -3.318      866.172
11/23/2013  06:53:00      -85.425      -13.364      -10.791       18.871       13.826       14.152      356.129      191.149      200.287        0.417        0.037       86.464       12.242        0.020      329.531       -3.676      866.138
11/23/2013  06:54:00      -81.653       -1.146       -5.876       20.977       15.034       12.359      440.046      226.009      152.748        0.376        0.041       81.661       11.908        0.021      329.455       -3.799      866.137
11/23/2013  06:55:00      -71.009       -0.336       -6.425       17.143       13.526       12.509      293.878      182.961      156.480        0.286        0.032       71.010        7.771        0.012      329.430       -3.840      866.168
11/23/2013  06:56:00       -1.452        0.239       -0.113       23.075       16.012       11.361      532.448      256.400      129.079        0.046        0.046        1.471        9.319       40.108      329.619       -3.530      866.197
11/23/2013  06:57:00       10.153       25.657        1.468       11.593       20.798       11.593      134.394      432.577      134.408        0.073        0.035       27.593       10.750        0.152      329.768       -3.287      866.206
11/23/2013  06:58:00      -25.954        7.901       -2.371       12.633       20.566        8.521      159.590      422.962       72.608        0.070        0.033       27.130        3.853        0.020      329.800       -3.233      866.182
11/23/2013  06:59:00      -64.783       -6.792       -8.748       16.675        9.242        7.433      278.045       85.408       55.255        0.237        0.021       65.138        8.224        0.016      329.535       -3.669      866.157
11/23/2013  07:00:00      -69.459       -3.994      -13.476       13.493        8.842        8.651      182.070       78.183       74.832        0.268        0.017       69.574        6.683        0.009      329.443       -3.818      866.159
11/23/2013  07:01:00      -62.327       -7.355      -14.522        9.052        6.366        6.472       81.935       40.523       41.888        0.216        0.008       62.760        4.280        0.005      329.398       -3.893      866.167
11/23/2013  07:02:00      -18.676       -3.632       -3.003       24.476       14.245        9.747      599.055      202.921       95.004        0.063        0.045       19.025       10.787        0.321      329.588       -3.582      866.183
11/23/2013  07:03:00       66.505       18.210        8.130       18.459       15.523       16.580      340.736      240.974      274.891        0.284        0.043       68.953       10.428        0.023      329.712       -3.378      866.221
11/23/2013  07:04:00       77.539       32.669       -0.520       15.086       16.535       12.290      227.587      273.408      151.037        0.387        0.033       84.140        4.572        0.003      329.600       -3.563      866.235
11/23/2013  07:05:00       31.274       20.191       -1.592       27.357       18.684       14.743      748.404      349.109      217.357        0.135        0.066       37.226       17.142        0.212      329.589       -3.580      866.223
11/23/2013  07:06:00        8.577        1.546       -1.031        5.221        3.654        5.302       27.259       13.352       28.110        0.007        0.003        8.715        2.343        0.072      329.707       -3.383      866.222
11/23/2013  07:07:00       13.578        4.651        4.385        5.685        6.200        7.950       32.317       38.444       63.204        0.018        0.007       14.352        5.883        0.168      329.764       -3.296      866.245
11/23/2013  07:08:00       26.304       19.236        8.150       12.973       14.919        7.741      168.299      222.584       59.924        0.079        0.023       32.587        6.994        0.046      329.725       -3.355      866.285
11/23/2013  07:09:00       10.466       60.466       -5.647       18.196       15.613       12.253      331.078      243.763      150.136        0.226        0.036       61.365        8.241        0.018      329.593       -3.574      866.321
11/23/2013  07:10:00        9.765       70.181      -12.555       16.971       12.684       11.284      288.009      160.886      127.331        0.288        0.029       70.857        9.677        0.019      329.688       -3.417      866.334
11/23/2013  07:11:00      -19.759       42.871       -6.885       19.528       29.831       11.551      381.355      889.909      133.426        0.184        0.070       47.206        7.219        0.023      329.836       -3.176      866.332
11/23/2013  07:12:00      -37.052       -5.590       -6.411        8.435       10.499       12.981       71.151      110.219      168.519        0.090        0.017       37.472        2.433        0.004      329.525       -3.685      866.334
11/23/2013  07:13:00      -16.464        3.432       -8.367       12.856        8.000        9.643      165.279       63.997       92.984        0.034        0.016       16.818        5.287        0.099      329.843       -3.164      866.350
11/23/2013  07:14:00      -30.822       -1.816       -8.146        9.345       11.154        9.816       87.326      124.417       96.363        0.066        0.015       30.875        8.115        0.069      329.767       -3.288      866.364
11/23/2013  07:15:00      -26.575      -17.091       -2.084       13.716       11.884        6.006      188.120      141.220       36.069        0.068        0.018       31.597        4.752        0.023      329.717       -3.370      866.377
11/23/2013  07:16:00      -36.836      -14.393       -5.667        9.508        8.552        6.646       90.395       73.133       44.171        0.090        0.010       39.548        6.047        0.023      329.629       -3.515      866.393
11/23/2013  07:17:00      -68.681      -14.787      -10.831       12.047        7.727        6.384      145.124       59.703       40.759        0.265        0.012       70.255        4.718        0.005      329.644       -3.490      866.408
11/23/2013  07:18:00      -61.834       -5.803      -11.385        7.471        6.193        6.234       55.811       38.348       38.860        0.206        0.007       62.106        2.718        0.002      329.621       -3.526      866.422
11/23/2013  07:19:00      -45.828        0.551       -8.984        8.830        6.862        5.627       77.973       47.092       31.662        0.117        0.008       45.831        4.283        0.009      329.826       -3.191      866.439
11/23/2013  07:20:00      -19.086       19.794       -4.517       11.695        8.236        5.701      136.768       67.831       32.498        0.051        0.012       27.497        4.560        0.028      330.100       -2.744      866.423
11/23/2013  07:21:00      -26.412       19.874       -7.273       18.388       11.261       12.206      338.101      126.805      148.982        0.088        0.031       33.054       10.006        0.092      330.246       -2.504      866.406
11/23/2013  07:22:00      -39.095       25.721      -11.637       13.833       14.644        8.483      191.365      214.436       71.964        0.140        0.024       46.798        4.509        0.009      330.150       -2.661      866.397
11/23/2013  07:23:00      -50.077       17.565       -9.803       24.269       11.955        8.432      589.001      142.913       71.100        0.186        0.040       53.068        7.291        0.019      330.214       -2.555      866.403
11/23/2013  07:24:00      -66.424       -6.186       -9.593        8.576       18.208        7.957       73.540      331.524       63.321        0.251        0.023       66.711        4.946        0.005      329.912       -3.052      866.394
11/23/2013  07:25:00      -65.799      -34.325      -10.697        9.327       12.302        8.116       86.995      151.348       65.871        0.296        0.015       74.213        4.971        0.004      329.793       -3.245      866.404
11/23/2013  07:26:00      -75.566       -8.128      -12.256       10.876       14.606       11.337      118.294      213.346      128.532        0.319        0.023       76.002        7.564        0.010      329.898       -3.076      866.428
11/23/2013  07:27:00      -62.533        6.444      -15.965        9.567        5.377        5.644       91.528       28.917       31.858        0.218        0.008       62.864        2.244        0.001      329.885       -3.095      866.417
11/23/2013  07:28:00      -44.217       -7.601       -7.600       11.841       11.162        8.037      140.214      124.590       64.588        0.120        0.016       44.865        5.584        0.015      330.008       -2.895      866.411
11/23/2013  07:29:00      -47.075      -38.826      -11.097       23.943       14.722       12.644      573.267      216.728      159.866        0.240        0.047       61.021        9.407        0.024      329.814       -3.211      866.406
11/23/2013  07:30:00      -68.192      -27.093      -12.492       11.237       13.045       10.191      126.281      170.180      103.856        0.297        0.020       73.377        6.881        0.009      329.814       -3.211      866.420
11/23/2013  07:31:00      -61.224      -17.262      -14.607        9.661       14.040        7.767       93.341      197.108       60.321        0.231        0.018       63.611        3.633        0.003      329.999       -2.909      866.438
11/23/2013  07:32:00      -65.465      -15.624       -9.537       10.309        8.993        9.324      106.268       80.870       86.940        0.245        0.014       67.304        5.946        0.008      329.915       -3.046      866.459
11/23/2013  07:33:00      -59.642      -19.043      -21.263       22.804       13.054       11.666      520.031      170.420      136.104        0.260        0.041       62.608        9.598        0.024      329.867       -3.125      866.458
11/23/2013  07:34:00      -33.324      -21.050       -6.052       29.172       16.060       12.427      850.998      257.908      154.434        0.143        0.063       39.416        4.383        0.012      329.887       -3.093      866.461
11/23/2013  07:35:00      -81.499       -8.004      -10.580       18.135       15.092        7.463      328.895      227.762       55.697        0.372        0.031       81.891        4.357        0.003      329.927       -3.026      866.453
11/23/2013  07:36:00      -66.072        0.144      -10.499       13.088       10.512        9.132      171.305      110.493       83.395        0.242        0.018       66.072        3.342        0.003      329.909       -3.055      866.438
11/23/2013  07:37:00      -86.369        1.587       -8.017       24.305       14.178       12.549      590.756      201.014      157.479        0.424        0.047       86.383       10.695        0.015      329.947       -2.994      866.423
11/23/2013  07:38:00      -85.171        2.078      -12.821       34.371       20.220       15.261     1181.391      408.866      232.901        0.462        0.091       85.196       16.280        0.037      329.993       -2.917      866.421
11/23/2013  07:39:00      -87.483      -17.382       -9.352       23.855       16.551       14.513      569.083      273.942      210.618        0.455        0.053       89.193       13.956        0.024      330.125       -2.702      866.434
11/23/2013  07:40:00      -78.525      -27.364       -6.510       20.924       16.392       11.160      437.806      268.690      124.557        0.389        0.042       83.156        5.758        0.005      330.120       -2.711      866.436
11/23/2013  07:41:00      -55.300      -30.034       -2.419       15.245       11.532        7.551      232.424      132.993       57.011        0.219        0.021       62.930        5.364        0.007      330.168       -2.631      866.427
11/23/2013  07:42:00      -89.220      -37.573       -6.938       13.168       12.575        7.700      173.396      158.140       59.294        0.491        0.020       96.809        6.272        0.004      330.268       -2.468      866.430
11/23/2013  07:43:00      -90.095      -24.739       -8.527       13.822       11.068        7.504      191.059      122.496       56.316        0.459        0.018       93.430        5.228        0.003      330.228       -2.533      866.429
11/23/2013  07:44:00      -70.602      -23.466       -9.199       15.421       12.014        8.888      237.819      144.340       78.990        0.304        0.023       74.399        5.090        0.005      330.287       -2.437      866.430
11/23/2013  07:45:00      -81.073      -18.775       -3.487       16.029       13.147       11.342      256.927      172.844      128.633        0.375        0.028       83.219        9.870        0.014      330.350       -2.335      866.432
11/23/2013  07:46:00      -77.618      -13.748       -2.324       24.814       17.466       12.644      615.719      305.062      159.882        0.365        0.054       78.827        9.997        0.016      330.411       -2.234      866.429
11/23/2013  07:47:00     -100.917      -19.780       -5.575       23.522       18.632       13.595      553.283      347.168      184.811        0.585        0.054      102.837       13.463        0.017      330.468       -2.139      866.411
11/23/2013  07:48:00      -92.065      -29.110       -6.476       22.246       16.946        8.230      494.893      287.180       67.727        0.511        0.042       96.557        6.607        0.005      330.543       -2.018      866.394
11/23/2013  07:49:00      -75.000      -21.225       -5.446        9.109        8.989        4.093       82.976       80.811       16.750        0.314        0.009       77.945        2.562        0.001      330.647       -1.848      866.382
11/23/2013  07:50:00      -52.767       -6.642       -4.931        9.425        9.648        6.701       88.837       93.081       44.900        0.154        0.011       53.183        5.413        0.010      330.668       -1.812      866.377
11/23/2013  07:51:00      -56.526       -7.827      -10.147        5.841        4.351        4.109       34.113       18.934       16.886        0.171        0.003       57.065        2.064        0.001      330.748       -1.679      866.369
11/23/2013  07:52:00      -52.781      -15.631       -6.145        6.271        9.038        4.098       39.328       81.678       16.794        0.160        0.007       55.047        4.151        0.006      330.748       -1.681      866.364
11/23/2013  07:53:00      -40.649      -23.506       -2.097        9.022        5.514        6.846       81.393       30.400       46.869        0.118        0.008       46.956        5.344        0.013      330.822       -1.559      866.386
11/23/2013  07:54:00      -35.601      -25.365       -7.421        7.684        6.143        5.099       59.045       37.735       25.996        0.104        0.006       43.713        3.783        0.007      330.875       -1.470      866.400
11/23/2013  07:55:00      -48.186      -26.036       -6.439       10.099        8.895        6.512      101.980       79.127       42.403        0.163        0.011       54.770        4.684        0.007      330.899       -1.432      866.392
11/23/2013  07:56:00      -57.323      -10.395       -8.177        9.330        6.562        6.176       87.056       43.053       38.147        0.181        0.008       58.258        2.900        0.002      330.876       -1.470      866.370
11/23/2013  07:57:00      -30.011        0.973       -3.504        8.367        5.655        4.758       69.999       31.981       22.637        0.052        0.006       30.027        3.174        0.011      330.928       -1.384      866.370
11/23/2013  07:58:00      -16.100       10.106        1.154        9.586        6.081        8.677       91.883       36.973       75.283        0.028        0.010       19.009        6.641        0.122      331.299       -0.775      866.367
11/23/2013  07:59:00       -6.284        3.622       10.725       10.926        4.531        4.576      119.369       20.532       20.939        0.016        0.008        7.253        4.604        0.403      331.592       -0.293      866.363
11/23/2013  08:00:00        1.833        1.816       11.811       12.263       16.646       13.505      150.379      277.097      182.375        0.038        0.030        2.580       11.082       18.445      331.516       -0.418      866.367
11/23/2013  08:01:00        2.074       -5.004       11.105        9.183        8.730        8.427       84.325       76.218       71.011        0.019        0.012        5.416        7.148        1.742      331.719       -0.083      866.362
11/23/2013  08:02:00      -29.099      -14.544       -4.216       12.285        5.474        4.516      150.921       29.967       20.397        0.064        0.010       32.531        2.822        0.008      331.190       -0.955      866.356
11/23/2013  08:03:00      -26.324       -2.436        0.232        7.965        9.352        3.584       63.441       87.466       12.843        0.043        0.008       26.436        2.593        0.010      331.033       -1.215      866.347
11/23/2013  08:04:00      -14.670       12.461        2.454       15.273        8.016       14.358      233.266       64.254      206.164        0.044        0.025       19.248       10.357        0.290      331.465       -0.503      866.340
11/23/2013  08:05:00        4.618       20.832       17.740        7.749        9.339        9.464       60.043       87.211       89.565        0.050        0.012       21.338        2.082        0.010      331.595       -0.287      866.355
11/23/2013  08:06:00       20.127       20.982       19.889       21.724       14.720       17.826      471.942      216.689      317.762        0.112        0.050       29.075       14.536        0.250      331.669       -0.166      866.354
11/23/2013  08:07:00       36.852       58.115       11.927       16.581       19.401       18.224      274.946      376.396      332.111        0.293        0.049       68.815        9.491        0.019      331.453       -0.524      866.359
11/23/2013  08:08:00       62.508       50.930       17.026       21.446       23.819       22.311      459.948      567.340      497.771        0.416        0.076       80.629       12.055        0.022      331.504       -0.439      866.351
11/23/2013  08:09:00       21.539       37.423       32.758       23.666       20.296       20.837      560.072      411.947      434.180        0.217        0.070       43.179       13.930        0.104      331.745       -0.041      866.319
11/23/2013  08:10:00       -6.405       23.631       43.401       10.152       17.078       14.136      103.058      291.655      199.833        0.154        0.030       24.483        7.267        0.088      331.820        0.083      866.288
11/23/2013  08:11:00       -2.907        1.047       26.342        7.287        8.316        8.783       53.105       69.151       77.144        0.045        0.010        3.090        4.167        1.818      332.010        0.394      866.277
11/23/2013  08:12:00       -7.064       -5.236        5.815       11.809        9.121        9.504      139.451       83.189       90.328        0.021        0.016        8.793        6.379        0.526      331.671       -0.164      866.279
11/23/2013  08:13:00      -10.400       -6.593       10.638       10.435       12.516        8.499      108.890      156.656       72.231        0.030        0.017       12.313        6.643        0.291      331.743       -0.045      866.289
11/23/2013  08:14:00        2.427        9.031       18.499       10.604       14.154       10.244      112.449      200.324      104.945        0.042        0.021        9.352        7.959        0.724      332.136        0.603      866.296
11/23/2013  08:15:00       40.705       32.167        0.666       22.227       16.792       12.041      494.028      281.969      144.977        0.181        0.046       51.880        5.136        0.010      331.559       -0.347      866.301
11/23/2013  08:16:00       14.470       10.848       10.144       22.786       18.548       11.905      519.194      344.020      141.737        0.072        0.050       18.085        1.968        0.012      332.020        0.412      866.295
11/23/2013  08:17:00       48.858       31.524       -3.489       24.455       18.472       20.491      598.031      341.209      419.894        0.238        0.068       58.146       13.761        0.056      331.782        0.017      866.284
11/23/2013  08:18:00       25.583       21.174       20.338       18.665       20.206       16.989      348.382      408.302      288.642        0.128        0.052       33.208        8.418        0.064      331.960        0.312      866.284
11/23/2013  08:19:00       57.406       31.379      -10.705        9.646       20.300       11.531       93.042      412.072      132.968        0.252        0.032       65.422        6.647        0.010      331.619       -0.250      866.274
11/23/2013  08:20:00       27.032       38.657       16.769       20.927       20.125       25.544      437.932      405.003      652.498        0.200        0.075       47.171       14.984        0.101      331.897        0.208      866.251
11/23/2013  08:21:00       41.252       21.165       25.964       33.807       28.991       21.893     1142.943      840.497      479.289        0.264        0.123       46.364       17.253        0.138      331.834        0.105      866.234
11/23/2013  08:22:00       40.244       52.408       28.984       37.543       21.121       25.919     1409.470      446.090      671.787        0.387        0.126       66.077       24.468        0.137      331.980        0.346      866.226
11/23/2013  08:23:00        9.860       37.844       29.167       27.556       24.447       37.152      759.345      597.665     1380.266        0.256        0.137       39.107       16.908        0.187      332.048        0.457      866.214
11/23/2013  08:24:00       39.330       19.392       16.231       36.571       34.267       27.916     1337.425     1174.233      779.303        0.274        0.165       43.851       29.330        0.447      331.898        0.210      866.197
11/23/2013  08:25:00       -3.985       41.557       49.833       11.838       21.945       18.184      140.141      481.600      330.674        0.259        0.048       41.748       10.369        0.062      332.212        0.729      866.185
11/23/2013  08:26:00       47.396       19.883       19.724       29.613       23.127       24.928      876.935      534.872      621.383        0.253        0.102       51.398       15.956        0.096      331.976        0.338      866.172
11/23/2013  08:27:00       58.995       50.002        0.168       26.712       25.351       23.246      713.523      642.685      540.365        0.394        0.095       77.335       13.184        0.029      331.925        0.255      866.167
11/23/2013  08:28:00      100.883       66.029        1.089       24.177       25.508       25.603      584.525      650.662      655.500        0.821        0.095      120.571       17.579        0.021      331.759       -0.018      866.160
11/23/2013  08:29:00      104.720       53.341       -3.257       21.945       24.738       20.435      481.583      611.954      417.599        0.767        0.076      117.522        6.368        0.003      331.774        0.006      866.164
11/23/2013  08:30:00       73.118       64.647       18.531       24.994       21.613       18.484      624.691      467.102      341.645        0.565        0.072       97.599        8.866        0.008      331.854        0.138      866.173
11/23/2013  08:31:00       31.072       31.529       30.477       28.920       23.612       25.947      836.389      557.519      673.239        0.248        0.103       44.267       17.798        0.162      332.141        0.612      866.161
11/23/2013  08:32:00       19.879       43.652       44.590       26.967       32.775       28.607      727.214     1074.228      818.360        0.345        0.131       47.966       24.065        0.252      332.105        0.551      866.143
11/23/2013  08:33:00       40.079       54.614       51.482       15.011       16.412       10.967      225.327      269.351      120.266        0.393        0.031       67.742        9.140        0.018      331.861        0.149      866.133
11/23/2013  08:34:00       28.096       40.299       48.498       31.247       24.192       23.716      976.390      585.254      562.430        0.344        0.106       49.126       14.056        0.082      332.065        0.486      866.123
11/23/2013  08:35:00       14.068       20.439       51.601       25.330       25.064       17.631      641.584      628.217      310.861        0.243        0.079       24.813       14.646        0.348      332.281        0.842      866.104
11/23/2013  08:36:00       45.066       67.698       68.222       36.963       36.386       24.197     1366.251     1323.956      585.511        0.727        0.164       81.327       17.717        0.047      332.080        0.510      866.097
11/23/2013  08:37:00       25.067       73.129       82.920       34.191       36.819       26.126     1169.004     1355.635      682.567        0.803        0.160       77.306       15.301        0.039      332.146        0.618      866.091
11/23/2013  08:38:00       43.564       67.848       82.379       42.693       43.915       22.426     1822.731     1928.509      502.936        0.877        0.213       80.630       21.738        0.073      332.084        0.517      866.096
11/23/2013  08:39:00       17.790        6.020       57.722       29.817       65.290       31.373      889.055     4262.797      984.249        0.491        0.307       18.780       32.405        2.977      332.294        0.862      866.098
11/23/2013  08:40:00       23.909       53.120       68.031       41.000       61.339       34.308     1681.038     3762.466     1177.043        0.732        0.331       58.252       31.794        0.298      332.158        0.638      866.094
11/23/2013  08:41:00        3.390       22.247       72.751       32.573       66.563       40.870     1060.979     4430.657     1670.372        0.648        0.358       22.504       48.314        4.609      332.329        0.921      866.081
11/23/2013  08:42:00       67.951       73.388       92.807       49.434       57.194       26.878     2443.726     3271.178      722.445        1.253        0.322      100.016       24.592        0.060      332.093        0.532      866.071
11/23/2013  08:43:00       35.456       70.463       81.811       36.244       37.313       20.913     1313.598     1392.254      437.338        0.803        0.157       78.881        8.886        0.013      332.069        0.491      866.066
11/23/2013  08:44:00       78.298       93.344       76.970       31.626       29.156       29.240     1000.230      850.068      854.970        1.174        0.135      121.835       19.142        0.025      331.946        0.288      866.052
11/23/2013  08:45:00       17.286       40.864       66.394       39.395       48.234       30.108     1551.973     2326.482      906.517        0.558        0.239       44.370       30.789        0.482      332.303        0.877      866.046
11/23/2013  08:46:00       59.821       75.284       66.775       55.042       34.030       39.353     3029.631     1158.035     1548.631        0.972        0.287       96.158       35.080        0.133      332.105        0.551      866.036
11/23/2013  08:47:00      100.868       61.606       52.118       38.949       46.832       42.654     1517.010     2193.283     1819.367        1.111        0.276      118.193       32.785        0.077      331.906        0.224      866.032
11/23/2013  08:48:00       30.027       86.658       88.068       57.547       52.227       45.263     3311.638     2727.691     2048.777        1.213        0.404       91.713       44.818        0.239      332.058        0.472      866.029
11/23/2013  08:49:00       90.292       96.531       70.548       63.819       38.567       42.397     4072.915     1487.410     1797.475        1.490        0.368      132.177       35.360        0.072      331.966        0.323      866.037
11/23/2013  08:50:00       84.507       91.700       81.908       58.457       51.401       41.591     3417.252     2642.028     1729.779        1.502        0.389      124.701       43.739        0.123      331.953        0.301      866.040
11/23/2013  08:51:00       81.321      123.579       91.505       54.938       33.147       41.837     3018.215     1098.711     1750.297        1.806        0.293      147.936       40.367        0.074      331.952        0.298      866.038
11/23/2013  08:52:00      108.069       88.362       55.214       41.362       32.674       30.735     1710.840     1067.566      944.616        1.313        0.186      139.595       25.253        0.033      331.884        0.187      866.030
11/23/2013  08:53:00       53.173       73.088       65.729       40.834       30.989       36.212     1667.408      960.325     1311.316        0.821        0.197       90.384       20.309        0.050      332.126        0.587      866.017
11/23/2013  08:54:00       53.330       63.161       35.032       49.405       22.553       32.250     2440.815      508.616     1040.043        0.602        0.199       82.665       26.080        0.100      332.176        0.669      865.997
11/23/2013  08:55:00       47.552       73.838       56.207       50.588       31.279       45.205     2559.153      978.389     2043.512        0.823        0.279       87.825       37.828        0.186      332.356        0.964      865.997
11/23/2013  08:56:00       61.788       62.830       47.517       56.112       36.577       40.223     3148.555     1337.904     1617.862        0.806        0.305       88.122       36.326        0.170      332.337        0.935      866.012
11/23/2013  08:57:00       14.551       79.627       82.956       36.657       41.971       22.234     1343.744     1761.526      494.373        0.852        0.180       80.946       17.089        0.045      332.385        1.013      866.012
11/23/2013  08:58:00       74.337       44.509       22.814       46.320       52.230       38.652     2145.580     2728.013     1493.942        0.720        0.318       86.643       30.648        0.125      332.334        0.930      866.002
11/23/2013  08:59:00       42.658       43.928       45.788       51.150       37.898       44.796     2616.330     1436.224     2006.650        0.595        0.303       61.232       32.233        0.277      332.518        1.233      865.984
11/23/2013  09:00:00       29.751       64.061       53.462       33.983       47.945       34.892     1154.834     2298.704     1217.471        0.626        0.234       70.632       27.206        0.148      332.462        1.141      865.960
11/23/2013  09:01:00       35.342       21.995       10.346       40.377       30.019       22.627     1630.276      901.117      511.967        0.244        0.152       41.627        7.519        0.033      332.421        1.072      865.947
11/23/2013  09:02:00       60.578       61.266        8.242       45.173       34.476       30.010     2040.563     1188.598      900.622        0.581        0.206       86.158       26.742        0.096      332.358        0.968      865.935
11/23/2013  09:03:00       93.575       79.250       -8.333       28.198       32.862       31.273      795.148     1079.921      978.001        0.898        0.143      122.625       21.329        0.030      332.162        0.646      865.917
11/23/2013  09:04:00       66.260       59.182       -0.146       26.095       25.301       24.246      680.927      640.143      587.873        0.490        0.095       88.842       13.409        0.023      332.265        0.815      865.900
11/23/2013  09:05:00       70.773       73.296       -8.664       38.824       29.903       24.640     1507.300      894.191      607.144        0.673        0.150      101.888       13.401        0.017      332.352        0.959      865.893
11/23/2013  09:06:00       64.888       61.536        1.679       23.745       22.741       25.123      563.819      517.131      631.174        0.486        0.086       89.427       17.789        0.040      332.393        1.027      865.887
11/23/2013  09:07:00       47.935       36.767       18.623       31.080       29.507       25.564      965.988      870.679      653.523        0.324        0.125       60.412       19.440        0.104      332.548        1.282      865.884
11/23/2013  09:08:00       40.495       42.405        3.213       23.849       27.596       25.025      568.759      761.546      626.243        0.270        0.098       58.635       14.428        0.061      332.615        1.393      865.875
11/23/2013  09:09:00        4.397       20.672        9.073       17.597       19.970       18.274      309.648      398.808      333.928        0.079        0.052       21.135        9.632        0.208      332.863        1.802      865.869
11/23/2013  09:10:00       59.611       42.084       20.481       36.628       34.576       27.141     1341.634     1195.471      736.619        0.451        0.164       72.970       15.439        0.045      332.725        1.576      865.866
11/23/2013  09:11:00       68.861       50.720       15.725       28.200       19.380       22.306      795.241      375.591      497.576        0.461        0.083       85.524       13.247        0.024      332.557        1.296      865.874
11/23/2013  09:12:00        3.550       33.743       45.241       24.828       28.625       19.903      616.410      819.391      396.122        0.251        0.092       33.929       15.458        0.208      333.173        2.315      865.877
11/23/2013  09:13:00       18.210       31.259       59.229       29.846       23.821       20.703      890.762      567.441      428.598        0.335        0.094       36.176       21.457        0.352      333.038        2.090      865.888
11/23/2013  09:14:00       22.123      -11.497       22.587       17.159       28.698       18.179      294.427      823.593      330.475        0.129        0.072       24.932       16.646        0.446      332.963        1.968      865.895
11/23/2013  09:15:00       26.265       34.728       18.440       23.095       28.607       25.736      533.374      818.351      662.330        0.212        0.101       43.542       19.670        0.204      333.010        2.045      865.889
11/23/2013  09:16:00       23.302       34.073        7.509       24.739       25.531       29.276      612.040      651.830      857.094        0.194        0.106       41.279       20.009        0.235      333.091        2.179      865.885
11/23/2013  09:17:00       21.877        7.079       19.254       32.981       28.364       28.615     1087.778      804.499      818.808        0.180        0.136       22.994       26.638        1.342      333.161        2.296      865.881
11/23/2013  09:18:00       57.206       76.745       63.029       30.548       32.640       30.689      933.150     1065.389      941.839        0.804        0.147       95.720       20.726        0.047      332.713        1.555      865.873
11/23/2013  09:19:00       28.332       31.777       53.100       30.131       37.438       15.480      907.863     1401.631      239.629        0.359        0.127       42.573       11.721        0.076      332.836        1.758      865.880
11/23/2013  09:20:00       30.011      -16.795       19.673       39.210       45.890       36.895     1537.425     2105.931     1361.248        0.329        0.250       34.391       28.025        0.664      332.975        1.988      865.886
11/23/2013  09:21:00       30.135      -18.430       33.651       31.993       55.759       35.453     1023.546     3109.039     1256.911        0.388        0.269       35.324       40.059        1.286      333.100        2.194      865.876
11/23/2013  09:22:00       35.090       44.747       50.455       35.178       42.405       26.466     1237.477     1798.167      700.424        0.476        0.187       56.865       18.761        0.109      333.075        2.153      865.861
11/23/2013  09:23:00       16.281      -26.198       35.744       27.628       43.586       26.099      763.293     1899.756      681.152        0.279        0.167       30.845       19.090        0.383      333.239        2.424      865.848
11/23/2013  09:24:00       19.217       37.389       59.065       33.037       47.369       30.068     1091.449     2243.862      904.093        0.475        0.212       42.039       30.581        0.529      333.239        2.424      865.843
11/23/2013  09:25:00       75.904       63.558       40.883       24.060       23.093       30.940      578.900      533.307      957.255        0.677        0.103       99.000       14.275        0.021      332.812        1.719      865.841
11/23/2013  09:26:00       23.738       40.793       30.320       25.050       24.263       28.804      627.482      588.703      829.659        0.260        0.102       47.197       14.551        0.095      333.254        2.450      865.831
11/23/2013  09:27:00       28.455       23.085       36.649       37.897       49.315       40.679     1436.146     2432.018     1654.809        0.410        0.276       36.641       32.210        0.773      333.497        2.851      865.823
11/23/2013  09:28:00       10.671       39.906       52.810       39.565       43.835       45.507     1565.404     1921.508     2070.859        0.503        0.278       41.308       40.725        0.972      333.497        2.849      865.816
11/23/2013  09:29:00        1.910       46.666       45.818       30.202       33.290       34.328      912.183     1108.216     1178.379        0.374        0.160       46.705       23.315        0.249      333.494        2.846      865.807
11/23/2013  09:30:00       18.135       73.708       70.984       48.601       31.723       28.068     2362.035     1006.366      787.800        0.748        0.208       75.907       31.042        0.167      333.662        3.123      865.804
11/23/2013  09:31:00       84.800       69.678       38.630       43.277       32.194       44.987     1872.886     1036.450     2023.862        0.923        0.247      109.754       28.071        0.065      333.230        2.410      865.809
11/23/2013  09:32:00      107.188       92.190       47.351       22.362       21.969       35.401      500.045      482.650     1253.230        1.223        0.112      141.380       14.562        0.011      332.959        1.961      865.815
11/23/2013  09:33:00       53.556      102.797       52.542       42.549       41.047       39.479     1810.436     1684.887     1558.581        1.062        0.253      115.912       29.175        0.063      333.202        2.362      865.815
11/23/2013  09:34:00       78.708       95.662       70.558       63.957       34.012       47.756     4090.558     1156.785     2280.620        1.392        0.376      123.879       43.843        0.125      333.234        2.415      865.814
11/23/2013  09:35:00       90.488       94.960       49.023       51.858       30.457       43.775     2689.263      927.617     1916.248        1.257        0.277      131.170       27.414        0.044      333.199        2.357      865.822
11/23/2013  09:36:00       76.745       99.079       79.185       36.882       27.288       30.455     1360.294      744.639      927.534        1.250        0.152      125.325       10.745        0.007      333.197        2.355      865.833
11/23/2013  09:37:00       66.402       78.812       50.438       43.683       28.959       28.021     1908.164      838.616      785.185        0.835        0.177      103.056        1.766        0.000      333.213        2.381      865.835
11/23/2013  09:38:00       22.757       49.990       48.424       24.731       23.153       17.524      611.632      536.073      307.107        0.341        0.073       54.927       13.967        0.065      333.563        2.960      865.829
11/23/2013  09:39:00       67.208       81.020       34.350       29.048       29.735       27.356      843.814      884.147      748.326        0.737        0.124      105.267        7.543        0.005      333.628        3.067      865.822
11/23/2013  09:40:00       59.577       47.995       35.366       47.758       41.591       30.842     2280.833     1729.808      951.239        0.603        0.248       76.504       11.214        0.021      333.694        3.178      865.820
11/23/2013  09:41:00      109.302       50.187        7.114       37.454       30.117       35.510     1402.796      907.009     1260.982        0.904        0.179      120.273       22.011        0.033      333.531        2.907      865.806
11/23/2013  09:42:00       50.970       84.453       66.108       53.406       44.721       54.533     2852.170     2000.004     2973.800        1.096        0.391       98.642       37.377        0.144      333.590        3.004      865.811
11/23/2013  09:43:00       12.638       54.003       54.072       31.487       27.143       23.916      991.414      736.751      571.954        0.415        0.115       55.462       17.740        0.102      333.721        3.222      865.812
11/23/2013  09:44:00        4.166       43.613       67.464       27.517       33.473       27.047      757.204     1120.416      731.539        0.454        0.130       43.811       21.470        0.240      334.085        3.825      865.818
11/23/2013  09:45:00        5.636       72.968       86.152       36.362       62.404       41.953     1322.159     3894.296     1760.042        0.988        0.349       73.185       38.078        0.271      333.836        3.413      865.836
11/23/2013  09:46:00       86.736       92.555       79.161       34.413       28.962       35.435     1184.229      838.806     1255.605        1.282        0.164      126.845       26.207        0.043      333.332        2.578      865.855
11/23/2013  09:47:00       60.659       67.947       54.673       43.690       24.604       33.312     1908.812      605.352     1109.709        0.745        0.181       91.084       30.633        0.113      333.378        2.654      865.862
11/23/2013  09:48:00       35.914       72.466       66.193       24.209       32.971       19.803      586.065     1087.109      392.163        0.649        0.103       80.877       14.039        0.030      333.711        3.204      865.848
11/23/2013  09:49:00       73.782       71.071       56.113       30.401       34.432       34.660      924.202     1185.531     1201.340        0.848        0.166      102.444       15.625        0.023      333.624        3.060      865.835
11/23/2013  09:50:00       82.642       76.852       28.548       32.700       20.225       33.278     1069.288      409.069     1107.426        0.807        0.129      112.853       19.397        0.030      333.341        2.593      865.827
11/23/2013  09:51:00       59.119       73.867       16.964       33.438       30.932       29.603     1118.115      956.792      876.348        0.609        0.148       94.612       21.425        0.051      333.679        3.152      865.818
11/23/2013  09:52:00       13.075       41.439       45.092       32.341       35.306       39.364     1045.950     1246.479     1549.496        0.388        0.192       43.452       22.941        0.279      334.094        3.840      865.832
11/23/2013  09:53:00       16.926      -45.200       27.620       18.627       34.625       24.902      346.965     1198.889      620.120        0.263        0.108       48.265       13.301        0.076      333.927        3.564      865.847
11/23/2013  09:54:00        8.782       33.179       42.253       21.155       17.579       17.662      447.514      309.011      311.937        0.202        0.053       34.321        3.592        0.011      334.314        4.204      865.855
11/23/2013  09:55:00        0.126       25.946       56.272       25.055       32.664       26.758      627.770     1066.907      716.000        0.312        0.121       25.946       12.270        0.224      334.484        4.487      865.843
11/23/2013  09:56:00       31.682       77.836       73.943       39.915       50.805       27.307     1593.218     2581.107      745.649        0.872        0.246       84.037       30.443        0.131      333.803        3.358      865.831
11/23/2013  09:57:00       57.204       35.730       51.638       51.272       54.558       32.991     2628.787     2976.605     1088.390        0.695        0.335       67.446       26.390        0.153      333.964        3.623      865.827
11/23/2013  09:58:00      125.284       86.144       -5.159       30.572       28.086       28.130      934.648      788.840      791.278        1.283        0.126      152.042       15.735        0.011      333.630        3.070      865.828
11/23/2013  09:59:00       94.603       71.925      -11.458       40.348       22.725       19.636     1627.944      516.448      385.566        0.839        0.126      118.840       15.342        0.017      333.707        3.197      865.820
11/23/2013  10:00:00      109.207       83.852        3.536       33.030       30.833       26.498     1091.007      950.680      702.158        1.086        0.137      137.686        6.281        0.002      333.679        3.151      865.809
11/23/2013  10:01:00       82.868       64.169       -4.400       28.031       21.399       26.543      785.752      457.911      704.519        0.648        0.097      104.808       12.803        0.015      333.786        3.330      865.805
11/23/2013  10:02:00       90.984       79.817       63.682       54.905       43.601       39.800     3014.568     1901.072     1584.014        1.260        0.325      121.032       29.774        0.061      333.976        3.644      865.810
11/23/2013  10:03:00      106.461       80.526       27.932       39.366       25.683       34.489     1549.691      659.641     1189.504        1.100        0.170      133.485       25.131        0.035      333.715        3.211      865.809
11/23/2013  10:04:00       14.934       47.415       -4.036       22.286       26.059       23.144      496.680      679.054      535.667        0.210        0.086       49.711       19.203        0.149      334.034        3.740      865.796
11/23/2013  10:05:00       45.675       61.206       34.211       39.680       45.345       22.909     1574.466     2056.150      524.820        0.558        0.208       76.370       23.904        0.098      334.195        4.008      865.777
11/23/2013  10:06:00      -13.611       52.113       83.883       25.055       41.140       36.880      627.772     1692.528     1360.117        0.681        0.184       53.861       30.650        0.324      334.693        4.834      865.762
11/23/2013  10:07:00       -1.110       77.565      112.051       29.492       43.913       25.981      869.796     1928.380      675.009        1.102        0.174       77.573       29.124        0.141      334.288        4.162      865.752
11/23/2013  10:08:00       11.205       58.859       87.021       25.272       49.478       24.476      638.692     2448.120      599.055        0.742        0.184       59.916       29.385        0.241      334.365        4.290      865.740
11/23/2013  10:09:00       19.894       48.245       74.709       39.714       38.718       30.870     1577.238     1499.045      952.960        0.617        0.201       52.186       31.913        0.374      334.303        4.187      865.744
11/23/2013  10:10:00       84.253       68.062       54.091       41.345       44.969       37.211     1709.448     2022.206     1384.655        0.989        0.256      108.310       24.567        0.051      334.193        4.004      865.750
11/23/2013  10:11:00       89.173       66.514       21.130       20.300       22.691       21.385      412.079      514.901      457.318        0.710        0.069      111.247        7.077        0.004      333.873        3.473      865.771
11/23/2013  10:12:00      108.977       98.464       61.943       45.700       41.234       49.441     2088.517     1700.217     2444.451        1.582        0.312      146.871       32.644        0.049      334.091        3.835      865.773
11/23/2013  10:13:00       73.897      118.954       86.243       57.122       49.943       52.462     3262.976     2494.336     2752.304        1.778        0.425      140.038       46.411        0.110      334.070        3.798      865.768
11/23/2013  10:14:00       84.582       50.588       47.055       39.223       69.331       34.388     1538.434     4806.757     1182.563        0.973        0.376       98.556       36.077        0.134      334.018        3.713      865.766
11/23/2013  10:15:00       55.488      -11.712       45.099       41.347       40.548       31.183     1709.616     1644.177      972.384        0.479        0.216       56.711       27.367        0.233      334.204        4.021      865.757
11/23/2013  10:16:00       72.409       53.701       37.035       52.846       56.135       39.031     2792.718     3151.096     1523.421        0.848        0.373       90.149       31.582        0.123      334.200        4.015      865.736
11/23/2013  10:17:00       83.040       64.701       31.972       36.577       23.699       28.957     1337.845      561.639      838.510        0.742        0.137      105.271       10.250        0.009      334.285        4.157      865.730
11/23/2013  10:18:00       43.919       13.834       30.155       37.980       46.733       30.236     1442.500     2183.938      914.188        0.378        0.227       46.046       20.753        0.203      334.505        4.522      865.716
11/23/2013  10:19:00       61.989       57.306       69.657       52.198       49.871       48.147     2724.597     2487.166     2318.112        0.975        0.376       84.420       43.524        0.266      334.370        4.297      865.704
11/23/2013  10:20:00       80.708       63.665       40.901       54.102       26.862       30.546     2927.011      721.574      933.059        0.841        0.229      102.795       19.912        0.038      334.196        4.009      865.678
11/23/2013  10:21:00       99.699       72.134       37.274       62.461       36.441       32.488     3901.344     1327.942     1055.439        1.141        0.314      123.057       21.616        0.031      334.444        4.421      865.653
11/23/2013  10:22:00       53.049       68.764       66.772       39.335       41.582       39.564     1547.278     1729.087     1565.282        0.842        0.242       86.849       27.517        0.100      334.620        4.713      865.647
11/23/2013  10:23:00       60.208       75.157       77.564       43.562       38.528       39.856     1897.681     1484.395     1588.467        1.013        0.249       96.300       26.401        0.075      334.533        4.568      865.641
11/23/2013  10:24:00       84.934       95.745       49.381       38.623       35.544       40.099     1491.746     1263.401     1607.939        1.159        0.218      127.988       27.945        0.048      334.408        4.360      865.642
11/23/2013  10:25:00       85.172       60.976       57.679       37.250       34.921       38.928     1387.529     1219.459     1515.412        0.921        0.206      104.749       21.739        0.043      334.442        4.415      865.628
11/23/2013  10:26:00      105.552       47.105       55.148       61.441       36.667       41.269     3774.977     1344.432     1703.124        1.161        0.341      115.585       33.046        0.082      334.661        4.782      865.615
11/23/2013  10:27:00      117.238       83.866       16.261       55.106       27.595       36.762     3036.671      761.503     1351.465        1.310        0.257      144.147       22.747        0.025      334.492        4.499      865.603
11/23/2013  10:28:00       23.279       35.781       59.413       38.684       44.310       31.252     1496.452     1963.353      976.671        0.489        0.222       42.687       16.226        0.144      335.090        5.494      865.608
11/23/2013  10:29:00       83.006       81.041       44.230       65.930       45.696       50.962     4346.772     2088.104     2597.101        1.222        0.452      116.007       50.883        0.192      334.710        4.863      865.594
11/23/2013  10:30:00      107.860       76.003       13.976       56.511       49.238       36.975     3193.457     2424.382     1367.129        1.229        0.349      131.948       31.083        0.055      334.577        4.641      865.589
11/23/2013  10:31:00      122.599       93.267       43.143       40.511       38.039       48.688     1641.152     1446.966     2370.473        1.552        0.273      154.043       20.932        0.018      334.605        4.689      865.592
11/23/2013  10:32:00       73.537       67.586       20.791       37.390       26.084       26.760     1397.978      680.387      716.078        0.660        0.140       99.878       20.277        0.041      334.429        4.396      865.606
11/23/2013  10:33:00       65.489       55.688       -3.924       33.614       27.620       29.578     1129.868      762.874      874.874        0.509        0.138       85.965       11.544        0.018      334.827        5.056      865.607
11/23/2013  10:34:00       36.121       39.167       25.638       46.247       38.071       40.078     2138.764     1449.386     1606.252        0.434        0.260       53.281       19.676        0.136      335.152        5.597      865.606
11/23/2013  10:35:00      112.674       78.859       24.223       39.590       31.529       36.438     1567.330      994.080     1327.743        1.169        0.194      137.529        7.686        0.003      334.689        4.829      865.600
11/23/2013  10:36:00      115.162       92.002       18.036       39.523       41.346       35.950     1562.031     1709.486     1292.375        1.331        0.228      147.400       14.260        0.009      334.760        4.946      865.608
11/23/2013  10:37:00       35.054       74.723       83.710       51.861       42.862       39.447     2689.525     1837.117     1556.042        0.995        0.304       82.536       38.533        0.218      335.247        5.754      865.605
11/23/2013  10:38:00       36.510      -17.083       63.374       40.440       70.419       31.518     1635.388     4958.784      993.386        0.661        0.379       40.309       26.264        0.425      335.211        5.696      865.613
11/23/2013  10:39:00       86.287       83.775       41.501       43.579       42.098       38.339     1899.169     1772.267     1469.863        1.066        0.257      120.265       25.078        0.043      335.034        5.401      865.609
11/23/2013  10:40:00       47.627       38.660       46.655       70.802       65.124       49.162     5012.964     4241.135     2416.945        0.880        0.584       61.343       41.100        0.449      335.235        5.735      865.590
11/23/2013  10:41:00       36.252       10.272       38.841       33.822       72.472       41.081     1143.941     5252.204     1687.646        0.550        0.404       37.679       49.855        1.751      335.102        5.512      865.558
11/23/2013  10:42:00       32.508      -27.391       24.203       43.142       76.497       40.984     1861.220     5851.864     1679.661        0.589        0.470       42.510       40.555        0.910      335.212        5.695      865.550
11/23/2013  10:43:00       44.268      -84.156        2.993       43.099       73.821       37.669     1857.482     5449.504     1418.920        0.889        0.436       95.089       34.760        0.134      335.202        5.680      865.544
11/23/2013  10:44:00       23.030      -18.178       66.957       35.582       84.753       36.572     1266.073     7183.155     1337.493        0.756        0.489       29.339       36.861        1.578      335.469        6.123      865.540
11/23/2013  10:45:00       47.798       52.627       54.855       54.575       45.720       40.457     2978.394     2090.358     1636.742        0.738        0.335       71.093       29.661        0.174      335.199        5.675      865.551
11/23/2013  10:46:00       -2.033      -24.775       26.762       20.437       39.468       18.203      417.668     1557.703      331.355        0.182        0.115       24.858       18.628        0.562      335.560        6.275      865.559
11/23/2013  10:47:00       43.773        0.663       47.243       65.437       75.884       44.914     4282.061     5758.375     2017.224        0.810        0.603       43.778       53.223        1.478      335.518        6.206      865.540
11/23/2013  10:48:00       32.239        2.609       59.320       58.782       82.454       60.476     3455.286     6798.651     3657.397        0.924        0.696       32.344       52.946        2.680      335.420        6.041      865.528
11/23/2013  10:49:00      133.125     -131.327      -20.736       52.762       52.646       42.777     2783.816     2771.644     1829.883        2.139        0.369      187.000       49.560        0.070      334.840        5.076      865.508
11/23/2013  10:50:00      104.681      -99.971      -10.419       64.285       76.232       51.221     4132.500     5811.307     2623.611        1.681        0.628      144.749       57.502        0.158      335.110        5.526      865.499
11/23/2013  10:51:00       82.392      -32.363       20.451       78.424      115.016       80.410     6150.259    13228.597     6465.778        1.704        1.292       88.520       94.330        1.136      335.241        5.743      865.475
11/23/2013  10:52:00       26.923       39.016       77.446       41.261       63.734       47.453     1702.467     4062.059     2251.783        0.813        0.401       47.403       45.251        0.911      335.439        6.074      865.486
11/23/2013  10:53:00       49.195       45.219       65.188       39.605       59.375       37.920     1568.536     3525.403     1437.942        0.762        0.327       66.819       39.045        0.341      335.301        5.844      865.473
11/23/2013  10:54:00       16.605      -10.898       23.868       35.792       38.363       22.991     1281.093     1471.689      528.588        0.212        0.164       19.862       26.320        1.756      335.576        6.302      865.469
11/23/2013  10:55:00       13.352      -46.645       18.764       60.668       45.105       32.010     3680.654     2034.420     1024.635        0.472        0.337       48.518       20.401        0.177      335.629        6.391      865.457
11/23/2013  10:56:00        1.343      -20.333       59.174       47.376       97.499       46.835     2244.502     9506.009     2193.504        0.893        0.697       20.377       32.544        2.551      335.757        6.603      865.435
11/23/2013  10:57:00       15.836       86.246       87.749       31.108       45.415       33.095      967.709     2062.559     1095.249        0.976        0.206       87.688       24.635        0.079      335.427        6.054      865.448
11/23/2013  10:58:00       21.160       56.189       72.005       39.653       53.126       34.869     1572.339     2822.373     1215.816        0.720        0.281       60.041       31.193        0.270      335.536        6.235      865.446
11/23/2013  10:59:00       41.729      -31.550       45.011       58.732       87.600       46.550     3449.401     7673.843     2166.941        0.902        0.665       52.314       58.547        1.252      335.581        6.310      865.450
11/23/2013  11:00:00       51.128      -55.918       36.169       45.387       78.063       57.375     2060.006     6093.847     3291.899        0.925        0.572       75.769       53.877        0.506      335.591        6.326      865.446
11/23/2013  11:01:00       94.841      123.992       80.994       51.196       33.309       39.958     2620.980     1109.477     1596.670        1.813        0.266      156.106       26.042        0.028      335.200        5.676      865.440
11/23/2013  11:02:00       53.516       81.184       71.630       53.111       29.998       36.188     2820.768      899.909     1309.562        0.981        0.252       97.236       32.468        0.111      335.131        5.562      865.445
11/23/2013  11:03:00       95.149       82.662       53.030       45.148       36.842       38.727     2038.359     1357.365     1499.781        1.180        0.245      126.041       22.604        0.032      335.264        5.782      865.425
11/23/2013  11:04:00       85.780       75.876       71.568       63.127       44.033       46.957     3985.007     1938.878     2204.935        1.318        0.406      114.522       38.356        0.112      335.377        5.971      865.422
11/23/2013  11:05:00       51.941       20.507       73.022       60.594       98.492       66.430     3671.629     9700.720     4412.952        1.311        0.889       55.843       71.335        1.632      335.564        6.281      865.415
11/23/2013  11:06:00       89.470       -4.412       65.156       60.580       77.466       51.607     3669.959     6000.925     2663.243        1.230        0.617       89.579       50.882        0.323      335.544        6.248      865.397
11/23/2013  11:07:00       88.029      -77.649       12.014       53.700       65.566       42.529     2883.653     4298.852     1808.718        1.146        0.450      117.382       42.871        0.133      335.375        5.968      865.400
11/23/2013  11:08:00       84.282       22.806       80.267       75.994       87.089       71.218     5775.106     7584.413     5071.948        1.625        0.922       87.313       75.300        0.744      335.571        6.294      865.394
11/23/2013  11:09:00       43.754       93.132       93.359       54.858       55.719       54.443     3009.447     3104.642     2964.061        1.419        0.454      102.898       52.186        0.257      335.242        5.745      865.384
11/23/2013  11:10:00        9.883       31.583       67.335       33.544       72.896       49.640     1125.221     5313.774     2464.124        0.726        0.445       33.093       48.179        2.120      335.516        6.200      865.372
11/23/2013  11:11:00       11.843      -13.910       25.261       31.882       56.746       42.692     1016.441     3220.135     1822.625        0.351        0.303       18.269       46.331        6.432      335.649        6.424      865.361
11/23/2013  11:12:00       32.815      -34.961       -0.351       32.782       35.557       21.761     1074.679     1264.268      473.530        0.256        0.141       47.949       11.214        0.055      335.167        5.621      865.354
11/23/2013  11:13:00       46.582       21.245       57.508       39.784       69.722       42.920     1582.738     4861.205     1842.089        0.711        0.414       51.198       47.684        0.867      335.632        6.397      865.332
11/23/2013  11:14:00       20.332       88.907      109.190       49.859       64.296       48.807     2485.923     4134.035     2382.149        1.462        0.450       91.203       47.556        0.272      335.635        6.399      865.317
11/23/2013  11:15:00       38.561       32.613       58.662       44.096       38.699       33.016     1944.429     1497.593     1090.047        0.526        0.227       50.503       25.563        0.256      335.471        6.127      865.308
11/23/2013  11:16:00       -8.696       19.428       15.605       20.200       21.296       19.121      408.041      453.523      365.603        0.096        0.061       21.285       11.092        0.272      335.820        6.708      865.290
11/23/2013  11:17:00        2.242       17.373       11.689       14.866       19.417       23.630      221.006      377.038      558.382        0.080        0.058       17.517       18.891        1.163      335.675        6.468      865.276
11/23/2013  11:18:00        0.639       33.988       25.213       25.680       18.606       17.448      659.484      346.191      304.440        0.155        0.066       33.994       11.669        0.118      335.682        6.478      865.263
11/23/2013  11:19:00       10.522       35.669       20.574       18.284       32.214       23.979      334.304     1037.769      575.000        0.188        0.097       37.189       16.798        0.204      335.997        7.005      865.248
11/23/2013  11:20:00       14.224       40.253       63.562       37.253       56.235       39.710     1387.798     3162.324     1576.918        0.599        0.306       42.692       39.850        0.871      335.801        6.677      865.243
11/23/2013  11:21:00       52.727      -97.663       -2.685       31.822       53.733       26.341     1012.620     2887.283      693.859        0.846        0.230      110.987       21.621        0.038      335.339        5.907      865.232
11/23/2013  11:22:00       16.178       -4.665       -2.071       25.697       29.388       22.042      660.315      863.667      485.869        0.115        0.100       16.837       14.638        0.756      335.499        6.174      865.215
11/23/2013  11:23:00       20.999      -22.619       11.310       30.388       60.583       41.296      923.418     3670.268     1705.334        0.369        0.315       30.864       44.158        2.047      335.823        6.714      865.191
11/23/2013  11:24:00       72.847     -125.848      -15.453       79.775       56.678       39.582     6363.971     3212.422     1566.717        1.626        0.557      145.412       32.787        0.051      335.605        6.349      865.143
11/23/2013  11:25:00      117.012     -173.156      -13.135       40.545       35.448       35.840     1643.925     1256.541     1284.498        2.402        0.209      208.985       30.641        0.021      335.355        5.931      865.121
11/23/2013  11:26:00       47.001      -45.253       24.419       52.397       80.902       40.928     2745.493     6545.077     1675.115        0.791        0.548       65.245       43.547        0.445      335.812        6.695      865.108
11/23/2013  11:27:00      120.261     -150.962       -5.954       54.491       63.009       38.965     2969.286     3970.091     1518.263        2.287        0.423      193.008       25.238        0.017      335.556        6.266      865.086
11/23/2013  11:28:00       60.079        4.849       74.665       82.367      136.236       85.370     6784.328    18560.276     7287.989        2.091        1.632       60.275       97.034        2.592      335.858        6.772      865.087
11/23/2013  11:29:00       95.828       46.910       73.845       64.629       61.063       48.988     4176.937     3728.677     2399.821        1.357        0.515      106.694       49.099        0.212      335.630        6.392      865.112
11/23/2013  11:30:00       79.859      128.371      108.466       66.368       52.653       48.457     4404.724     2772.338     2348.082        2.207        0.476      151.184       46.942        0.096      335.561        6.275      865.116
11/23/2013  11:31:00      110.581       89.429       23.631       45.563       37.685       39.043     2076.025     1420.146     1524.337        1.290        0.251      142.217       29.695        0.044      335.456        6.101      865.135
11/23/2013  11:32:00       62.560       46.328        8.141       41.779       41.873       27.202     1745.460     1753.326      739.960        0.518        0.212       77.847       26.898        0.119      335.816        6.702      865.138
11/23/2013  11:33:00       93.224       79.667        1.804       38.199       30.096       32.427     1459.179      905.767     1051.480        0.923        0.171      122.627       15.069        0.015      335.646        6.418      865.127
11/23/2013  11:34:00       64.303       55.535        2.375       38.979       21.091       31.680     1519.391      444.810     1003.603        0.510        0.148       84.965       18.706        0.048      335.481        6.145      865.126
11/23/2013  11:35:00       -3.311       36.010        1.363       21.179       25.744       22.920      448.543      662.743      525.349        0.147        0.082       36.161       19.644        0.295      335.796        6.669      865.083
11/23/2013  11:36:00       -0.330       62.383       -0.290       29.896       53.910       23.488      893.769     2906.316      551.687        0.412        0.218       62.384       16.578        0.071      335.706        6.518      865.049
11/23/2013  11:37:00        8.519       25.255       22.522       21.776       28.014       27.003      474.178      784.783      729.178        0.160        0.099       26.653       15.442        0.336      336.078        7.139      865.027
11/23/2013  11:38:00        7.481       32.524       14.817       24.855       27.621       23.009      617.762      762.920      529.400        0.162        0.096       33.373       21.761        0.425      335.995        7.000      865.010
11/23/2013  11:39:00       12.410       47.878        5.685       35.210       49.267       29.091     1239.741     2427.267      846.306        0.350        0.226       49.460       28.955        0.343      335.985        6.983      864.994
11/23/2013  11:40:00      108.201       75.569       24.827       51.892       40.299       42.696     2692.765     1624.005     1822.938        1.209        0.307      131.978        9.876        0.006      335.738        6.571      864.975
11/23/2013  11:41:00      110.197       57.397       -6.171       65.754       45.363       39.965     4323.649     2057.771     1597.188        1.173        0.399      124.249       23.133        0.035      335.880        6.808      864.954
11/23/2013  11:42:00      170.545       81.923        5.820       68.061       47.940       52.864     4632.358     2298.224     2794.582        2.278        0.486      189.200       28.312        0.022      335.706        6.517      864.950
11/23/2013  11:43:00        5.660       99.374       -4.056       34.120       49.617       33.427     1164.146     2461.833     1117.365        0.733        0.237       99.535       27.894        0.079      335.569        6.290      864.967
11/23/2013  11:44:00       12.422       37.814        1.115       24.898       16.322       31.332      619.930      266.407      981.716        0.173        0.093       39.802       20.026        0.253      335.716        6.533      864.970
11/23/2013  11:45:00      -15.632       46.292       -3.975       28.653       28.804       19.959      821.016      829.677      398.346        0.223        0.102       48.860       10.120        0.043      335.651        6.426      864.978
11/23/2013  11:46:00      -55.794       -5.378       -7.307       24.008       27.761       15.378      576.405      770.670      236.486        0.239        0.079       56.052       15.101        0.073      335.728        6.556      864.967
11/23/2013  11:47:00      -55.884      -17.585        1.691       25.867       19.694       19.211      669.089      387.856      369.053        0.243        0.071       58.586       13.350        0.052      335.627        6.388      864.955
11/23/2013  11:48:00      -15.694      -18.320       -8.194       28.421       13.697        9.277      807.763      187.618       86.067        0.087        0.054       24.123        8.483        0.124      335.818        6.706      864.946
11/23/2013  11:49:00      -11.409      -68.861       -9.160       37.094       47.319       28.268     1375.995     2239.044      799.086        0.468        0.221       69.799       22.121        0.100      336.004        7.015      864.936
11/23/2013  11:50:00      -18.238      -27.584       20.265       33.625       55.372       38.289     1130.650     3066.088     1466.059        0.358        0.283       33.068       10.467        0.100      336.272        7.463      864.950
11/23/2013  11:51:00       25.599      -32.482        9.680       48.079       49.362       37.702     2311.605     2436.641     1421.462        0.399        0.308       41.357       36.507        0.779      336.130        7.226      864.948
11/23/2013  11:52:00      -12.403       -3.151       21.372       15.556       38.994       27.050      241.988     1520.534      731.678        0.156        0.125       12.797       23.962        3.506      336.393        7.664      864.943
11/23/2013  11:53:00       12.544      -28.751       10.071       54.393       57.469       41.949     2958.618     3302.689     1759.719        0.455        0.401       31.368       39.620        1.595      336.247        7.422      864.936
11/23/2013  11:54:00        2.920      -53.986        4.550       33.217       51.748       29.412     1103.354     2677.814      865.089        0.379        0.232       54.065       32.111        0.353      336.179        7.307      864.948
11/23/2013  11:55:00      -20.576       -5.601       20.919       27.676       26.280       16.951      765.947      690.637      287.325        0.132        0.087       21.324       12.064        0.320      336.483        7.815      864.960
11/23/2013  11:56:00       12.899       41.382       48.949       33.626       28.760       33.756     1130.698      827.161     1139.500        0.369        0.155       43.346       25.662        0.351      336.260        7.442      864.961
11/23/2013  11:57:00       -1.874       22.606       57.047       30.166       64.260       49.854      909.958     4129.321     2485.460        0.565        0.376       22.684       43.893        3.744      336.288        7.491      864.960
11/23/2013  11:58:00      126.694     -136.196      -12.966       68.207      102.428       53.564     4652.187    10491.409     2869.073        2.639        0.901      186.013       59.078        0.101      335.957        6.935      864.929
11/23/2013  11:59:00       82.769      -88.729       -9.635       79.760      107.477       66.709     6361.736    11551.199     4450.125        1.859        1.118      121.341       60.184        0.246      336.007        7.018      864.917
11/23/2013  12:00:00       97.865      -30.136       46.230       71.926       77.041       51.186     5173.368     5935.361     2620.024        1.317        0.686      102.400       45.400        0.197      336.163        7.281      864.914
11/23/2013  12:01:00       91.212       39.380       67.654       71.754       88.516       82.933     5148.689     7835.056     6877.942        1.715        0.993       99.350       77.298        0.605      335.814        6.698      864.915
11/23/2013  12:02:00       83.545      -54.667       -4.647       66.709       92.134       46.935     4450.048     8488.694     2202.892        1.256        0.757       99.841       48.910        0.240      335.781        6.642      864.894
11/23/2013  12:03:00      122.833     -130.595      -25.186       98.803      114.703       58.829     9762.089    13156.684     3460.862        2.957        1.319      179.284       71.412        0.159      335.883        6.811      864.864
11/23/2013  12:04:00      109.280      -90.854       -4.615       91.456       85.943       43.572     8364.251     7386.156     1898.539        1.893        0.882      142.115       50.086        0.124      335.711        6.523      864.877
11/23/2013  12:05:00       94.229     -195.191       -2.689       60.294       51.184       49.936     3635.410     2619.838     2493.627        2.787        0.437      216.745       38.895        0.032      335.891        6.824      864.857
11/23/2013  12:06:00       81.317     -103.899       -3.791       44.160       84.736       52.580     1950.136     7180.183     2764.633        1.466        0.595      131.937       54.725        0.172      335.932        6.894      864.855
11/23/2013  12:07:00      110.822      -93.057        4.201       68.702       89.941       41.905     4719.961     8089.434     1756.044        1.776        0.728      144.711       58.374        0.163      335.905        6.849      864.846
11/23/2013  12:08:00       42.459       68.179       89.905       51.969       51.596       46.202     2700.795     2662.108     2134.635        1.101        0.375       80.319       44.680        0.309      336.288        7.489      864.829
11/23/2013  12:09:00       56.936      -26.304       36.874       52.426       59.142       39.398     2748.489     3497.735     1552.235        0.654        0.390       62.719       37.849        0.364      336.176        7.303      864.821
11/23/2013  12:10:00        3.125      -34.173       34.190       39.058       40.590       30.613     1525.527     1647.513      937.149        0.323        0.206       34.316       26.094        0.578      336.349        7.592      864.812
11/23/2013  12:11:00       42.992      -43.475       21.976       68.235       43.541       40.545     4656.075     1895.859     1643.935        0.621        0.410       61.142       19.075        0.097      336.286        7.485      864.813
11/23/2013  12:12:00       65.457      -47.071       22.598       74.058       71.031       40.045     5484.607     5045.395     1603.641        0.957        0.607       80.624       43.296        0.288      336.181        7.310      864.826
11/23/2013  12:13:00       75.879      -51.444       14.046       58.375       76.147       51.929     3407.668     5798.341     2696.612        1.025        0.595       91.674       56.544        0.380      336.237        7.404      864.830
11/23/2013  12:14:00       66.861      -63.048        6.894       29.943       59.058       38.983      896.561     3487.883     1519.644        0.720        0.295       91.899       34.686        0.142      335.956        6.935      864.827
11/23/2013  12:15:00       -4.720      -34.492       -6.673       44.176       32.379       23.479     1951.514     1048.373      551.242        0.240        0.178       34.813       20.546        0.348      335.922        6.878      864.828
11/23/2013  12:16:00       -5.504       35.879       -9.034       16.967       20.732       22.801      287.893      429.832      519.886        0.132        0.062       36.299        5.804        0.026      336.173        7.298      864.829
11/23/2013  12:17:00       -1.558       51.264       -0.975       40.418       26.021       22.900     1633.604      677.070      524.419        0.273        0.142       51.288       17.904        0.122      336.199        7.340      864.839
11/23/2013  12:18:00      126.174       81.398       14.417       42.317       38.651       40.611     1790.754     1493.889     1649.227        1.384        0.247      150.152       22.623        0.023      336.023        7.046      864.830
11/23/2013  12:19:00      152.687       91.840       63.264       63.362       48.465       49.279     4014.689     2348.825     2428.378        2.227        0.440      178.179       41.517        0.054      336.101        7.175      864.809
11/23/2013  12:20:00      103.330       59.955       57.150       86.272       61.431       62.311     7442.922     3773.762     3882.606        1.632        0.755      119.464       50.687        0.180      336.124        7.215      864.792
11/23/2013  12:21:00      111.118       84.577       62.376       70.860       61.078       54.960     5021.133     3730.479     3020.636        1.758        0.589      139.644       16.399        0.014      336.181        7.309      864.782
11/23/2013  12:22:00      122.075      112.747       83.650       92.571       46.576       49.440     8569.461     2169.291     2444.270        2.389        0.659      166.175       50.058        0.091      336.046        7.084      864.764
11/23/2013  12:23:00       95.727       60.903       24.754       76.331       66.706       38.305     5826.414     4449.740     1467.272        1.261        0.587      113.458       27.592        0.059      336.066        7.118      864.755
11/23/2013  12:24:00       65.188       64.532       52.037       71.886       42.087       37.144     5167.526     1771.329     1379.699        0.972        0.416       91.726       33.434        0.133      336.374        7.632      864.752
11/23/2013  12:25:00       84.253       69.661       -1.138       79.522       59.922       31.867     6323.718     3590.650     1015.520        1.144        0.546      109.321       20.384        0.035      336.231        7.393      864.739
11/23/2013  12:26:00       22.113       72.685       33.322       41.404       60.648       59.994     1714.278     3678.216     3599.243        0.794        0.450       75.974       30.428        0.160      336.308        7.524      864.739
11/23/2013  12:27:00        5.669       97.277      105.966       49.153       56.035       43.679     2416.066     3139.913     1907.812        1.409        0.373       97.442       35.351        0.132      336.350        7.592      864.726
11/23/2013  12:28:00       42.629       94.827       75.568       52.657       49.229       50.339     2772.782     2423.455     2534.049        1.212        0.387      103.969       39.067        0.141      336.273        7.464      864.706
11/23/2013  12:29:00       86.871       57.469       28.582       66.191       56.533       37.657     4381.229     3196.022     1418.040        1.033        0.450      104.160       25.587        0.060      336.262        7.445      864.709
11/23/2013  12:30:00       40.838      111.485      -41.802       72.581       41.271       19.841     5267.938     1703.269      393.662        1.160        0.368      118.729       27.298        0.053      335.811        6.695      864.722
11/23/2013  12:31:00      -97.301       28.900      -30.637       28.628       51.460       20.458      819.577     2648.126      418.547        0.756        0.194      101.503       18.165        0.032      335.757        6.604      864.725
11/23/2013  12:32:00       -2.243      -38.964        9.210       35.508       25.000       25.106     1260.786      624.986      630.334        0.206        0.126       39.028       21.454        0.302      335.949        6.922      864.708
11/23/2013  12:33:00       73.457       56.164       22.403       29.172       24.214       23.997      851.035      586.314      575.843        0.553        0.101       92.468       17.625        0.036      335.911        6.860      864.671
11/23/2013  12:34:00       61.462       31.168       32.714       53.794       33.214       25.483     2893.763     1103.148      649.406        0.523        0.232       68.913       17.798        0.067      336.140        7.241      864.649
11/23/2013  12:35:00       11.291      -24.295       -3.174       19.565       28.207       14.714      382.794      795.648      216.492        0.106        0.070       26.790        9.709        0.131      336.288        7.490      864.620
11/23/2013  12:36:00        9.526      -53.968       37.818       48.787       62.763       44.671     2380.166     3939.219     1995.519        0.637        0.416       54.803       25.887        0.223      336.472        7.797      864.584
11/23/2013  12:37:00       -4.895      -33.750       35.714       42.433       68.854       39.930     1800.569     4740.869     1594.379        0.529        0.407       34.103       35.515        1.085      336.833        8.401      864.567
11/23/2013  12:38:00       25.794       67.256       97.152       46.220       97.351       51.270     2136.243     9477.238     2628.626        1.443        0.712       72.033       64.562        0.803      336.234        7.399      864.561
11/23/2013  12:39:00       19.895       85.614      102.868       39.995       41.249       21.196     1599.574     1701.510      449.250        1.103        0.188       87.895       20.979        0.057      336.298        7.507      864.525
11/23/2013  12:40:00        5.503       32.519       76.834       41.882       52.218       32.777     1754.089     2726.727     1074.312        0.627        0.278       32.981       33.492        1.031      336.543        7.915      864.484
11/23/2013  12:41:00      -33.280      -23.681        6.763       30.664       39.191       33.525      940.295     1535.910     1123.955        0.266        0.180       40.845       16.633        0.166      336.573        7.966      864.455
11/23/2013  12:42:00      -32.746       -5.169       21.452       36.445       44.971       32.412     1328.258     2022.436     1050.533        0.298        0.220       33.151       14.354        0.187      336.810        8.361      864.438
11/23/2013  12:43:00      -26.823       -7.029       32.060       36.376       31.131       22.067     1323.242      969.140      486.963        0.229        0.139       27.729       19.052        0.472      336.679        8.143      864.430
11/23/2013  12:44:00      -55.325      -10.638       -0.596       32.916       41.843       19.930     1083.459     1750.802      397.194        0.320        0.162       56.339       22.557        0.160      336.640        8.079      864.410
11/23/2013  12:45:00      -23.193      -30.753       -3.582       36.810       26.692       17.514     1355.009      712.469      306.755        0.193        0.119       38.518       18.380        0.228      336.788        8.326      864.401
11/23/2013  12:46:00      -56.318     -117.129        2.810       70.082       64.850       50.806     4911.474     4205.572     2581.241        1.430        0.585      129.965       50.057        0.148      336.192        7.328      864.402
11/23/2013  12:47:00      -72.086      -92.300      -17.299       52.572       67.137       28.763     2763.831     4507.432      827.302        1.106        0.405      117.114       29.027        0.061      335.947        6.919      864.420
11/23/2013  12:48:00      -81.863      -84.929      -10.845       49.012       54.478       27.784     2402.162     2967.807      771.923        1.009        0.307      117.960       21.556        0.033      335.953        6.929      864.408
11/23/2013  12:49:00      -78.826      -52.788        2.354       54.337       45.039       26.637     2952.471     2028.489      709.544        0.735        0.285       94.869       32.591        0.118      336.187        7.320      864.407
11/23/2013  12:50:00      -60.992      -59.168       32.309       65.265       58.234       42.040     4259.519     3391.153     1767.320        0.884        0.471       84.976       42.007        0.244      336.262        7.445      864.397
11/23/2013  12:51:00      -24.999      -47.615      -17.905       49.481       68.425       18.087     2448.417     4681.949      327.134        0.533        0.373       53.778       15.221        0.080      336.074        7.131      864.385
11/23/2013  12:52:00      -13.682      -26.824       13.921       27.150       37.435       20.472      737.107     1401.410      419.114        0.183        0.128       30.112       15.747        0.273      336.493        7.831      864.374
11/23/2013  12:53:00       -6.469       33.923       49.749       16.842       22.785       29.562      283.647      519.146      873.921        0.267        0.084       34.535       12.634        0.134      336.712        8.198      864.360
11/23/2013  12:54:00       28.977       24.689       -2.441       26.364       16.706       23.431      695.080      279.095      549.016        0.149        0.076       38.069       12.293        0.104      336.368        7.622      864.335
11/23/2013  12:55:00       29.143       29.185       -8.770       42.388       34.569       19.486     1796.726     1195.034      379.720        0.257        0.169       41.244       11.893        0.083      336.643        8.083      864.316
11/23/2013  12:56:00       89.006       49.750        9.950       59.523       49.028       31.506     3543.037     2403.715      992.639        0.872        0.347      101.967       18.527        0.033      336.572        7.963      864.298
11/23/2013  12:57:00       12.687       31.012       48.428       42.305       35.031       33.949     1789.722     1227.145     1152.563        0.382        0.208       33.507       25.868        0.596      337.004        8.685      864.297
11/23/2013  12:58:00       29.949       64.554       54.753       50.984       34.459       34.174     2599.408     1187.398     1167.896        0.651        0.248       71.163       34.467        0.235      336.680        8.145      864.298
11/23/2013  12:59:00       71.932       66.424       48.633       73.359       48.995       43.828     5381.568     2400.505     1920.933        1.083        0.485       97.910       10.082        0.011      336.521        7.878      864.285
11/23/2013  13:00:00       75.492       84.140        4.060       42.025       47.085       41.391     1766.099     2216.978     1713.182        0.924        0.285      113.042       32.666        0.084      336.192        7.329      864.268
11/23/2013  13:01:00       21.632       31.579       16.857       34.274       33.553       27.679     1174.732     1125.801      766.141        0.241        0.153       38.278       22.506        0.346      336.491        7.828      864.258
11/23/2013  13:02:00       91.826       83.922       62.586       67.634       44.559       48.466     4574.408     1985.501     2348.961        1.415        0.445      124.398       36.292        0.085      336.434        7.733      864.247
11/23/2013  13:03:00       12.844       83.296      108.680       56.581       53.239       28.758     3201.421     2834.352      827.023        1.289        0.343       84.280       30.002        0.127      336.453        7.765      864.233
11/23/2013  13:04:00      134.571       87.238       40.788       53.576       39.218       37.107     2870.416     1538.065     1376.912        1.658        0.289      160.374       20.797        0.017      336.081        7.142      864.229
11/23/2013  13:05:00      -13.893       22.596       18.196       47.982       24.834       30.606     2302.246      616.727      936.705        0.244        0.193       26.526       31.875        1.444      336.369        7.624      864.216
11/23/2013  13:06:00     -100.929       66.407      -14.163       42.406       42.710       24.077     1798.272     1824.110      579.695        0.950        0.210      120.816       24.059        0.040      336.423        7.714      864.180
11/23/2013  13:07:00     -101.557       47.324      -14.816       26.789       44.443       24.442      717.631     1975.218      597.405        0.803        0.165      112.042       20.408        0.033      336.437        7.737      864.146
11/23/2013  13:08:00     -125.843       40.227      -11.657       52.369       32.366       26.783     2742.543     1047.562      717.332        1.105        0.225      132.116       16.329        0.015      336.604        8.016      864.127
11/23/2013  13:09:00      -64.792        8.145       -6.199       43.903       60.514       27.951     1927.444     3661.964      781.278        0.534        0.319       65.302       20.280        0.096      336.549        7.926      864.117
11/23/2013  13:10:00      -66.409     -153.324      -10.073       41.731       47.928       29.380     1741.441     2297.096      863.158        1.646        0.245      167.088       10.357        0.004      336.176        7.300      864.121
11/23/2013  13:11:00      -64.041      -75.204        3.587       41.102       42.383       24.252     1689.335     1796.291      588.182        0.692        0.204       98.777       19.273        0.038      336.452        7.764      864.126
11/23/2013  13:12:00      -32.915      -48.602        8.858       56.850       41.277       24.759     3231.945     1703.779      613.010        0.454        0.277       58.699       20.402        0.121      336.581        7.980      864.139
11/23/2013  13:13:00       17.923      -57.915        9.210       33.643       52.036       25.451     1131.877     2707.713      647.778        0.412        0.224       60.624       22.084        0.133      336.834        8.401      864.150
11/23/2013  13:14:00      -26.716      -41.164       -5.765       49.963       43.164       28.694     2496.349     1863.133      823.341        0.381        0.259       49.074       26.439        0.290      336.457        7.772      864.150
11/23/2013  13:15:00       -7.641      -26.125       42.962       47.289       43.949       52.295     2236.291     1931.549     2734.741        0.474        0.345       27.219       21.348        0.615      336.845        8.421      864.151
11/23/2013  13:16:00       20.702       49.657       84.663       45.959       84.146       53.845     2112.269     7080.524     2899.277        1.107        0.605       53.800       62.945        1.369      336.547        7.921      864.163
11/23/2013  13:17:00       51.642       46.267       30.485       32.713       94.137       51.740     1070.110     8861.833     2677.044        0.917        0.630       69.336       44.943        0.420      336.396        7.670      864.147
11/23/2013  13:18:00       33.769      -69.278        4.873       28.926       44.596       20.969      836.714     1988.816      439.706        0.461        0.163       77.070       12.609        0.027      336.279        7.474      864.125
11/23/2013  13:19:00       18.091        4.216       26.924       43.600       30.015       23.224     1900.951      900.872      539.369        0.220        0.167       18.575       15.704        0.715      336.563        7.948      864.101
11/23/2013  13:20:00      -12.143      -16.179       -8.891       15.871       34.747       22.507      251.885     1207.344      506.549        0.123        0.098       20.230       18.661        0.851      336.775        8.303      864.070
11/23/2013  13:21:00       17.754       23.463        4.722       17.281       13.468       14.532      298.647      181.395      211.172        0.079        0.035       29.423        8.448        0.082      336.853        8.433      864.043
11/23/2013  13:22:00       49.278       13.120       32.065       37.259       24.085       27.198     1388.258      580.102      739.713        0.317        0.135       50.994       15.744        0.095      336.867        8.457      864.015
11/23/2013  13:23:00      -73.149      -34.412      -19.326       49.094       37.721       17.899     2410.211     1422.863      320.366        0.553        0.208       80.839       16.581        0.042      336.806        8.354      864.014
11/23/2013  13:24:00       53.984     -157.217      -32.266       76.322       78.268       39.562     5825.123     6125.868     1565.122        2.109        0.676      166.227       33.880        0.042      336.524        7.883      863.981
11/23/2013  13:25:00       30.578      -22.407       39.195       43.251       69.680       45.151     1870.681     4855.324     2038.598        0.587        0.438       37.909       38.581        1.036      336.741        8.248      863.981
11/23/2013  13:26:00      -12.127       25.527       66.114       26.387       54.968       38.487      696.280     3021.518     1481.229        0.518        0.260       28.261       41.773        2.185      336.820        8.379      863.972
11/23/2013  13:27:00      101.382       75.946       58.612      111.380       48.262       45.100    12405.447     2329.211     2034.007        1.812        0.838      126.673       47.372        0.140      336.766        8.285      863.971
11/23/2013  13:28:00      156.378       79.606       75.775       73.814       80.121       66.110     5448.472     6419.413     4370.541        2.638        0.812      175.474       58.609        0.112      336.495        7.834      863.978
11/23/2013  13:29:00       40.958       98.716      107.002       67.152       61.210       45.960     4509.419     3746.623     2112.321        1.662        0.518      106.876       44.649        0.175      336.777        8.307      863.991
11/23/2013  13:30:00       56.831       14.040       38.393       74.370       48.502       51.936     5530.840     2352.481     2697.390        0.774        0.529       58.540       36.460        0.388      336.595        8.003      863.997
11/23/2013  13:31:00       52.182       69.039       75.353       60.005       61.711       51.426     3600.555     3808.255     2644.590        1.161        0.503       86.541       34.192        0.156      336.796        8.339      863.993
11/23/2013  13:32:00       35.942      -32.870       44.844       58.676       80.681       48.794     3442.926     6509.439     2380.873        0.836        0.617       48.706       57.911        1.414      336.859        8.445      863.999
11/23/2013  13:33:00        0.425      -17.586       41.371       49.489       96.083       62.236     2449.194     9231.901     3873.361        0.878        0.778       17.591       69.491       15.605      337.030        8.729      864.000
11/23/2013  13:34:00       44.245     -105.049      -17.597       47.350       36.819       31.175     2241.983     1355.612      971.893        0.894        0.228      113.986       20.869        0.034      336.601        8.013      864.004
11/23/2013  13:35:00       16.441        7.320       27.860       27.345       59.619       37.715      747.746     3554.439     1422.414        0.341        0.286       17.997       44.604        6.143      336.804        8.352      864.000
11/23/2013  13:36:00      -26.127       15.767       13.592       31.436       26.875       22.130      988.201      722.243      489.718        0.166        0.110       30.516       21.034        0.475      336.988        8.660      863.993
11/23/2013  13:37:00       13.230       33.491       58.220       45.027       58.224       43.973     2027.446     3390.077     1933.644        0.602        0.368       36.009       39.796        1.221      336.957        8.608      863.994
11/23/2013  13:38:00        0.201      -64.924        2.669       42.684       50.097       37.241     1821.966     2509.709     1386.924        0.497        0.286       64.924       26.095        0.162      337.069        8.795      863.992
11/23/2013  13:39:00       33.302      -78.148        8.510       49.138       51.674       32.400     2414.575     2670.239     1049.739        0.671        0.307       84.948       28.673        0.114      337.019        8.710      863.990
11/23/2013  13:40:00       22.473       35.471       72.762       46.161       64.806       41.555     2130.840     4199.832     1726.782        0.756        0.403       41.990       42.868        1.042      337.068        8.792      863.981
11/23/2013  13:41:00       28.150       67.008       57.156       55.724       61.393       48.031     3105.203     3769.056     2306.941        0.886        0.459       72.681       39.713        0.299      337.022        8.715      863.978
11/23/2013  13:42:00       63.635       83.303       90.205       77.593       62.529       52.639     6020.601     3909.930     2770.886        1.591        0.635      104.828       46.224        0.194      336.886        8.487      863.979
11/23/2013  13:43:00       64.412       69.793       79.475      106.142       69.985       72.126    11266.024     4897.968     5202.200        1.835        1.068       94.974       72.038        0.575      336.935        8.568      863.982
11/23/2013  13:44:00      191.321      122.385       35.433       93.346       65.914       60.478     8713.451     4344.688     3657.541        3.477        0.836      227.117       48.244        0.045      336.765        8.284      863.971
11/23/2013  13:45:00      240.379      174.533       62.033       90.563       70.874       84.371     8201.595     5023.178     7118.411        5.621        1.017      297.058       64.030        0.046      336.643        8.078      863.977
11/23/2013  13:46:00      204.947      129.604       23.718       69.222       56.566       47.718     4791.653     3199.697     2277.029        3.481        0.513      242.488       21.190        0.008      336.363        7.612      863.979
11/23/2013  13:47:00      165.824      120.111       22.925       32.357       25.690       30.962     1046.962      659.978      958.637        2.256        0.133      204.754       14.166        0.005      336.407        7.686      863.965
11/23/2013  13:48:00       45.913       60.094      -12.536       33.705       37.755       19.030     1136.025     1425.447      362.136        0.440        0.146       75.626       17.707        0.055      336.479        7.808      863.951
11/23/2013  13:49:00       33.559       57.999       18.805       46.814       32.264       30.922     2191.535     1040.945      956.194        0.452        0.209       67.008       24.747        0.136      336.605        8.019      863.938
11/23/2013  13:50:00       47.174       25.921       61.333       62.887       46.646       42.259     3954.805     2175.883     1785.822        0.729        0.396       53.826       35.335        0.431      336.902        8.516      863.925
11/23/2013  13:51:00      150.383       82.651       64.374      104.250       75.874       59.577    10868.074     5756.904     3549.445        2.688        1.009      171.599       57.184        0.111      336.899        8.508      863.905
11/23/2013  13:52:00      180.800      103.614       21.634       92.516       64.288       60.701     8559.232     4132.986     3684.654        3.013        0.819      208.385       34.879        0.028      336.763        8.282      863.900
11/23/2013  13:53:00      171.920       89.863       59.142       95.582       70.672       58.734     9135.911     4994.501     3449.740        2.935        0.879      193.989       47.362        0.060      336.924        8.550      863.889
11/23/2013  13:54:00      150.525       56.279       34.187       96.329       87.006       72.407     9279.192     7570.047     5242.827        2.454        1.105      160.702       54.145        0.114      336.989        8.659      863.879
11/23/2013  13:55:00       40.095      109.887      132.888       68.896       65.355       35.724     4746.705     4271.235     1276.216        2.082        0.515      116.973       36.179        0.096      337.117        8.871      863.874
11/23/2013  13:56:00      155.241      100.472       54.372       93.686       73.508       68.924     8777.127     5403.465     4750.495        2.804        0.947      184.917       53.133        0.083      336.993        8.665      863.876
11/23/2013  13:57:00       90.805      115.975       85.686       81.906       65.686       78.906     6708.672     4314.650     6226.172        2.314        0.862      147.295       69.850        0.225      336.892        8.497      863.872
11/23/2013  13:58:00      123.346       18.778       21.888       78.564       61.830       41.494     6172.251     3822.945     1721.712        1.388        0.586      124.768       26.031        0.044      336.799        8.343      863.864
11/23/2013  13:59:00       66.262       53.930       62.257       76.106       52.309       46.850     5792.196     2736.207     2194.960        1.095        0.536       85.435       40.558        0.225      336.939        8.577      863.849
11/23/2013  14:00:00      120.771      116.026       96.898       82.423       69.042       55.594     6793.609     4766.846     3090.727        2.604        0.733      167.474       51.256        0.094      336.795        8.334      863.836
11/23/2013  14:01:00       94.569       99.311       99.273       91.690       70.887       53.405     8407.096     5024.898     2852.097        2.247        0.814      137.135       54.961        0.161      336.909        8.523      863.823
11/23/2013  14:02:00       51.962       57.945       47.546       54.006       41.439       31.574     2916.595     1717.165      996.916        0.697        0.282       77.831       21.106        0.074      337.081        8.814      863.816
11/23/2013  14:03:00       42.370       22.046       38.990       73.768       46.971       36.174     5441.717     2206.255     1308.586        0.638        0.448       47.763       38.876        0.662      336.931        8.564      863.811
11/23/2013  14:04:00       87.120       49.373       -2.660       48.432       73.084       37.783     2345.672     5341.235     1427.549        0.957        0.456      100.138       28.368        0.080      336.545        7.918      863.799
11/23/2013  14:05:00       14.400       44.097      -16.700       44.065       37.263       21.984     1941.747     1388.546      483.282        0.312        0.191       46.388       20.205        0.190      336.698        8.176      863.765
11/23/2013  14:06:00       70.960       17.684        9.178       35.498       29.663       20.797     1260.075      879.891      432.525        0.400        0.129       73.130       15.642        0.046      336.796        8.339      863.751
11/23/2013  14:07:00      119.901       28.102       33.436       89.069       66.299       44.438     7933.260     4395.554     1974.762        1.529        0.715      123.150       26.372        0.046      336.855        8.435      863.756
11/23/2013  14:08:00       70.683        8.909       32.948       80.613       88.746       53.225     6498.387     7875.880     2832.903        1.168        0.860       71.242       48.249        0.459      337.100        8.846      863.740
11/23/2013  14:09:00       31.114      -63.749       20.189       46.154      103.240       54.268     2130.187    10658.409     2944.964        1.058        0.787       70.937       59.458        0.703      337.124        8.885      863.735
11/23/2013  14:10:00       69.123       32.758       58.809       66.152      103.909       53.398     4376.032    10796.983     2851.340        1.366        0.901       76.492       64.161        0.704      336.785        8.320      863.724
11/23/2013  14:11:00       30.195       62.513       62.600       30.800       41.150       32.189      948.624     1693.363     1036.114        0.621        0.184       69.423       27.487        0.157      336.927        8.555      863.697
11/23/2013  14:12:00      105.027       79.499       56.170       85.131       54.383       51.102     7247.225     2957.490     2611.419        1.666        0.641      131.722       51.770        0.154      336.825        8.385      863.689
11/23/2013  14:13:00       23.374      109.041      113.301       48.253       58.686       57.384     2328.363     3444.002     3292.884        1.717        0.453      111.518       46.732        0.176      336.899        8.509      863.682
11/23/2013  14:14:00      118.912      113.834       57.601       73.421       50.297       57.220     5390.589     2529.786     3274.143        2.080        0.560      164.615       47.025        0.082      336.690        8.159      863.673
11/23/2013  14:15:00       67.108      115.946      116.712       66.567       57.845       46.076     4431.192     3346.037     2123.005        2.073        0.495      133.966       33.234        0.062      336.812        8.363      863.653
11/23/2013  14:16:00       88.018     -140.758      -16.301      116.152      102.114       69.102    13491.275    10427.194     4775.096        2.825        1.435      166.012       87.087        0.275      336.767        8.288      863.637
11/23/2013  14:17:00       53.634      -53.679       47.983       58.660      113.118       66.803     3441.046    12795.646     4462.622        1.438        1.035       75.882       84.700        1.246      336.639        8.074      863.639
11/23/2013  14:18:00        6.509       -1.641       24.166       65.249       49.261       32.696     4257.456     2426.677     1069.025        0.419        0.388        6.712       34.275       26.074      336.781        8.311      863.629
11/23/2013  14:19:00       53.917      -65.191        0.391       78.914      101.190       41.567     6227.444    10239.345     1727.850        1.267        0.910       84.599       58.808        0.483      336.894        8.502      863.629
11/23/2013  14:20:00       51.879      -17.039       25.818       45.916       85.954       35.990     2108.296     7388.141     1295.264        0.722        0.540       54.605       34.652        0.403      336.995        8.670      863.624
11/23/2013  14:21:00       37.713      -22.467       24.575       42.637       71.573       49.473     1817.876     5122.730     2447.543        0.596        0.469       43.898       52.327        1.421      337.070        8.795      863.632
11/23/2013  14:22:00       22.395       -9.448       29.493       47.206       52.203       34.768     2228.438     2725.107     1208.780        0.381        0.308       24.307       31.045        1.631      337.150        8.929      863.624
11/23/2013  14:23:00       40.227      -11.724       18.724       38.500       59.884       24.688     1482.227     3586.086      609.475        0.389        0.284       41.901       25.234        0.363      337.055        8.771      863.616
11/23/2013  14:24:00       22.607      -43.778       38.477       50.694       75.323       49.793     2569.903     5673.544     2479.299        0.731        0.536       49.271       52.443        1.133      337.129        8.893      863.608
11/23/2013  14:25:00       92.588       -7.665       47.291       62.980       94.442       66.101     3966.455     8919.216     4369.324        1.406        0.863       92.905       71.239        0.588      337.031        8.730      863.602
11/23/2013  14:26:00      151.907      -70.716       43.330      115.135      172.823       93.454    13256.127    29867.782     8733.690        4.090        2.593      167.561      109.830        0.430      336.927        8.553      863.591
11/23/2013  14:27:00      158.172     -151.372       10.831      117.446      155.312       87.256    13793.447    24121.967     7613.564        4.678        2.276      218.933      111.404        0.259      336.871        8.462      863.598
11/23/2013  14:28:00      118.707       -5.705       47.823       91.851      172.224       96.255     8436.568    29661.108     9265.050        3.188        2.368      118.844      110.829        0.870      336.814        8.366      863.610
11/23/2013  14:29:00       93.040      100.775       68.951       74.281       62.310       54.474     5517.628     3882.503     2967.454        1.796        0.618      137.157       42.007        0.094      336.827        8.390      863.632
11/23/2013  14:30:00      112.161      125.273       89.168       86.060       50.486       62.700     7406.352     2548.883     3931.308        2.505        0.694      168.147       56.600        0.113      336.818        8.373      863.620
11/23/2013  14:31:00       56.435       91.134       81.928       70.270       50.821       44.257     4937.848     2582.796     1958.696        1.384        0.474      107.193       35.165        0.108      336.894        8.500      863.624
11/23/2013  14:32:00       97.053      -37.933       27.210      104.298       97.932       54.238    10878.091     9590.676     2941.717        1.750        1.171      104.202       67.667        0.422      337.034        8.733      863.620
11/23/2013  14:33:00       80.687      -95.008       21.508       80.774      102.380       55.891     6524.419    10481.586     3123.771        1.806        1.006      124.647       64.946        0.271      336.984        8.650      863.618
11/23/2013  14:34:00      144.842     -166.872      -13.839       68.004       80.970       50.273     4624.610     6556.095     2527.394        3.136        0.685      220.965       49.130        0.049      336.831        8.392      863.607
11/23/2013  14:35:00      112.445      -54.704       32.287       80.819      107.854       65.761     6531.753    11632.493     4324.528        1.958        1.124      125.046       68.692        0.302      336.899        8.510      863.596
11/23/2013  14:36:00      100.116      -69.084       40.738       77.533      171.620       81.576     6011.292    29453.529     6654.582        2.928        2.106      121.638      116.352        0.915      336.699        8.174      863.591
11/23/2013  14:37:00       63.449      -28.078       43.576       68.088       79.850       52.148     4635.979     6376.088     2719.428        1.022        0.687       69.384       57.997        0.699      336.851        8.430      863.597
11/23/2013  14:38:00      113.945     -113.894       -5.505       58.818       72.549       41.937     3459.549     5263.397     1758.693        1.823        0.524      161.107       43.731        0.074      336.726        8.221      863.614
11/23/2013  14:39:00      122.116     -136.623      -14.516       61.774       60.491       37.111     3815.966     3659.113     1377.230        2.132        0.443      183.244       38.904        0.045      336.626        8.053      863.619
11/23/2013  14:40:00       84.469      -93.434       10.997       69.403      101.365       52.834     4816.835    10274.929     2791.439        1.693        0.894      125.956       71.594        0.323      336.751        8.262      863.616
11/23/2013  14:41:00       70.136      -33.743       32.083       93.860       76.054       56.280     8809.613     5784.142     3167.447        1.242        0.888       77.831       64.427        0.685      336.841        8.413      863.610
11/23/2013  14:42:00      115.083      -75.104       25.413       87.244       86.306       65.379     7611.542     7448.678     4274.385        1.943        0.967      137.422       62.711        0.208      336.805        8.352      863.604
11/23/2013  14:43:00       97.433     -159.156      -28.299       83.070       80.744       53.631     6900.687     6519.527     2876.233        2.596        0.815      186.611       43.867        0.055      336.772        8.294      863.603
11/23/2013  14:44:00      130.036     -181.490       -5.684       60.971       68.237       56.057     3717.446     4656.264     3142.395        3.070        0.576      223.266       38.411        0.030      336.644        8.081      863.621
11/23/2013  14:45:00      102.642     -156.015      -18.923       49.657       51.806       39.121     2465.822     2683.912     1530.473        2.096        0.334      186.751       32.497        0.030      336.598        8.007      863.638
11/23/2013  14:46:00       27.939      -28.615       36.657       30.991       49.267       25.047      960.430     2427.279      627.336        0.348        0.201       39.993       23.990        0.360      336.956        8.605      863.654
11/23/2013  14:47:00       42.966      -35.580       32.077       60.083       55.069       40.679     3609.911     3032.560     1654.749        0.622        0.415       55.785       41.077        0.542      336.970        8.628      863.651
11/23/2013  14:48:00       23.821       30.424       46.993       48.363       58.065       25.885     2338.940     3371.498      670.029        0.504        0.319       38.640       32.562        0.710      336.835        8.404      863.643
11/23/2013  14:49:00       22.540       30.555       27.655       43.301       39.470       35.394     1874.974     1557.851     1252.758        0.345        0.234       37.970       25.636        0.456      336.936        8.573      863.640
11/23/2013  14:50:00       15.112      -19.741       33.201       41.820       59.556       44.840     1748.895     3546.886     2010.663        0.451        0.365       24.861       43.186        3.018      337.060        8.779      863.646
11/23/2013  14:51:00       68.980      -15.244       55.338       70.562      117.906       72.938     4978.987    13901.788     5319.922        1.612        1.210       70.645       88.752        1.578      336.776        8.304      863.652
11/23/2013  14:52:00      100.132     -141.740      -11.829       60.613      122.116       40.941     3673.905    14912.341     1676.172        2.526        1.013      173.542       53.739        0.096      336.824        8.383      863.652
11/23/2013  14:53:00       68.625       -6.427        7.706       60.603       51.556       45.547     3672.756     2658.066     2074.500        0.661        0.420       68.925       35.621        0.267      336.833        8.399      863.663
11/23/2013  14:54:00       38.583       12.016       47.454       40.371       57.675       34.342     1629.793     3326.404     1179.394        0.501        0.307       40.411       27.155        0.452      336.960        8.613      863.670
11/23/2013  14:55:00       -7.891       30.638       82.296       24.387       59.042       45.199      594.733     3485.941     2042.987        0.695        0.306       31.638       42.823        1.832      337.058        8.776      863.671
11/23/2013  14:56:00       57.398      -52.027       19.139       54.816       94.763       58.775     3004.753     8979.972     3454.552        1.090        0.772       77.468       68.839        0.790      336.867        8.457      863.652
11/23/2013  14:57:00       87.933       84.187      102.831       77.443       66.660       51.272     5997.482     4443.506     2628.767        1.923        0.653      121.736       40.418        0.110      336.756        8.270      863.639
11/23/2013  14:58:00       88.953      -91.989       27.901       99.070      116.857       49.541     9814.929    13655.637     2454.261        2.153        1.296      127.964       58.861        0.212      336.852        8.430      863.623
11/23/2013  14:59:00       99.012      -52.164       11.088       88.556      104.512       45.591     7842.086    10922.848     2078.581        1.674        1.042      111.913       54.563        0.238      336.864        8.450      863.599
11/23/2013  15:00:00       53.177        2.145       20.937      110.556       76.678       60.191    12222.540     5879.541     3623.011        1.249        1.086       53.221       54.684        1.056      336.887        8.491      863.604
11/23/2013  15:01:00       62.755     -103.415       15.503       56.640      125.284       57.859     3208.050    15696.150     3347.619        1.856        1.113      120.966       54.625        0.204      336.786        8.322      863.602
11/23/2013  15:02:00       55.898      -59.783        9.443       49.766       79.009       43.761     2476.703     6242.419     1915.061        0.871        0.532       81.845       42.900        0.275      336.927        8.557      863.596
11/23/2013  15:03:00       -7.142       -3.626      -10.390       16.883       36.537       19.935      285.051     1334.954      397.424        0.109        0.101        8.010       16.629        4.310      336.857        8.440      863.596
11/23/2013  15:04:00      -21.916       18.280       -6.373       66.249       25.570       25.709     4388.932      653.819      660.976        0.328        0.285       28.539       14.682        0.265      337.034        8.734      863.599
11/23/2013  15:05:00      -64.315      -14.746      -12.885       27.624       34.610       18.676      763.091     1197.835      348.789        0.341        0.115       65.983       11.592        0.031      337.116        8.874      863.608
11/23/2013  15:06:00       52.003       35.144       48.997       39.823       51.519       34.808     1585.849     2654.160     1211.628        0.589        0.273       62.765       33.214        0.280      336.932        8.566      863.596
11/23/2013  15:07:00       24.324      -20.415       30.507       54.157       96.943       53.345     2933.003     9397.945     2845.729        0.855        0.759       31.756       52.578        2.741      336.899        8.510      863.585
11/23/2013  15:08:00       59.770      -58.751       21.185       62.492       68.905       43.429     3905.246     4747.896     1886.088        0.900        0.527       83.810       49.871        0.354      336.828        8.392      863.590
11/23/2013  15:09:00       41.120       55.656       56.508       35.147       33.874       31.737     1235.308     1147.433     1007.222        0.569        0.169       69.199       30.705        0.197      336.891        8.495      863.595
11/23/2013  15:10:00       31.457       35.149       74.594       55.990       51.659       37.704     3134.915     2668.670     1421.612        0.751        0.361       47.170       40.583        0.740      337.076        8.805      863.597
11/23/2013  15:11:00       42.319       22.732       42.357       53.540       53.386       41.400     2866.520     2850.085     1713.968        0.576        0.372       48.038       30.427        0.401      337.022        8.714      863.599
11/23/2013  15:12:00       29.934      -13.930       17.161       51.898       61.053       31.092     2693.377     3727.514      966.702        0.438        0.369       33.016       16.345        0.245      336.952        8.597      863.590
11/23/2013  15:13:00       12.602       30.210       60.352       44.423       60.442       37.791     1973.375     3653.183     1428.129        0.588        0.353       32.733       34.792        1.130      337.042        8.749      863.579
11/23/2013  15:14:00      112.922       70.720       39.876       66.810       38.741       45.382     4463.541     1500.899     2059.482        1.368        0.401      133.239       39.969        0.090      336.691        8.163      863.580
11/23/2013  15:15:00      119.928       36.894       20.250       51.621       51.063       32.868     2664.744     2607.462     1080.324        1.125        0.318      125.474       21.915        0.031      336.646        8.089      863.576
11/23/2013  15:16:00       56.776       26.630        7.753       63.685       37.502       30.107     4055.737     1406.426      906.459        0.518        0.318       62.711       28.092        0.201      336.734        8.235      863.572
11/23/2013  15:17:00       37.454       23.872       16.131       56.627       51.619       27.957     3206.661     2664.533      781.606        0.444        0.333       44.415       22.460        0.256      336.759        8.276      863.580
11/23/2013  15:18:00        4.133        2.021       45.491       31.141       96.377       46.030      969.789     9288.500     2118.766        0.723        0.619        4.601       54.016      137.841      336.907        8.524      863.591
11/23/2013  15:19:00       56.134      -36.816       24.539       47.455       87.024       45.663     2251.938     7573.257     2085.122        0.851        0.596       67.130       47.497        0.501      336.774        8.302      863.612
11/23/2013  15:20:00       34.508       25.915       43.318       43.881       45.410       28.779     1925.514     2062.031      828.216        0.428        0.241       43.156       28.448        0.435      336.787        8.324      863.624
11/23/2013  15:21:00       39.729       34.997       39.846       29.865       30.788       19.335      891.917      947.907      373.848        0.330        0.111       52.945       13.153        0.062      336.725        8.222      863.634
11/23/2013  15:22:00       22.054      -78.098       -2.051       45.013       35.128       30.064     2026.132     1233.990      903.816        0.538        0.208       81.152       19.119        0.056      337.010        8.695      863.641
11/23/2013  15:23:00       83.898     -106.682       -5.809       74.595       71.795       41.764     5564.385     5154.510     1744.231        1.546        0.623      135.720       48.119        0.126      336.732        8.230      863.660
11/23/2013  15:24:00        3.712       35.507       54.959       31.932       37.774       28.480     1019.670     1426.867      811.104        0.378        0.163       35.701       29.734        0.694      336.777        8.305      863.670
11/23/2013  15:25:00       16.849      -32.344       21.792       22.289       52.087       23.607      496.821     2713.103      557.289        0.279        0.188       36.469       23.621        0.420      337.000        8.679      863.678
11/23/2013  15:26:00      -33.330      -45.911        4.532       49.777       41.301       26.293     2477.745     1705.784      691.346        0.406        0.244       56.733       24.142        0.181      337.018        8.709      863.687
11/23/2013  15:27:00       14.530       -9.364       12.051       36.284       31.547       25.752     1316.515      995.234      663.144        0.171        0.149       17.286       18.046        1.090      337.054        8.769      863.698
11/23/2013  15:28:00       21.390       14.535       63.556       63.046       73.215       59.820     3974.795     5360.402     3578.462        0.881        0.646       25.861       58.656        5.144      336.929        8.559      863.706
11/23/2013  15:29:00       76.371      -95.283       10.693       58.310       88.000       48.294     3400.091     7743.956     2332.287        1.425        0.674      122.112       59.691        0.239      336.842        8.413      863.706
11/23/2013  15:30:00       52.459       54.743       69.619       46.944       39.191       44.509     2203.715     1535.941     1981.015        0.816        0.286       75.821       30.027        0.157      336.801        8.347      863.701
11/23/2013  15:31:00       79.534       63.354       17.786       29.368       23.545       37.441      862.462      554.356     1401.850        0.674        0.141      101.683       25.856        0.065      336.596        8.006      863.700
11/23/2013  15:32:00        6.195       18.232        5.464       17.498       19.029       16.384      306.170      362.087      268.440        0.067        0.047       19.256       11.075        0.331      336.758        8.277      863.680
11/23/2013  15:33:00       11.259       23.353       -2.004       26.255       31.563       13.470      689.303      996.196      181.434        0.127        0.093       25.925       16.231        0.392      336.664        8.119      863.670
11/23/2013  15:34:00        3.920       66.185       -7.824       18.858       30.436       13.697      355.643      926.326      187.602        0.296        0.073       66.301       15.509        0.055      336.659        8.111      863.678
11/23/2013  15:35:00        4.644      -24.670       12.349       19.318       30.669       20.410      373.194      940.597      416.562        0.126        0.087       25.103       11.476        0.209      336.887        8.491      863.682
11/23/2013  15:36:00       44.097      -33.575        3.337       39.569       32.070       27.550     1565.745     1028.466      759.008        0.322        0.168       55.425       23.872        0.186      336.917        8.540      863.690
11/23/2013  15:37:00       72.995      -46.895       27.175       59.078       62.005       41.824     3490.245     3844.597     1749.257        0.867        0.454       86.760       44.615        0.264      336.851        8.430      863.694
11/23/2013  15:38:00       68.379      -14.363       29.872       52.410       76.376       40.141     2746.788     5833.238     1611.300        0.798        0.510       69.871       33.738        0.233      336.782        8.316      863.681
11/23/2013  15:39:00       80.155       35.560       41.010       70.526       67.633       32.638     4973.870     4574.172     1065.210        0.999        0.531       87.689       21.258        0.059      336.709        8.193      863.676
11/23/2013  15:40:00       33.801       49.738       57.535       50.633       65.746       36.332     2563.744     4322.539     1320.046        0.756        0.410       60.136       37.555        0.390      336.762        8.283      863.663
11/23/2013  15:41:00       -7.335       29.182       54.093       21.830       46.579       47.862      476.541     2169.567     2290.761        0.438        0.247       30.089       43.414        2.082      336.879        8.477      863.664
11/23/2013  15:42:00       41.863      -34.956       31.812       68.354      102.036       73.096     4672.215    10411.416     5342.994        1.220        1.021       54.538       68.353        1.571      336.817        8.373      863.667
11/23/2013  15:43:00       99.611     -104.637      -10.173       47.519       77.433       39.278     2258.066     5995.942     1542.728        1.538        0.490      144.469       37.350        0.067      336.692        8.164      863.701
11/23/2013  15:44:00       77.768     -137.929      -16.019       44.186       39.428       29.853     1952.430     1554.587      891.211        1.486        0.220      158.343       24.394        0.024      336.737        8.239      863.725
11/23/2013  15:45:00      -12.453      -74.031       -9.644       89.497       43.664       26.739     8009.624     1906.543      714.966        0.818        0.532       75.071       26.105        0.121      336.780        8.312      863.731
11/23/2013  15:46:00        3.252      -30.806       -6.614       58.633       42.212       24.489     3437.775     1781.830      599.692        0.341        0.291       30.977       29.439        0.903      336.869        8.461      863.738
11/23/2013  15:47:00       63.021      -86.915      -15.200       33.559       54.390       25.617     1126.190     2958.264      656.227        0.825        0.237      107.358       18.067        0.028      336.774        8.301      863.747
11/23/2013  15:48:00       58.474      -45.054       23.807       52.883       80.496       49.157     2796.632     6479.646     2416.406        0.885        0.585       73.818       50.504        0.468      336.795        8.337      863.744
11/23/2013  15:49:00      121.062     -135.798      -17.952       76.972       88.260       52.113     5924.689     7789.767     2715.744        2.492        0.822      181.926       47.967        0.070      336.662        8.113      863.737
11/23/2013  15:50:00      138.302     -120.889      -10.554       91.755       58.351       41.807     8419.068     3404.870     1747.819        2.371        0.679      183.689       35.066        0.036      336.693        8.164      863.731
11/23/2013  15:51:00       36.562       13.928       44.120       45.382       78.017       32.716     2059.535     6086.683     1070.327        0.635        0.461       39.125       32.341        0.683      336.638        8.075      863.728
11/23/2013  15:52:00       53.482       82.204       83.610       43.064       38.777       29.139     1854.542     1503.651      849.096        1.041        0.210       98.070       21.157        0.047      336.609        8.026      863.733
11/23/2013  15:53:00      105.640       35.100       29.925       73.639       42.972       45.036     5422.708     1846.604     2028.263        1.129        0.465      111.319       40.456        0.132      336.575        7.969      863.727
11/23/2013  15:54:00      116.503       37.871       21.630       56.536       44.793       41.477     3196.304     2006.414     1720.330        1.120        0.346      122.504       26.477        0.047      336.577        7.972      863.733
11/23/2013  15:55:00       67.140       51.902       16.620       30.756       22.465       21.690      945.958      504.659      470.442        0.470        0.096       84.862       17.916        0.045      336.520        7.878      863.736
11/23/2013  15:56:00       16.631       65.207       -6.561       27.743       32.334       19.543      769.699     1045.494      381.919        0.338        0.110       67.295       19.794        0.087      336.602        8.013      863.725
11/23/2013  15:57:00        7.932       53.859       -2.131       16.398       29.392       13.953      268.892      863.886      194.677        0.215        0.066       54.440       13.131        0.058      336.557        7.940      863.727
11/23/2013  15:58:00       22.621       22.402       24.596       16.522       17.509       17.560      272.987      306.553      308.358        0.125        0.044       31.836        4.835        0.023      336.542        7.913      863.738
11/23/2013  15:59:00        2.848      -23.202       26.303       20.329       33.129       23.139      413.254     1097.517      535.401        0.164        0.102       23.376       22.380        0.917      336.794        8.337      863.726
11/23/2013  16:00:00        3.256      -38.177       15.083       21.479       37.422       20.953      461.352     1400.396      439.027        0.200        0.115       38.316       16.299        0.181      336.767        8.292      863.709
11/23/2013  16:01:00       13.831       -4.561       12.590       35.619       25.920       27.815     1268.733      671.826      773.658        0.154        0.136       14.563       20.543        1.990      336.715        8.203      863.700
11/23/2013  16:02:00       99.780      -85.710       -6.321       87.231       66.906       34.678     7609.185     4476.377     1202.594        1.531        0.664      131.538       41.696        0.100      336.689        8.159      863.692
11/23/2013  16:03:00       86.799      -80.224       -3.415       67.376      109.144       49.935     4539.469    11912.439     2493.552        1.646        0.947      118.195       69.042        0.341      336.605        8.019      863.689
11/23/2013  16:04:00       -9.220       43.411       81.812       23.803       41.066       21.489      566.600     1686.396      461.798        0.569        0.136       44.379       22.717        0.262      336.593        8.000      863.692
11/23/2013  16:05:00      -21.383        4.560       17.562       23.858       31.064       23.232      569.217      964.955      539.713        0.143        0.104       21.864       18.146        0.689      336.726        8.222      863.685
11/23/2013  16:06:00      -36.773       -8.436       10.813       46.905       31.231       22.133     2200.088      975.353      489.884        0.260        0.183       37.728       24.699        0.429      336.740        8.244      863.679
11/23/2013  16:07:00       -9.617      -53.521       -1.085       28.354       26.163       26.951      803.949      684.489      726.339        0.259        0.111       54.378       16.686        0.094      336.805        8.354      863.678
11/23/2013  16:08:00       21.660      -84.084       -6.250       50.728       43.727       28.269     2573.310     1912.077      799.113        0.643        0.264       86.829       25.090        0.083      336.800        8.347      863.687
11/23/2013  16:09:00       38.317      -29.282       38.279       59.576       52.193       39.480     3549.285     2724.088     1558.669        0.581        0.392       48.225       47.724        0.979      336.648        8.092      863.684
11/23/2013  16:10:00        3.481       31.900       55.293       26.679       29.772       29.557      711.788      886.398      873.626        0.328        0.124       32.089       28.762        0.803      336.653        8.101      863.681
11/23/2013  16:11:00       14.057      -17.709       -0.120       26.642       26.954       20.143      709.821      726.498      405.751        0.118        0.092       22.610       16.743        0.548      336.678        8.143      863.675
11/23/2013  16:12:00      -17.555       11.399       -2.077       24.846       20.900       15.108      617.329      436.795      228.259        0.086        0.064       20.931       11.356        0.294      336.710        8.195      863.675
11/23/2013  16:13:00      -19.570      -17.652       -3.794       14.851       25.528       12.290      220.554      651.682      151.050        0.087        0.051       26.355        5.807        0.049      336.730        8.231      863.671
11/23/2013  16:14:00       -8.451        2.079        2.479       20.809       12.150       13.778      433.031      147.627      189.840        0.043        0.039        8.703       12.641        2.110      336.679        8.143      863.661
11/23/2013  16:15:00        6.561      -11.471      -13.688       30.199       26.602       15.733      911.997      707.683      247.541        0.111        0.093       13.215       10.925        0.683      336.774        8.302      863.655
11/23/2013  16:16:00      -11.908        8.069        5.777       65.050       36.168       23.075     4231.488     1308.092      532.465        0.315        0.304       14.384       16.894        1.379      336.633        8.068      863.644
11/23/2013  16:17:00      -38.866       -8.770        7.492       18.625       26.454       18.548      346.885      699.840      344.022        0.152        0.070       39.843       11.149        0.078      336.656        8.106      863.642
11/23/2013  16:18:00      -27.080      -15.275        9.779       17.170       18.208       14.466      294.813      331.538      209.277        0.095        0.042       31.091        7.608        0.060      336.688        8.159      863.640
11/23/2013  16:19:00       17.357      -38.790       -0.686       26.456       50.539       21.407      699.940     2554.155      458.278        0.276        0.186       42.496       15.062        0.126      336.607        8.023      863.642
11/23/2013  16:20:00       38.966      -64.489       -0.509       40.317       37.508       15.135     1625.426     1406.825      229.065        0.447        0.163       75.347       12.496        0.028      336.623        8.050      863.647
11/23/2013  16:21:00       20.671      -17.158        9.822       28.104       31.993       23.095      789.850     1023.553      533.386        0.158        0.117       26.865       25.968        0.934      336.533        7.899      863.657
11/23/2013  16:22:00       16.168      -11.636       18.488       21.091       27.993       21.026      444.822      783.632      442.113        0.120        0.084       19.920       17.897        0.807      336.439        7.741      863.655
11/23/2013  16:23:00      -17.424      -20.475       -0.669       32.840       20.401       12.900     1078.443      416.199      166.406        0.119        0.083       26.886        8.430        0.098      336.493        7.833      863.647
11/23/2013  16:24:00       -4.116       12.617        2.941       13.277       21.384       18.328      176.281      457.260      335.923        0.058        0.048       13.271       15.784        1.414      336.487        7.821      863.639
11/23/2013  16:25:00      -11.332       -0.379       29.225       17.816       27.176       23.597      317.402      738.555      556.842        0.130        0.081       11.338       23.459        4.281      336.423        7.714      863.633
11/23/2013  16:26:00       22.951      -32.542       10.726       29.608       57.694       23.363      876.605     3328.594      545.835        0.322        0.238       39.821       28.026        0.495      336.439        7.742      863.631
11/23/2013  16:27:00       -3.268        2.731       35.826       21.992       28.128       19.024      483.648      791.180      361.923        0.147        0.082        4.259       15.084       12.544      336.356        7.603      863.620
11/23/2013  16:28:00       11.395      -57.460       -1.401       46.728       57.666       29.277     2183.467     3325.413      857.152        0.490        0.318       58.579       31.715        0.293      336.590        7.995      863.623
11/23/2013  16:29:00       51.732      -37.948       14.418       44.060       37.498       37.500     1941.269     1406.104     1406.275        0.454        0.238       64.158       26.331        0.168      336.512        7.864      863.598
11/23/2013  16:30:00        7.540        7.730       30.551       29.943       34.919       23.290      896.572     1219.340      542.405        0.185        0.133       10.798       20.006        3.433      336.328        7.556      863.581
11/23/2013  16:31:00        1.499       18.605       41.678       26.874       46.313       34.176      722.186     2144.921     1167.968        0.306        0.202       18.666       37.856        4.113      336.334        7.566      863.577
11/23/2013  16:32:00       -8.866       28.637       52.524       11.956       23.925       18.973      142.943      572.427      359.978        0.237        0.054       29.978       17.041        0.323      336.320        7.542      863.580
11/23/2013  16:33:00        2.907       13.289       27.930       20.618       30.027       25.863      425.087      901.639      668.892        0.148        0.100       13.603       20.343        2.236      336.354        7.598      863.592
11/23/2013  16:34:00      -15.158      -20.498       21.268       25.356       19.293       18.141      642.925      372.215      329.113        0.122        0.067       25.493       14.745        0.335      336.306        7.518      863.585
11/23/2013  16:35:00       -8.270       29.736       41.561       18.879       26.472       22.397      356.400      700.790      501.621        0.212        0.078       30.865       16.856        0.298      336.248        7.423      863.573
11/23/2013  16:36:00       28.249      -18.551       10.269       32.434       42.169       25.255     1051.959     1778.212      637.798        0.236        0.173       33.796       24.113        0.509      336.327        7.553      863.561
11/23/2013  16:37:00        6.432       -1.681       36.088       46.567       42.776       35.111     2168.472     1829.744     1232.750        0.329        0.262        6.648       37.784       32.304      336.337        7.571      863.548
11/23/2013  16:38:00        3.365       -9.667       11.251       32.896       19.991       17.067     1082.177      399.653      291.287        0.100        0.089       10.236       17.941        3.072      336.323        7.547      863.556
11/23/2013  16:39:00       -0.570       -7.567       23.369       23.529       22.177       18.649      553.632      491.806      347.800        0.100        0.070        7.588       14.343        3.573      336.224        7.382      863.552
11/23/2013  16:40:00      -16.564        4.443       15.864       13.458       22.207       16.808      181.115      493.157      282.523        0.075        0.048       17.149       14.663        0.731      336.241        7.412      863.558
11/23/2013  16:41:00       21.140       -7.189       15.767       40.731       35.414       26.615     1659.001     1254.166      708.366        0.218        0.181       22.329       22.535        1.019      336.332        7.562      863.556
11/23/2013  16:42:00       -8.308       14.376       29.300       13.849       19.097       12.495      191.784      364.710      156.137        0.092        0.036       16.604        6.333        0.145      336.104        7.182      863.565
11/23/2013  16:43:00      -10.884       11.859       24.131       10.774       21.138       18.015      116.074      446.826      324.550        0.086        0.044       16.097       18.087        1.263      336.143        7.246      863.559
11/23/2013  16:44:00       -6.380        1.057        4.676        7.855       13.202       11.229       61.698      174.304      126.088        0.021        0.018        6.467        6.912        1.142      336.185        7.315      863.552
11/23/2013  16:45:00       51.526      -29.646        4.501       55.321       48.847       23.512     3060.421     2386.013      552.819        0.478        0.300       59.446       32.782        0.304      336.207        7.355      863.540
11/23/2013  16:46:00       58.798      -43.310        0.464       38.966       37.024       26.804     1518.380     1370.741      718.439        0.447        0.180       73.027       25.316        0.120      336.316        7.535      863.528
11/23/2013  16:47:00       13.276      -27.439       21.436       44.050       46.517       24.073     1940.422     2163.873      579.521        0.304        0.234       30.482       32.463        1.134      336.242        7.412      863.522
11/23/2013  16:48:00       -8.003       29.457       35.884       15.632       19.584       12.713      244.373      383.530      161.617        0.150        0.039       30.524        7.920        0.067      336.197        7.336      863.523
11/23/2013  16:49:00      -23.452        6.780        6.092       15.862       27.276       18.142      251.602      743.996      329.129        0.098        0.066       24.412       16.858        0.477      336.178        7.306      863.521
11/23/2013  16:50:00       -7.409      -11.007       12.469       25.264       22.326       19.945      638.246      498.443      397.822        0.093        0.077       13.268       14.642        1.218      336.237        7.404      863.516
11/23/2013  16:51:00      -14.012       15.984       24.326       16.796       25.083       21.421      282.097      629.168      458.855        0.121        0.069       21.257       17.760        0.698      336.067        7.120      863.518
11/23/2013  16:52:00      -12.908       14.452       29.673        9.811       13.757       10.825       96.259      189.242      117.179        0.083        0.020       19.377        8.554        0.195      336.084        7.146      863.515
11/23/2013  16:53:00       11.931        3.612       17.077       27.655       17.799       17.471      764.810      316.818      305.240        0.092        0.069       12.466       18.544        2.213      336.128        7.221      863.500
11/23/2013  16:54:00      -29.451       12.231       20.167       27.392       16.520       14.688      750.340      272.909      215.725        0.133        0.062       31.890       14.246        0.200      336.064        7.114      863.471
11/23/2013  16:55:00      -10.577       -2.395        7.004       19.006        9.155       16.100      361.228       83.823      259.203        0.044        0.035       10.845       13.497        1.549      336.037        7.069      863.456
11/23/2013  16:56:00      -41.514        3.033       -0.433       36.499       20.105       18.695     1332.167      404.231      349.507        0.191        0.104       41.625       18.775        0.203      336.171        7.294      863.453
11/23/2013  16:57:00      -20.775       -9.278        6.709       26.444       21.154       17.314      699.299      447.495      299.780        0.100        0.072       22.753       15.405        0.458      335.936        6.901      863.460
11/23/2013  16:58:00      -53.754      -24.617       -4.452       15.669       13.859        9.987      245.533      192.066       99.747        0.203        0.027       59.123        4.191        0.005      335.815        6.701      863.470
11/23/2013  16:59:00      -41.492        0.514        7.956       28.441       21.463       14.583      808.890      460.661      212.653        0.163        0.074       41.496       17.555        0.179      335.708        6.524      863.486
11/23/2013  17:00:00      -91.132       -8.143       -5.556       23.900       16.757       10.816      571.219      280.804      116.977        0.469        0.048       91.496       11.113        0.015      335.740        6.577      863.506
11/23/2013  17:01:00      -73.029      -13.124       -3.962       26.406       19.854       13.711      697.298      394.186      188.005        0.340        0.064       74.199       12.358        0.028      335.551        6.260      863.520
11/23/2013  17:02:00      -65.762       -8.604       -3.284       24.288       20.514       14.753      589.907      420.837      217.657        0.282        0.061       66.323       13.729        0.043      335.373        5.962      863.526
11/23/2013  17:03:00      -63.595      -20.899       -1.670       26.775       15.348       13.411      716.876      235.575      179.848        0.281        0.057       66.941       15.486        0.054      335.285        5.817      863.520
11/23/2013  17:04:00      -83.600       -6.699       -6.495       24.393       15.872       11.305      595.031      251.935      127.811        0.403        0.049       83.868       10.385        0.015      335.272        5.794      863.510
11/23/2013  17:05:00      -37.420      -16.276        6.399       31.731       20.537       17.085     1006.869      421.785      291.904        0.171        0.086       40.807       15.847        0.151      335.214        5.699      863.513
11/23/2013  17:06:00      -28.846      -10.804        5.648       30.753       17.690       15.086      945.757      312.921      227.595        0.123        0.074       30.803        6.901        0.050      335.199        5.674      863.517
11/23/2013  17:07:00      -65.690      -14.692        3.297       30.552       21.407       16.113      933.444      458.246      259.618        0.310        0.083       67.313       11.879        0.031      335.093        5.497      863.510
11/23/2013  17:08:00      -61.395      -26.928       -7.783       18.339       17.458       10.601      336.331      304.789      112.377        0.265        0.038       67.041        8.115        0.015      334.991        5.330      863.500
11/23/2013  17:09:00      -45.088      -17.777       -4.498       22.998       24.962       12.049      528.900      623.078      145.187        0.183        0.065       48.466       10.758        0.049      334.853        5.099      863.493
11/23/2013  17:10:00      -18.647      -18.847        2.297       32.523       22.489       18.824     1057.717      505.756      354.345        0.131        0.096       26.512       10.660        0.162      334.787        4.989      863.489
11/23/2013  17:11:00      -29.046       14.048       -7.088       26.584       33.866       16.843      706.723     1146.902      283.697        0.161        0.107       32.265       15.016        0.217      335.090        5.493      863.498
11/23/2013  17:12:00      -33.344       15.548       -4.011       29.402       30.667       18.039      864.498      940.459      325.416        0.175        0.107       36.791       16.700        0.206      335.129        5.559      863.522
11/23/2013  17:13:00      -67.182        5.834      -12.977       24.813       24.119       14.011      615.698      581.711      196.313        0.305        0.070       67.435       11.887        0.031      334.964        5.284      863.535
11/23/2013  17:14:00     -101.780      -23.733      -22.464       13.744       15.160       14.451      188.889      229.834      208.818        0.603        0.031      104.510        5.691        0.003      334.741        4.913      863.544
11/23/2013  17:15:00     -114.773      -41.390      -15.227       26.940       26.778       20.814      725.783      717.054      433.214        0.850        0.094      122.008       16.059        0.017      334.693        4.834      863.558
11/23/2013  17:16:00     -119.841      -40.526      -13.888       23.935       27.967       18.038      572.883      782.162      325.386        0.894        0.084      126.508        3.903        0.001      334.644        4.752      863.567
11/23/2013  17:17:00      -98.884      -37.859      -16.859       26.207       20.589       14.700      686.832      423.918      216.095        0.641        0.066      105.884       10.326        0.010      334.573        4.634      863.583
11/23/2013  17:18:00     -107.276      -24.892      -23.141       34.294       21.651       18.226     1176.103      468.776      332.174        0.732        0.099      110.126       14.045        0.016      334.559        4.610      863.582
11/23/2013  17:19:00     -137.426      -46.320      -10.943       29.826       35.222       19.572      889.562     1240.610      383.067        1.183        0.126      145.022       15.318        0.011      334.608        4.692      863.568
11/23/2013  17:20:00     -110.954      -20.925       -6.713       52.500       41.502       24.034     2756.253     1722.420      577.634        0.892        0.253      112.910       20.485        0.033      334.628        4.725      863.564
11/23/2013  17:21:00      -68.182      -10.582       -0.239       40.529       37.977       21.019     1642.593     1442.267      441.802        0.414        0.176       68.999       20.144        0.085      334.621        4.713      863.562
11/23/2013  17:22:00      -78.202      -11.901        0.498       49.103       47.761       26.837     2411.092     2281.118      720.225        0.583        0.271       79.103       26.377        0.111      334.623        4.718      863.563
11/23/2013  17:23:00     -103.236        2.377      -12.945       52.505       35.965       20.325     2756.806     1293.500      413.114        0.765        0.223      103.264       23.687        0.053      334.568        4.625      863.569
11/23/2013  17:24:00     -120.753       17.778      -14.247       43.839       34.470       21.743     1921.892     1188.161      472.755        0.934        0.179      122.054       18.551        0.023      334.657        4.773      863.575
11/23/2013  17:25:00     -128.265       22.187       -6.281       60.004       26.983       21.915     3600.458      728.089      480.258        1.090        0.240      130.170       22.737        0.031      334.646        4.756      863.584
11/23/2013  17:26:00     -120.839        6.578      -11.451       47.545       33.548       19.119     2260.509     1125.493      365.520        0.926        0.188      121.018       15.849        0.017      334.577        4.641      863.586
11/23/2013  17:27:00      -98.846       -2.677      -13.145       52.271       37.347       21.566     2732.253     1394.798      465.082        0.727        0.230       98.882       18.745        0.036      334.513        4.535      863.589
11/23/2013  17:28:00     -111.792        9.213      -13.621       38.494       35.344       23.482     1481.799     1249.191      551.404        0.802        0.164      112.171       19.151        0.029      334.535        4.573      863.591
11/23/2013  17:29:00      -82.954       -2.292      -10.263       28.182       30.831       18.672      794.245      950.577      348.647        0.454        0.105       82.986       15.357        0.034      334.521        4.547      863.595
11/23/2013  17:30:00     -113.799      -32.382       -9.865       28.306       26.185       19.097      801.223      685.657      364.707        0.797        0.093      118.317        8.285        0.005      334.316        4.209      863.587
11/23/2013  17:31:00     -107.870      -44.865      -13.817       30.278       33.260       20.884      916.734     1106.196      436.140        0.815        0.123      116.828        9.245        0.006      334.284        4.155      863.584
11/23/2013  17:32:00     -115.262      -44.048       -9.145       29.273       37.111       20.179      856.892     1377.229      407.212        0.897        0.132      123.391       15.081        0.015      334.162        3.953      863.570
11/23/2013  17:33:00     -109.829      -45.012      -11.518       43.248       50.206       24.745     1870.419     2520.671      612.296        0.961        0.250      118.695       20.350        0.029      334.185        3.991      863.575
11/23/2013  17:34:00     -147.617        7.721      -16.494       56.482       42.815       22.834     3190.206     1833.094      521.389        1.383        0.277      147.819       16.669        0.013      334.228        4.062      863.584
11/23/2013  17:35:00     -181.385       33.082      -23.879       48.703       47.098       26.423     2371.969     2218.183      698.180        1.993        0.264      184.377       23.690        0.017      334.204        4.021      863.589
11/23/2013  17:36:00     -152.362       17.057      -10.285       56.799       51.060       23.170     3226.106     2607.146      536.859        1.499        0.319      153.314       21.005        0.019      334.204        4.021      863.595
11/23/2013  17:37:00     -131.891       13.924      -13.041       42.455       43.945       24.276     1802.431     1931.179      589.313        1.104        0.216      132.624       13.840        0.011      334.161        3.950      863.604
11/23/2013  17:38:00     -147.184       21.310      -18.211       53.884       36.575       24.672     2903.436     1337.747      608.700        1.365        0.242      148.719       14.775        0.010      334.178        3.979      863.609
11/23/2013  17:39:00     -126.409      -11.555      -15.863       42.862       43.077       22.652     1837.131     1855.625      513.123        1.028        0.210      126.936       19.317        0.023      334.104        3.856      863.599
11/23/2013  17:40:00      -85.509      -25.214      -11.485       48.199       32.642       24.067     2323.141     1065.498      579.231        0.602        0.198       89.149       21.917        0.060      334.072        3.803      863.588
11/23/2013  17:41:00     -125.716      -18.717      -16.612       41.849       32.633       25.714     1751.309     1064.890      661.215        0.995        0.174      127.102       22.866        0.032      333.984        3.657      863.581
11/23/2013  17:42:00      -96.236       14.957      -14.632       41.192       48.738       26.084     1696.780     2375.421      680.399        0.722        0.238       97.391       14.617        0.023      334.105        3.858      863.584
11/23/2013  17:43:00      -97.953       10.165      -19.139       48.707       30.802       23.661     2372.344      948.737      559.821        0.697        0.194       98.479       18.492        0.035      334.040        3.749      863.589
11/23/2013  17:44:00      -71.490       -2.879       -4.201       39.555       32.419       25.582     1564.609     1050.988      654.414        0.420        0.164       71.548       13.052        0.033      334.054        3.772      863.589
11/23/2013  17:45:00     -118.936      -12.499       -8.443       54.742       36.263       27.125     2996.723     1315.034      735.786        0.971        0.252      119.591       27.624        0.053      333.994        3.675      863.579
11/23/2013  17:46:00     -111.734      -12.548      -10.853       50.269       34.606       23.227     2526.957     1197.592      539.514        0.851        0.213      112.436       22.999        0.042      333.982        3.655      863.572
11/23/2013  17:47:00     -105.554      -10.432       -7.324       51.704       33.482       25.590     2673.330     1121.052      654.850        0.788        0.222      106.068       28.367        0.072      333.921        3.554      863.558
11/23/2013  17:48:00      -75.764       -1.007      -14.256       44.203       42.016       22.109     1953.882     1765.386      488.794        0.508        0.210       75.770       19.803        0.068      333.980        3.651      863.550
11/23/2013  17:49:00      -79.410      -23.157      -15.191       48.713       32.490       16.497     2372.920     1055.592      272.139        0.539        0.185       82.717       13.676        0.027      333.996        3.679      863.541
11/23/2013  17:50:00      -50.504      -25.890       -6.525       48.988       36.453       16.904     2399.871     1328.795      285.741        0.364        0.201       56.754       11.876        0.044      333.898        3.515      863.537
11/23/2013  17:51:00      -69.672      -28.668       -7.578       34.252       41.593       19.356     1173.225     1729.952      374.650        0.451        0.164       75.340        4.964        0.004      333.909        3.535      863.532
11/23/2013  17:52:00      -85.674      -39.100       -7.961       23.343       34.907       21.531      544.886     1218.520      463.575        0.558        0.111       94.175       15.190        0.026      333.948        3.600      863.541
11/23/2013  17:53:00      -62.521      -33.323       -6.808       37.466       30.266       20.515     1403.731      916.002      420.852        0.390        0.137       70.847       12.679        0.032      333.997        3.679      863.538
11/23/2013  17:54:00      -42.827      -33.715        2.140       37.302       23.983       20.013     1391.460      575.189      400.505        0.267        0.118       54.506       11.778        0.047      333.982        3.656      863.530
11/23/2013  17:55:00      -89.877      -35.485      -14.806       33.556       36.495       18.303     1126.021     1331.883      334.987        0.617        0.140       96.628       15.577        0.026      333.976        3.644      863.528
11/23/2013  17:56:00      -79.099      -28.817       -5.929       27.633       31.937       17.340      763.600     1019.950      300.665        0.460        0.104       84.185       10.620        0.016      333.909        3.532      863.537
11/23/2013  17:57:00      -72.494      -38.127       -4.960       35.541       28.555       16.456     1263.188      815.395      270.796        0.454        0.117       81.909       13.339        0.027      333.910        3.536      863.549
11/23/2013  17:58:00      -45.980      -24.330        0.125       37.373       27.213       17.608     1396.747      740.537      310.031        0.258        0.122       52.021       13.023        0.063      333.892        3.505      863.567
11/23/2013  17:59:00      -75.226      -17.645       -6.561       30.426       31.302       24.384      925.732      979.784      594.599        0.426        0.125       77.267       22.339        0.084      333.909        3.534      863.593
11/23/2013  18:00:00      -62.489      -11.510       -6.262       36.141       22.320       16.421     1306.159      498.195      269.642        0.307        0.104       63.540       17.084        0.072      333.935        3.577      863.599
11/23/2013  18:01:00      -77.789      -25.487       -3.036       34.370       36.351       21.773     1181.300     1321.364      474.084        0.484        0.149       81.858       14.856        0.033      333.926        3.562      863.599
11/23/2013  18:02:00      -77.888       -9.592       -9.250       44.490       36.663       24.213     1979.376     1344.166      586.258        0.508        0.195       78.476       21.642        0.076      333.835        3.412      863.575
11/23/2013  18:03:00      -65.798       -3.284       -3.333       51.603       39.773       23.366     2662.825     1581.852      545.971        0.457        0.240       65.880       19.099        0.084      333.806        3.363      863.560
11/23/2013  18:04:00      -81.570      -14.516        1.991       45.285       40.847       31.656     2050.735     1668.454     1002.109        0.579        0.236       82.851       26.271        0.101      333.815        3.377      863.567
11/23/2013  18:05:00      -92.812       -3.758       -3.778       70.822       39.982       25.257     5015.707     1598.575      637.923        0.795        0.363       92.888       26.385        0.081      333.820        3.386      863.568
11/23/2013  18:06:00     -117.172        1.005      -11.498       47.266       40.059       23.777     2234.101     1604.726      565.352        0.913        0.220      117.177       12.704        0.012      333.842        3.422      863.574
11/23/2013  18:07:00     -103.517       -3.393      -14.839       52.481       29.390       26.089     2754.260      863.773      680.660        0.762        0.215      103.573       26.993        0.068      333.770        3.302      863.570
11/23/2013  18:08:00      -34.094        6.148       -4.166       33.249       22.729       20.561     1105.512      516.591      422.745        0.163        0.102       34.643       19.321        0.311      333.733        3.242      863.568
11/23/2013  18:09:00      -23.322        3.035       -9.300       28.572       19.653       17.158      816.362      386.241      294.410        0.107        0.075       23.519       16.154        0.472      333.789        3.334      863.554
11/23/2013  18:10:00      -16.728       -3.798       -2.675       26.513       21.476       13.851      702.943      461.212      191.860        0.083        0.068       17.153       11.027        0.413      333.788        3.333      863.543
11/23/2013  18:11:00      -71.797        0.812      -12.270       32.710       33.248       18.943     1069.943     1105.438      358.842        0.392        0.127       71.802       13.149        0.034      333.695        3.177      863.528
11/23/2013  18:12:00      -71.870       -3.058       -6.565       37.550       19.747       20.371     1410.005      389.938      414.958        0.372        0.111       71.935       16.575        0.053      333.757        3.281      863.506
11/23/2013  18:13:00      -80.539      -14.137       -9.751       44.129       43.477       22.577     1947.335     1890.280      509.706        0.556        0.217       81.771       20.731        0.064      333.778        3.316      863.502
11/23/2013  18:14:00      -88.422       -1.685      -15.968       36.184       44.220       24.711     1309.287     1955.451      610.617        0.597        0.194       88.438       19.235        0.047      333.802        3.355      863.508
11/23/2013  18:15:00     -147.196       11.757      -14.730       52.782       40.479       31.892     2785.963     1638.576     1017.078        1.373        0.272      147.665       28.995        0.039      333.772        3.305      863.520
11/23/2013  18:16:00     -143.976       12.670      -18.768       63.306       36.771       20.985     4007.604     1352.134      440.387        1.352        0.290      144.532       19.912        0.019      333.758        3.282      863.515
11/23/2013  18:17:00     -153.038        9.684      -12.961       46.703       33.472       26.751     2181.172     1120.371      715.600        1.385        0.201      153.344       15.414        0.010      333.750        3.269      863.535
11/23/2013  18:18:00     -154.477        3.117      -19.023       42.158       34.211       27.775     1777.281     1170.367      771.443        1.398        0.186      154.509       25.493        0.027      333.725        3.228      863.537
11/23/2013  18:19:00     -158.330       13.594      -17.896       55.598       47.112       26.151     3091.190     2219.571      683.876        1.578        0.300      158.912       23.151        0.021      333.697        3.180      863.544
11/23/2013  18:20:00     -120.452      -10.584      -13.946       31.093       30.194       22.223      966.760      911.706      493.879        0.859        0.119      120.916       13.902        0.013      333.671        3.137      863.554
11/23/2013  18:21:00     -106.275      -23.994      -13.792       41.244       31.034       24.986     1701.058      963.100      624.315        0.767        0.164      108.950       16.056        0.022      333.621        3.056      863.579
11/23/2013  18:22:00     -100.276      -24.035       -7.553       36.562       35.787       21.459     1336.760     1280.727      460.504        0.688        0.154      103.117       13.928        0.018      333.583        2.993      863.587
11/23/2013  18:23:00      -62.522      -29.897      -13.876       40.039       27.469       20.407     1603.106      754.524      416.430        0.388        0.139       69.302       15.376        0.049      333.622        3.058      863.614
11/23/2013  18:24:00      -19.166      -34.690        5.584       46.066       22.038       18.665     2122.055      485.666      348.397        0.228        0.148       39.632       20.839        0.276      333.650        3.105      863.637
11/23/2013  18:25:00      -51.424        4.190      -11.659       35.066       30.769       10.806     1229.616      946.743      116.770        0.255        0.115       51.594       11.315        0.048      333.658        3.116      863.664
11/23/2013  18:26:00      -91.100        2.987       -7.510       27.503       26.178       17.929      756.412      685.311      321.463        0.506        0.088       91.149       12.890        0.020      333.629        3.068      863.679
11/23/2013  18:27:00     -106.171       -7.085      -18.676       27.851       19.252       17.316      775.699      370.629      299.834        0.656        0.072      106.407       13.271        0.016      333.844        3.424      863.690
11/23/2013  18:28:00      -70.641      -13.258      -11.256       25.039       18.501       14.459      626.933      342.280      209.070        0.324        0.059       71.874       12.249        0.029      333.692        3.175      863.694
11/23/2013  18:29:00     -103.351       -5.371      -14.376       25.107       18.592       14.626      630.356      345.668      213.907        0.605        0.059      103.491       10.012        0.009      333.658        3.117      863.701
11/23/2013  18:30:00      -87.097      -25.922      -13.407       16.072       16.848       13.482      258.314      283.854      181.776        0.458        0.036       90.872        9.859        0.012      333.657        3.114      863.689
11/23/2013  18:31:00      -68.288      -25.801       -3.877       13.859       19.473       12.161      192.064      379.179      147.883        0.303        0.036       73.000       10.274        0.020      333.697        3.180      863.681
11/23/2013  18:32:00      -27.491       -7.175       -0.718       15.818       11.984       10.177      250.200      143.611      103.568        0.065        0.025       28.412        7.117        0.063      333.605        3.029      863.679
11/23/2013  18:33:00      -10.997        2.010       -3.387       11.579        5.214        9.253      134.068       27.181       85.613        0.019        0.012       11.179        8.914        0.636      333.605        3.032      863.703
11/23/2013  18:34:00      -35.978       -8.023       -7.141        9.046        8.827        7.661       81.833       77.918       58.692        0.081        0.011       36.862        5.113        0.019      333.791        3.339      863.703
11/23/2013  18:35:00      -37.851       -9.842       -8.004        9.424        7.337        5.997       88.819       53.832       35.961        0.089        0.009       39.110        3.279        0.007      333.743        3.257      863.720
11/23/2013  18:36:00       -1.319      -20.059       -7.092       10.209        5.402        4.205      104.231       29.179       17.681        0.030        0.008       20.102        4.460        0.049      333.883        3.491      863.739
11/23/2013  18:37:00        9.589       -1.239        0.462       10.947       11.859        6.825      119.842      140.631       46.584        0.020        0.015        9.669        6.650        0.473      333.878        3.482      863.759
11/23/2013  18:38:00       23.553        5.730       11.168       19.715       14.793       12.043      388.699      218.845      145.030        0.073        0.038       24.240       12.982        0.287      333.841        3.421      863.776
11/23/2013  18:39:00       36.364       -2.552        5.786       14.759        9.453        8.576      217.835       89.351       73.541        0.087        0.019       36.454        9.010        0.061      334.159        3.948      863.775
11/23/2013  18:40:00        2.673       -3.635        3.525       16.958       10.743        8.032      287.558      115.408       64.513        0.025        0.023        4.512        8.835        3.834      334.133        3.905      863.772
11/23/2013  18:41:00      -41.526       -8.484      -12.286        6.850        6.181        5.116       46.927       38.207       26.169        0.103        0.006       42.384        4.513        0.011      333.771        3.305      863.772
11/23/2013  18:42:00      -41.207       -6.742       -7.401        9.440        8.556        6.662       89.108       73.198       44.377        0.100        0.010       41.755        5.542        0.018      333.727        3.231      863.769
11/23/2013  18:43:00      -36.746        2.742      -12.494        8.716       10.108        6.881       75.960      102.174       47.348        0.087        0.011       36.849        6.129        0.028      333.836        3.413      863.785
11/23/2013  18:44:00      -42.419       -2.001       -4.065       17.753       16.364        9.619      315.181      267.791       92.534        0.125        0.034       42.466        4.101        0.009      333.984        3.659      863.802
11/23/2013  18:45:00      -38.517      -25.576       -4.159       14.981       12.169       11.036      224.442      148.090      121.790        0.132        0.025       46.235        3.523        0.006      333.761        3.287      863.825
11/23/2013  18:46:00      -56.413      -13.357      -12.462       11.320        9.906        6.956      128.139       98.128       48.392        0.190        0.014       57.973        6.159        0.011      333.818        3.383      863.836
11/23/2013  18:47:00      -34.392      -10.024      -11.938       11.267       14.323        8.673      126.938      205.157       75.229        0.092        0.020       35.823        5.794        0.026      333.734        3.244      863.844
11/23/2013  18:48:00      -60.427      -10.828      -13.304       15.262        9.259        6.898      232.917       85.735       47.578        0.216        0.018       61.389        4.807        0.006      333.618        3.050      863.857
11/23/2013  18:49:00      -29.580      -17.867      -10.818       14.672       13.032        8.276      215.253      169.843       68.500        0.088        0.023       34.557        4.700        0.018      333.796        3.346      863.859
11/23/2013  18:50:00       -0.932      -13.857        4.287       10.875        9.350        6.721      118.276       87.420       45.175        0.023        0.013       13.888        5.032        0.131      334.171        3.968      863.850
11/23/2013  18:51:00       19.756        3.541        4.287       13.116       10.636        5.761      172.024      113.131       33.191        0.037        0.016       20.071        5.189        0.067      334.383        4.321      863.852
11/23/2013  18:52:00       10.706        9.445        6.677        9.036        9.165        4.530       81.651       83.992       20.516        0.022        0.009       14.277        5.037        0.124      334.269        4.130      863.870
11/23/2013  18:53:00       -2.323      -14.849        1.874        6.919        6.433        4.722       47.871       41.380       22.296        0.017        0.006       15.029        3.334        0.049      334.093        3.838      863.879
11/23/2013  18:54:00      -16.813      -16.955       -5.748       10.306        9.229        5.117      106.204       85.173       26.182        0.041        0.011       23.877        2.263        0.009      334.048        3.764      863.876
11/23/2013  18:55:00      -21.856       -3.059       -0.334       18.161       13.517        9.765      329.824      182.722       95.351        0.055        0.030       22.069        8.644        0.153      333.797        3.348      863.895
11/23/2013  18:56:00      -27.921      -16.427       -7.202       11.015       10.383        6.880      121.336      107.812       47.328        0.069        0.014       32.395        5.781        0.032      333.565        2.964      863.911
11/23/2013  18:57:00      -30.320      -13.276       -8.225        8.406        8.246        6.137       70.669       68.002       37.669        0.067        0.009       33.099        2.683        0.007      333.597        3.018      863.927
11/23/2013  18:58:00      -28.233      -19.335      -11.733       12.267        7.512        5.553      150.477       56.434       30.835        0.077        0.012       34.219        1.989        0.003      333.660        3.122      863.932
11/23/2013  18:59:00      -39.250      -32.578      -15.845       11.109        9.091        7.767      123.412       82.654       60.321        0.156        0.013       51.009        2.249        0.002      333.509        2.868      863.939
11/23/2013  19:00:00      -67.825      -12.751      -14.456        9.920        8.451        6.879       98.398       71.425       47.319        0.259        0.011       69.013        3.502        0.003      333.470        2.803      863.941
11/23/2013  19:01:00      -89.618       -1.337      -14.480       15.605        8.740       10.837      243.516       76.393      117.446        0.434        0.022       89.628        6.721        0.006      333.389        2.673      863.941
11/23/2013  19:02:00      -96.409       -1.155      -16.336       16.949       11.604       10.114      287.255      134.654      102.288        0.504        0.026       96.416        3.878        0.002      333.460        2.788      863.939
11/23/2013  19:03:00      -77.202       -1.009      -14.326       16.904       13.099       10.191      285.733      171.584      103.853        0.336        0.028       77.208        8.131        0.011      333.458        2.786      863.936
11/23/2013  19:04:00      -92.808       -3.403      -17.961       19.869       16.139       12.494      394.771      260.473      156.103        0.488        0.041       92.870       12.792        0.019      333.310        2.540      863.925
11/23/2013  19:05:00      -82.523       -5.797      -19.303       11.979       10.815        7.847      143.494      116.969       61.577        0.377        0.016       82.726        2.711        0.001      333.311        2.542      863.918
11/23/2013  19:06:00      -73.468       -9.301      -10.502       25.660       16.924       13.598      658.411      286.435      184.900        0.336        0.056       74.054       10.957        0.022      333.289        2.506      863.928
11/23/2013  19:07:00     -103.904       -1.143      -13.385       31.712       27.874       17.040     1005.664      776.983      290.369        0.652        0.104      103.910       15.013        0.021      333.301        2.524      863.933
11/23/2013  19:08:00      -63.525      -13.656       -9.637       25.109       23.693       13.153      630.471      561.379      172.991        0.284        0.068       64.976       11.698        0.032      333.222        2.394      863.935
11/23/2013  19:09:00      -67.878      -20.669       -9.762       32.458       28.119       13.610     1053.552      790.705      185.243        0.358        0.101       70.956        7.074        0.010      333.261        2.459      863.938
11/23/2013  19:10:00      -48.290       -4.363       -9.937       30.409       24.787       14.700      924.725      614.418      216.095        0.210        0.088       48.487       11.127        0.053      333.182        2.329      863.954
11/23/2013  19:11:00      -63.485      -23.390       -8.005       28.500       27.985       13.878      812.262      783.133      192.609        0.321        0.089       67.657        8.418        0.015      333.177        2.322      863.956
11/23/2013  19:12:00      -60.181      -12.174       -9.648       39.271       25.947       13.486     1542.213      673.230      181.884        0.313        0.120       61.400       14.112        0.053      333.156        2.286      863.955
11/23/2013  19:13:00      -97.776      -20.177      -12.263       25.092       21.815       18.756      629.586      475.891      351.792        0.579        0.073       99.836       13.504        0.018      333.111        2.212      863.969
11/23/2013  19:14:00      -72.150      -25.365       -7.582       19.854       26.627       14.357      394.191      708.988      206.137        0.361        0.065       76.479        8.194        0.011      333.057        2.121      863.976
11/23/2013  19:15:00      -67.652      -16.082       -9.934       17.884       21.242       15.639      319.849      451.207      244.586        0.297        0.051       69.537       12.103        0.030      333.080        2.162      863.972
11/23/2013  19:16:00      -63.777      -14.535      -12.529       14.969       18.691       16.248      224.085      349.353      263.997        0.264        0.042       65.413       11.246        0.030      333.121        2.227      863.979
11/23/2013  19:17:00      -70.663      -19.123      -21.980       28.700       20.035       17.647      823.688      401.413      311.419        0.369        0.077       73.205       11.986        0.027      333.181        2.326      863.972
11/23/2013  19:18:00      -93.739      -24.938      -20.336       25.243       22.752       14.616      637.228      517.668      213.636        0.560        0.068       97.000       10.052        0.011      333.126        2.238      863.967
11/23/2013  19:19:00      -90.657      -39.808      -12.922       18.154       24.937       17.229      329.568      621.850      296.846        0.561        0.062       99.012        8.718        0.008      333.025        2.070      863.975
11/23/2013  19:20:00      -92.024      -25.300      -12.220       23.073       18.189       10.101      532.378      330.822      102.031        0.511        0.048       95.438        8.188        0.007      333.026        2.073      863.993
11/23/2013  19:21:00      -98.164      -18.795      -11.909       26.025       23.977       13.784      677.325      574.882      190.003        0.579        0.072       99.947       12.287        0.015      333.005        2.037      863.994
11/23/2013  19:22:00      -56.844       -6.506      -12.890       28.996       19.227       12.521      840.768      369.690      156.785        0.240        0.068       57.215       10.151        0.031      332.906        1.874      863.995
11/23/2013  19:23:00     -101.488        1.201      -14.708       23.308       15.434       18.669      543.252      238.198      348.538        0.582        0.056      101.495       16.202        0.025      332.932        1.918      863.988
11/23/2013  19:24:00      -82.099       -4.262      -14.094       27.791       21.252       15.459      772.331      451.651      238.988        0.421        0.073       82.209       14.927        0.033      333.027        2.074      863.981
11/23/2013  19:25:00     -108.481      -10.084      -11.707       30.580       21.574       17.031      935.155      465.426      290.059        0.685        0.085      108.949       11.140        0.010      332.902        1.867      863.983
11/23/2013  19:26:00     -111.058      -37.868      -15.849       28.029       23.861       15.355      785.626      569.328      235.782        0.780        0.080      117.337       11.888        0.010      332.960        1.963      863.996
11/23/2013  19:27:00      -44.830      -45.435      -13.946       46.520       28.796       21.141     2164.110      829.195      446.941        0.385        0.172       63.828       11.847        0.034      332.907        1.876      864.008
11/23/2013  19:28:00      -64.537      -26.533      -11.665       49.051       30.739       21.236     2405.982      944.880      450.958        0.440        0.190       69.779       16.710        0.057      332.889        1.846      864.030
11/23/2013  19:29:00      -50.818      -39.422      -12.961       38.116       21.102       24.622     1452.864      445.285      606.230        0.340        0.125       64.316       20.710        0.104      332.935        1.924      864.036
11/23/2013  19:30:00      -78.759      -45.746      -23.192       28.155       21.076       16.451      792.697      444.209      270.628        0.517        0.075       91.080       11.029        0.015      332.910        1.880      864.026
11/23/2013  19:31:00      -81.763      -29.951      -14.702       31.652       21.905       17.356     1001.831      479.850      301.241        0.479        0.089       87.076       16.245        0.035      332.937        1.925      864.027
11/23/2013  19:32:00      -90.722      -43.440      -29.928       21.820       27.328       16.399      476.117      746.792      268.937        0.625        0.075      100.586       10.883        0.012      332.921        1.900      864.034
11/23/2013  19:33:00      -96.545      -28.557      -23.205       15.966       19.629       13.328      254.914      385.317      177.629        0.575        0.041      100.680        8.760        0.008      332.979        1.993      864.032
11/23/2013  19:34:00      -96.088      -17.158      -25.399       17.543       23.954       12.856      307.763      573.776      165.277        0.561        0.052       97.608        9.426        0.009      332.980        1.995      864.033
11/23/2013  19:35:00      -81.392      -60.843      -16.417       29.416       23.381       19.499      865.276      546.649      380.217        0.619        0.090      101.620       14.316        0.020      332.974        1.987      864.039
11/23/2013  19:36:00      -95.675      -25.018      -13.896       17.816       25.112       18.705      317.418      630.599      349.871        0.564        0.065       98.892       10.851        0.012      332.972        1.983      864.041
11/23/2013  19:37:00      -96.545      -24.354      -20.868       17.966       18.686       13.555      322.782      349.178      183.742        0.560        0.043       99.569        7.558        0.006      333.049        2.110      864.050
11/23/2013  19:38:00      -89.019      -23.912      -20.219       27.604       19.306       14.941      761.963      372.731      223.225        0.513        0.068       92.174       13.655        0.022      332.991        2.014      864.039
11/23/2013  19:39:00     -103.297       -6.088      -25.550       16.747       14.908       15.738      280.460      222.250      247.673        0.606        0.038      103.476       10.896        0.011      332.974        1.986      864.035
11/23/2013  19:40:00     -117.042      -13.797      -18.284       23.571       21.119       12.092      555.580      445.995      146.212        0.769        0.057      117.852        5.395        0.002      332.959        1.961      864.027
11/23/2013  19:41:00     -117.853      -13.134      -17.117       23.792       15.805       11.533      566.066      249.797      133.010        0.765        0.047      118.582        9.700        0.007      332.879        1.829      864.015
11/23/2013  19:42:00      -85.605      -19.457      -10.804       14.926       19.098       12.934      222.784      364.749      167.287        0.429        0.038       87.788        6.317        0.005      332.896        1.858      864.011
11/23/2013  19:43:00      -96.561      -20.147      -10.479       37.505       21.658       15.059     1406.650      469.062      226.770        0.597        0.105       98.640       17.819        0.033      332.847        1.777      864.005
11/23/2013  19:44:00     -126.783      -11.653      -15.467       15.432       15.817       12.809      238.134      250.179      164.081        0.855        0.033      127.318        8.075        0.004      332.756        1.627      863.999
11/23/2013  19:45:00     -121.367       -9.184      -18.569       18.571       17.334       13.820      344.884      300.478      190.981        0.800        0.042      121.714        8.718        0.005      332.761        1.635      864.006
11/23/2013  19:46:00     -117.455        0.679      -16.472       14.422       14.081       10.077      208.001      198.288      101.540        0.729        0.025      117.456        2.813        0.001      332.728        1.580      863.994
11/23/2013  19:47:00     -107.600       -6.800      -22.164       18.090       14.288       10.872      327.254      204.142      118.204        0.638        0.032      107.815        6.154        0.003      332.772        1.652      863.992
11/23/2013  19:48:00      -97.009      -19.060      -20.973       11.162       14.146        9.922      124.595      200.111       98.444        0.532        0.021       98.863        7.471        0.006      332.792        1.686      863.991
11/23/2013  19:49:00     -104.350      -11.965      -16.844       13.941       14.629       10.321      194.359      214.007      106.520        0.592        0.026      105.033        8.310        0.006      332.749        1.615      863.983
11/23/2013  19:50:00      -80.443      -24.411      -18.824       15.365       19.826       10.729      236.077      393.057      115.114        0.408        0.037       84.065        9.382        0.012      332.738        1.595      863.975
11/23/2013  19:51:00      -94.193      -24.027      -17.078       22.642       20.520       12.024      512.669      421.087      144.578        0.541        0.054       97.209       10.580        0.012      332.742        1.602      863.965
11/23/2013  19:52:00      -80.459       -6.643      -16.450       12.426       14.423        9.542      154.395      208.030       91.048        0.362        0.023       80.733        1.162        0.000      332.732        1.587      863.966
11/23/2013  19:53:00      -75.121      -21.294      -13.671       16.260       14.087       11.528      264.377      198.433      132.892        0.344        0.030       78.081        8.272        0.011      332.675        1.491      863.983
11/23/2013  19:54:00      -96.663      -14.273      -17.476       12.309       17.041       10.505      151.522      290.403      110.359        0.520        0.028       97.711        8.564        0.008      332.624        1.409      863.999
11/23/2013  19:55:00      -95.076      -27.370      -20.522       15.981       21.677       12.430      255.398      469.883      154.493        0.554        0.044       98.937        6.168        0.004      332.617        1.397      864.010
11/23/2013  19:56:00      -97.451      -27.748      -11.181       23.270       17.761       11.570      541.485      315.444      133.873        0.569        0.050      101.325       11.872        0.014      332.606        1.376      864.025
11/23/2013  19:57:00     -101.529      -22.673      -12.313       32.043       19.681       14.996     1026.732      387.356      224.874        0.631        0.082      104.030       14.051        0.018      332.598        1.364      864.025
11/23/2013  19:58:00     -105.165      -12.067      -13.622       24.521       19.259       13.584      601.268      370.909      184.517        0.627        0.058      105.855       11.101        0.011      332.533        1.256      864.052
11/23/2013  19:59:00     -118.412      -11.548      -16.084       21.426       29.340       18.166      459.073      860.818      330.021        0.803        0.082      118.974       13.366        0.013      332.541        1.269      864.050
11/23/2013  20:00:00     -103.985      -15.817      -16.253       22.463       21.100       16.928      504.573      445.206      286.564        0.628        0.062      105.181       11.735        0.012      332.533        1.258      864.041
11/23/2013  20:01:00     -110.815      -15.538      -14.712       32.731       29.135       16.134     1071.307      848.826      260.304        0.746        0.109      111.899       15.714        0.020      332.466        1.148      864.051
11/23/2013  20:02:00     -114.691      -27.801      -14.305       27.833       31.920       20.153      774.703     1018.909      406.132        0.817        0.110      118.013       20.522        0.030      332.486        1.181      864.063
11/23/2013  20:03:00      -93.523      -17.872      -17.625       28.312       27.247       17.273      801.580      742.420      298.372        0.561        0.092       95.216        6.796        0.005      332.456        1.129      864.073
11/23/2013  20:04:00      -83.417      -10.658      -17.606       18.390       19.587       13.845      338.189      383.650      191.681        0.415        0.046       84.095       12.958        0.024      332.471        1.155      864.090
11/23/2013  20:05:00      -80.598      -12.753      -17.764       20.164       19.795       11.747      406.593      391.857      137.992        0.396        0.047       81.601        6.820        0.007      332.490        1.185      864.113
11/23/2013  20:06:00      -85.155      -17.030      -15.992       14.357       14.191        9.653      206.114      201.383       93.181        0.415        0.025       86.841        4.619        0.003      332.549        1.283      864.111
11/23/2013  20:07:00      -84.094      -23.294      -13.627       15.816       13.977       10.125      250.132      195.358      102.520        0.417        0.027       87.261        6.147        0.005      332.543        1.273      864.105
11/23/2013  20:08:00      -88.145      -14.159      -16.503       18.136       13.646       11.226      328.929      186.211      126.013        0.444        0.032       89.275        7.628        0.007      332.600        1.367      864.102
11/23/2013  20:09:00      -96.488      -13.356      -14.005       15.905       13.999       15.411      252.984      195.970      237.489        0.519        0.034       97.408       10.999        0.013      332.445        1.113      864.086
11/23/2013  20:10:00      -89.835      -30.594      -13.099       17.240       16.873       14.155      297.226      284.683      200.362        0.498        0.039       94.902       12.172        0.016      332.476        1.163      864.085
11/23/2013  20:11:00     -109.985       -9.874      -19.012       19.030       17.563       10.994      362.144      308.460      120.877        0.667        0.040      110.427        4.932        0.002      332.435        1.096      864.104
11/23/2013  20:12:00      -99.095       -6.009      -18.460       10.959        9.403        9.941      120.094       88.416       98.822        0.525        0.015       99.277        4.649        0.002      332.441        1.106      864.106
11/23/2013  20:13:00      -91.452      -11.867      -23.213       10.087        9.206        6.791      101.744       84.743       46.111        0.464        0.012       92.219        3.475        0.001      332.543        1.275      864.102
11/23/2013  20:14:00      -89.831      -10.087      -18.900       14.273        8.425        8.917      203.714       70.984       79.506        0.444        0.018       90.395        3.506        0.002      332.428        1.083      864.099
11/23/2013  20:15:00      -79.600      -10.684      -13.030       10.843       12.577        7.727      117.572      158.174       59.700        0.348        0.017       80.314        7.508        0.009      332.473        1.158      864.096
11/23/2013  20:16:00      -72.221      -15.675      -14.844        9.328       12.929        8.301       87.003      167.159       68.907        0.300        0.016       73.903        7.017        0.009      332.556        1.295      864.090
11/23/2013  20:17:00      -71.942      -14.128      -14.317       10.349        9.514        7.649      107.096       90.522       58.506        0.292        0.013       73.316        5.124        0.005      332.564        1.309      864.095
11/23/2013  20:18:00      -64.657      -24.563      -15.111       10.376        8.663        8.868      107.654       75.048       78.643        0.264        0.013       69.165        5.072        0.005      332.527        1.247      864.106
11/23/2013  20:19:00      -64.351      -27.290      -13.173       14.160       15.589        8.422      200.503      243.017       70.931        0.279        0.026       69.898        6.462        0.009      332.522        1.239      864.104
11/23/2013  20:20:00      -76.774       -7.910      -14.372       12.662       15.272        7.932      160.338      233.243       62.918        0.331        0.023       77.181        6.260        0.007      332.706        1.543      864.108
11/23/2013  20:21:00      -69.926      -10.052      -19.075       23.891       18.170        9.691      570.779      330.164       93.914        0.317        0.050       70.645       11.078        0.025      332.606        1.378      864.108
11/23/2013  20:22:00      -84.290      -23.116      -16.127       13.210       16.150       10.779      174.503      260.828      116.190        0.423        0.028       87.402        3.093        0.001      332.406        1.047      864.104
11/23/2013  20:23:00      -94.817      -20.033      -16.829       14.132       12.329       11.307      199.707      152.004      127.844        0.508        0.024       96.910        8.042        0.007      332.443        1.109      864.108
11/23/2013  20:24:00      -83.305       -8.967      -16.414       20.509       15.931       15.214      420.620      253.794      231.470        0.410        0.045       83.787       10.718        0.016      332.484        1.177      864.114
11/23/2013  20:25:00      -89.670       -8.046      -15.690       15.131       10.310       12.839      228.961      106.287      164.851        0.443        0.025       90.030        9.171        0.010      332.419        1.069      864.104
11/23/2013  20:26:00      -86.980      -30.057      -14.392       17.049       20.644       14.884      290.665      426.178      221.520        0.481        0.047       92.027        7.795        0.007      332.426        1.080      864.106
11/23/2013  20:27:00     -102.871      -28.683      -13.382       16.747       18.036       14.218      280.478      325.311      202.161        0.620        0.040      106.795       10.430        0.010      332.366        0.981      864.104
11/23/2013  20:28:00     -118.205      -16.059      -20.499       17.339       19.270       10.126      300.632      371.321      102.535        0.771        0.039      119.291       11.566        0.009      332.369        0.985      864.104
11/23/2013  20:29:00      -98.351      -14.349      -15.797       31.256       18.237       18.127      976.962      332.602      328.604        0.588        0.082       99.392       16.600        0.028      332.378        1.002      864.119
11/23/2013  20:30:00      -97.256      -12.570      -10.345       18.954       19.078       14.507      359.267      363.963      210.459        0.533        0.047       98.065        6.577        0.004      332.337        0.933      864.144
11/23/2013  20:31:00     -113.730       -3.560      -19.489       19.590       19.070       13.234      383.751      363.683      175.136        0.712        0.046      113.786        6.719        0.003      332.408        1.050      864.164
11/23/2013  20:32:00      -77.026       -8.555      -15.496       10.999       14.230       11.825      120.971      202.498      139.822        0.335        0.023       77.499        9.159        0.014      332.355        0.963      864.168
11/23/2013  20:33:00      -87.945       -9.450      -17.425        9.885       14.172       10.716       97.705      200.851      114.827        0.427        0.021       88.451        5.826        0.004      332.344        0.945      864.179
11/23/2013  20:34:00      -84.646      -25.151      -21.850       11.392       14.887        8.290      129.789      221.615       68.723        0.435        0.021       88.303        5.700        0.004      332.345        0.946      864.176
11/23/2013  20:35:00     -106.545      -14.737      -17.087       20.763       16.408       15.957      431.098      269.238      254.638        0.641        0.048      107.560       13.693        0.016      332.262        0.811      864.157
11/23/2013  20:36:00     -112.042      -13.519      -16.818       23.467       15.516       14.239      550.677      240.737      202.763        0.701        0.050      112.855       11.268        0.010      332.244        0.783      864.140
11/23/2013  20:37:00      -96.044      -27.070      -11.228       26.393       22.990       19.963      696.611      528.522      398.520        0.585        0.081       99.786       17.068        0.029      332.223        0.747      864.139
11/23/2013  20:38:00      -99.740      -18.293      -10.864       26.471       25.966       19.957      700.711      674.235      398.272        0.609        0.089      101.404       15.906        0.025      332.271        0.825      864.131
11/23/2013  20:39:00      -99.922       -8.994      -15.186       24.065       24.663       12.946      579.143      608.278      167.612        0.583        0.068      100.326        9.033        0.008      332.264        0.816      864.140
11/23/2013  20:40:00      -93.207      -23.702       -8.961       19.572       21.301       12.145      383.070      453.739      147.498        0.516        0.049       96.174        5.864        0.004      332.306        0.882      864.142
11/23/2013  20:41:00      -99.878      -20.759      -19.841       14.392       14.002       10.185      207.137      196.062      103.731        0.565        0.025      102.012        4.919        0.002      332.234        0.765      864.140
11/23/2013  20:42:00      -95.352      -27.783      -11.903       22.189       20.151       12.262      492.359      406.077      150.359        0.553        0.052       99.317        8.242        0.007      332.203        0.714      864.138
11/23/2013  20:43:00      -99.472      -23.960      -13.115       21.892       24.525       14.441      479.261      601.464      208.536        0.596        0.064      102.317        9.235        0.008      332.215        0.734      864.136
11/23/2013  20:44:00      -97.952      -25.161      -18.163       14.870       20.867       16.052      221.125      435.436      257.655        0.574        0.046      101.132       11.277        0.012      332.247        0.787      864.145
11/23/2013  20:45:00      -79.009      -33.574      -12.317       24.932       18.247       17.327      621.619      332.966      300.208        0.439        0.063       85.847       13.206        0.024      332.279        0.838      864.137
11/23/2013  20:46:00      -83.086      -34.749      -17.578       17.043       24.552       15.200      290.469      602.810      231.025        0.477        0.056       90.060        8.680        0.009      332.260        0.808      864.135
11/23/2013  20:47:00     -103.425      -27.670      -11.758       24.430       17.501       17.354      596.847      306.274      301.146        0.640        0.060      107.063       11.838        0.012      332.209        0.724      864.121
11/23/2013  20:48:00     -127.054      -16.020      -17.032       22.354       20.978       14.754      499.703      440.083      217.684        0.892        0.058      128.060       10.103        0.006      332.110        0.559      864.105
11/23/2013  20:49:00     -114.552      -25.649      -11.891       27.574       25.474       18.911      760.334      648.923      357.642        0.784        0.088      117.389       14.762        0.016      332.097        0.538      864.104
11/23/2013  20:50:00     -107.399      -14.698      -18.889       21.378       19.190       14.820      457.018      368.273      219.622        0.658        0.052      108.400        7.261        0.004      332.126        0.585      864.114
11/23/2013  20:51:00     -100.170      -20.977      -13.211       23.239       16.495       10.604      540.056      272.088      112.444        0.579        0.046      102.343        8.110        0.006      332.096        0.536      864.121
11/23/2013  20:52:00      -67.396       -8.286      -14.969        8.193        9.214        7.313       67.119       84.901       53.481        0.252        0.010       67.903        5.362        0.006      332.178        0.671      864.119
11/23/2013  20:53:00      -62.217       -8.828      -12.099       14.367       13.315        8.820      206.407      177.289       77.797        0.228        0.023       62.840        5.206        0.007      332.293        0.861      864.113
11/23/2013  20:54:00      -69.499      -18.931      -10.022        8.021       11.402        8.262       64.338      130.000       68.264        0.278        0.013       72.031        2.529        0.001      332.222        0.745      864.116
11/23/2013  20:55:00      -57.814       -8.433       -8.709       13.644       10.468        7.727      186.146      109.573       59.699        0.192        0.018       58.426        4.332        0.005      332.337        0.934      864.099
11/23/2013  20:56:00      -33.759      -10.296       -7.290       20.287       17.243       10.023      411.568      297.316      100.468        0.105        0.040       35.295        4.997        0.020      332.630        1.418      864.086
11/23/2013  20:57:00      -63.147       -5.137      -13.694       15.424       11.257       11.028      237.889      126.729      121.610        0.234        0.024       63.355        7.619        0.014      332.398        1.035      864.076
11/23/2013  20:58:00      -88.048       -5.706      -21.620       12.045        9.696        6.689      145.089       94.019       44.749        0.427        0.014       88.233        3.842        0.002      332.198        0.705      864.068
11/23/2013  20:59:00      -64.276      -15.983      -17.667       12.914       12.682        7.860      166.784      160.846       61.775        0.254        0.019       66.233        5.772        0.008      332.120        0.577      864.077
11/23/2013  21:00:00      -48.337       -2.974      -13.837        6.159        4.501        5.161       37.935       20.255       26.635        0.131        0.004       48.429        3.422        0.005      332.278        0.835      864.100
11/23/2013  21:01:00      -43.606      -14.859       -9.023        8.059       10.984        7.482       64.951      120.649       55.984        0.122        0.012       46.069        5.898        0.016      332.426        1.080      864.116
11/23/2013  21:02:00      -39.032       -7.431      -13.202        8.974        8.306        7.324       80.538       68.983       53.644        0.098        0.010       39.733        2.315        0.003      332.480        1.170      864.128
11/23/2013  21:03:00      -57.290       -4.059      -14.645       11.173        6.173        6.430      124.836       38.104       41.344        0.186        0.010       57.434        5.425        0.009      332.286        0.851      864.134
11/23/2013  21:04:00      -65.018        2.128       -9.835        9.725       15.085       11.908       94.572      227.564      141.809        0.240        0.023       65.053        9.381        0.021      332.309        0.888      864.127
11/23/2013  21:05:00      -33.324      -15.382       -5.024       26.388       15.503       12.949      696.318      240.332      167.686        0.124        0.055       36.703        7.459        0.041      332.576        1.329      864.118
11/23/2013  21:06:00      -55.531      -22.337      -10.706       20.034        7.499        6.003      401.352       56.235       36.042        0.210        0.025       59.855        4.823        0.006      332.248        0.788      864.116
11/23/2013  21:07:00      -89.615      -21.475      -14.851       12.961       10.776        8.124      167.985      116.124       66.006        0.453        0.018       92.152        2.948        0.001      332.145        0.616      864.128
11/23/2013  21:08:00      -97.022      -13.923      -17.747       12.469        9.880        8.487      155.479       97.617       72.033        0.512        0.016       98.015        5.288        0.003      332.023        0.415      864.154
11/23/2013  21:09:00      -66.593      -18.194      -13.383       17.409       19.374       12.102      303.057      375.368      146.470        0.288        0.041       69.034        8.019        0.013      332.015        0.403      864.176
11/23/2013  21:10:00      -49.666      -23.770      -15.974       18.851       16.253       13.337      355.352      264.156      177.865        0.204        0.040       55.061        7.996        0.021      332.014        0.402      864.198
11/23/2013  21:11:00      -73.071      -11.920      -10.930       17.555       13.796       10.911      308.179      190.329      119.046        0.311        0.031       74.037        7.293        0.010      332.055        0.468      864.219
11/23/2013  21:12:00      -79.376      -16.325      -14.592       10.462       14.449       10.628      109.446      208.783      112.950        0.361        0.022       81.038        8.869        0.012      332.036        0.439      864.233
11/23/2013  21:13:00      -80.896      -22.779      -14.299       15.059       17.952       12.692      226.768      322.287      161.099        0.399        0.036       84.042        7.263        0.007      331.998        0.374      864.242
11/23/2013  21:14:00      -78.480      -11.585      -15.143       15.330       18.825       12.121      234.994      354.383      146.930        0.363        0.037       79.330        9.063        0.013      331.939        0.277      864.244
11/23/2013  21:15:00      -87.859      -13.138      -16.700       17.597       21.930       11.797      309.665      480.939      139.167        0.455        0.046       88.836       10.188        0.013      331.950        0.297      864.237
11/23/2013  21:16:00      -86.378      -17.457      -16.112       18.357       20.395       13.627      336.993      415.943      185.704        0.448        0.047       88.124       11.409        0.017      331.987        0.355      864.247
11/23/2013  21:17:00      -81.791      -13.825      -11.016       23.339       18.988       16.413      544.704      360.563      269.390        0.409        0.059       82.951       14.032        0.029      331.986        0.353      864.248
11/23/2013  21:18:00      -52.397      -23.768      -13.271       21.268       23.898       18.093      452.322      571.105      327.364        0.242        0.068       57.536       16.294        0.080      332.004        0.385      864.248
11/23/2013  21:19:00      -57.251      -25.983       -8.713       22.185       16.710       10.678      492.173      279.227      114.025        0.246        0.044       62.871       12.263        0.038      331.948        0.291      864.236
11/23/2013  21:20:00      -75.291       -6.219       -5.911       27.577       21.001       13.347      760.467      441.031      178.147        0.356        0.069       75.547       16.269        0.046      332.016        0.405      864.239
11/23/2013  21:21:00      -99.300        1.232      -23.130       12.223       14.490        9.332      149.409      209.973       87.083        0.542        0.022       99.308        7.554        0.006      332.102        0.545      864.237
11/23/2013  21:22:00      -92.613       -5.205       -9.663       13.835       11.898        9.713      191.419      141.566       94.348        0.456        0.021       92.760        5.738        0.004      332.102        0.547      864.241
11/23/2013  21:23:00      -89.848       -3.892       -8.364       20.206       15.757       12.022      408.273      248.267      144.526        0.448        0.040       89.933        9.176        0.010      332.090        0.527      864.234
11/23/2013  21:24:00      -68.836      -16.554      -12.003       16.536       13.420        9.972      273.454      180.091       99.438        0.285        0.028       70.798        8.466        0.014      332.028        0.424      864.218
11/23/2013  21:25:00      -67.719       -4.658      -14.062       21.468       12.049        9.127      460.882      145.168       83.311        0.275        0.034       67.879        5.548        0.007      332.042        0.447      864.210
11/23/2013  21:26:00      -64.542       -5.188      -13.681       19.232        9.074        6.112      369.876       82.332       37.361        0.243        0.024       64.751        3.696        0.003      332.311        0.892      864.217
11/23/2013  21:27:00      -53.588      -16.780       -7.410        8.033       10.866        8.938       64.525      118.060       79.888        0.174        0.013       56.154        5.265        0.009      332.277        0.835      864.226
11/23/2013  21:28:00      -32.292      -19.090       -4.864       11.608        9.422        7.344      134.755       88.775       53.928        0.085        0.014       37.512        3.533        0.009      332.266        0.817      864.242
11/23/2013  21:29:00      -32.315      -22.434      -12.293       15.216        8.623        9.612      231.530       74.356       92.388        0.105        0.020       39.339        8.812        0.050      332.202        0.712      864.253
11/23/2013  21:30:00      -47.935      -19.818      -11.185        8.115        8.778        6.052       65.857       77.059       36.628        0.150        0.009       51.870        3.793        0.005      332.175        0.667      864.254
11/23/2013  21:31:00      -54.909      -12.287      -10.166       10.388        8.209        6.554      107.903       67.388       42.952        0.174        0.011       56.267        5.704        0.010      332.158        0.639      864.245
11/23/2013  21:32:00      -59.772       -9.363      -13.481        9.893        8.068        6.441       97.866       65.087       41.483        0.202        0.010       60.501        5.341        0.008      332.268        0.819      864.214
11/23/2013  21:33:00      -73.651      -13.131      -14.522       10.217       10.996        7.188      104.380      120.916       51.665        0.304        0.014       74.813        5.571        0.006      332.065        0.487      864.192
11/23/2013  21:34:00     -107.454        2.216      -19.061       15.704        9.137       10.242      246.621       83.476      104.900        0.617        0.022      107.477        8.918        0.007      332.075        0.502      864.174
11/23/2013  21:35:00     -110.757       -2.790      -21.067       17.262       13.032       11.036      297.975      169.837      121.792        0.665        0.029      110.792        6.179        0.003      331.934        0.270      864.169
11/23/2013  21:36:00      -75.692       -6.077      -13.616       23.321       12.890       11.512      543.870      166.141      132.520        0.340        0.042       75.935        8.556        0.013      331.906        0.222      864.182
11/23/2013  21:37:00      -70.468      -23.286      -13.671       20.087       21.533       12.842      403.506      463.678      164.926        0.336        0.052       74.216       12.436        0.028      331.985        0.354      864.195
11/23/2013  21:38:00      -79.917        0.691      -19.274       11.630       14.370       10.203      135.268      206.494      104.110        0.360        0.022       79.920        8.416        0.011      332.007        0.389      864.202
11/23/2013  21:39:00      -71.434       -8.983      -13.966       17.365       17.850       16.910      301.542      318.623      285.948        0.314        0.045       71.996       14.484        0.040      332.024        0.417      864.206
11/23/2013  21:40:00      -76.051       -3.255      -16.311       13.072       10.010        7.458      170.889      100.197       55.621        0.319        0.016       76.120        6.160        0.007      332.049        0.460      864.221
11/23/2013  21:41:00      -70.934      -15.159      -14.237       13.866       11.833        7.630      192.260      140.030       58.220        0.293        0.020       72.536        6.399        0.008      332.043        0.451      864.252
11/23/2013  21:42:00      -72.698      -18.568      -11.396       12.517       13.598        8.851      156.682      184.911       78.344        0.309        0.021       75.032        6.835        0.008      332.120        0.577      864.274
11/23/2013  21:43:00      -69.291      -14.128       -9.069       11.250       11.413        8.131      126.569      130.261       66.119        0.270        0.016       70.717        5.859        0.007      332.130        0.593      864.300
11/23/2013  21:44:00      -87.994        2.396      -17.951       12.778        9.578        8.455      163.275       91.731       71.484        0.420        0.016       88.027        6.485        0.005      332.019        0.410      864.305
11/23/2013  21:45:00     -111.166        7.061      -16.212       27.640       16.357       12.421      763.949      267.565      154.287        0.693        0.059      111.390       12.874        0.013      331.989        0.359      864.312
11/23/2013  21:46:00     -122.422       -2.306      -21.615       13.276       11.638       10.357      176.251      135.449      107.270        0.794        0.021      122.444        4.272        0.001      331.957        0.307      864.322
11/23/2013  21:47:00      -81.647      -13.428      -18.883       19.213       25.383       11.372      369.125      644.305      129.318        0.417        0.057       82.744        6.675        0.007      331.992        0.366      864.335
11/23/2013  21:48:00      -81.350      -16.043      -14.737       17.722       18.891       12.438      314.053      356.874      154.695        0.396        0.041       82.917        8.219        0.010      331.994        0.368      864.342
11/23/2013  21:49:00      -99.042       -5.540      -19.424       22.537       22.216       16.897      507.932      493.549      285.495        0.575        0.064       99.197       15.018        0.023      331.959        0.309      864.342
11/23/2013  21:50:00      -94.233      -25.345      -14.362       16.887       27.159       13.313      285.159      737.617      177.230        0.546        0.060       97.582       13.140        0.018      331.936        0.272      864.324
11/23/2013  21:51:00      -81.778      -19.004      -14.667       19.010       20.251       13.260      361.386      410.087      175.836        0.411        0.047       83.957       10.531        0.016      331.876        0.173      864.310
11/23/2013  21:52:00      -78.819       -3.897       -9.889       14.890       14.601       14.283      221.697      213.182      204.006        0.348        0.032       78.915        9.453        0.014      331.934        0.269      864.313
11/23/2013  21:53:00      -58.114      -21.120       -9.486       13.122        9.239       10.184      172.181       85.367      103.718        0.214        0.018       61.833        4.534        0.005      332.011        0.397      864.325
11/23/2013  21:54:00      -60.154      -21.471      -13.688       16.124       10.589       11.315      259.970      112.134      128.039        0.238        0.025       63.871        6.755        0.011      332.047        0.456      864.340
11/23/2013  21:55:00      -88.210       -9.540      -20.393       14.204       11.623        8.886      201.747      135.100       78.962        0.435        0.021       88.724        2.916        0.001      331.971        0.330      864.335
11/23/2013  21:56:00      -86.754      -11.905      -21.242       12.258        9.321        7.975      150.260       86.880       63.606        0.421        0.015       87.567        4.585        0.003      331.908        0.225      864.327
11/23/2013  21:57:00      -79.157      -13.679      -12.318       17.963       10.968        7.772      322.652      120.294       60.409        0.355        0.025       80.330        3.970        0.002      331.929        0.261      864.326
11/23/2013  21:58:00      -91.128       -9.427      -11.512       21.136       17.664       14.583      446.742      312.030      212.668        0.475        0.049       91.614       12.856        0.020      331.891        0.199      864.333
11/23/2013  21:59:00      -83.326       -4.883      -17.855       13.092       10.642        9.544      171.390      113.263       91.084        0.383        0.019       83.469        7.930        0.009      332.053        0.464      864.344
11/23/2013  22:00:00      -78.771       -4.725      -22.103       17.934       14.657       11.289      321.616      214.838      127.432        0.369        0.033       78.913        5.368        0.005      332.041        0.444      864.359
11/23/2013  22:01:00      -65.043       -6.342      -12.481       29.952       14.315       11.691      897.100      204.923      136.675        0.283        0.062       65.352       11.942        0.033      331.867        0.159      864.375
11/23/2013  22:02:00      -74.996      -11.348      -12.488       20.139       25.431       15.413      405.575      646.751      237.569        0.360        0.064       75.850       14.649        0.037      331.877        0.174      864.390
11/23/2013  22:03:00      -79.938       -5.908      -13.620        9.985       11.168        9.417       99.693      124.713       88.678        0.346        0.016       80.156        5.480        0.005      331.933        0.267      864.411
11/23/2013  22:04:00      -68.749      -10.083      -12.854       11.283       12.940        8.739      127.312      167.454       76.374        0.268        0.019       69.484        5.598        0.006      331.995        0.371      864.434
11/23/2013  22:05:00      -37.201       -1.266       -7.706       16.677       11.590        6.007      278.108      134.325       36.087        0.095        0.022       37.223        4.548        0.015      332.227        0.754      864.455
11/23/2013  22:06:00       -7.299      -13.441       -0.879        6.643        5.582        4.580       44.126       31.153       20.978        0.017        0.005       15.295        2.724        0.032      332.407        1.048      864.468
11/23/2013  22:07:00       -1.662       -9.903        0.418        8.089        4.937        3.810       65.440       24.378       14.518        0.010        0.005       10.042        2.030        0.041      332.606        1.376      864.477
11/23/2013  22:08:00      -38.165      -24.731       -9.544       17.710       10.229        6.713      313.650      104.623       45.064        0.131        0.023       45.478        8.140        0.032      332.194        0.698      864.466
11/23/2013  22:09:00      -73.470      -14.547      -12.334        7.854        7.080        7.329       61.684       50.123       53.718        0.296        0.008       74.896        4.121        0.003      331.894        0.203      864.450
11/23/2013  22:10:00      -78.466       -6.413      -12.902        8.791        7.405        6.629       77.289       54.834       43.937        0.327        0.009       78.727        2.918        0.001      331.918        0.243      864.453
11/23/2013  22:11:00      -93.567        4.232      -16.201       21.719       11.187       11.116      471.697      125.150      123.575        0.488        0.036       93.663        7.420        0.006      331.994        0.369      864.470
11/23/2013  22:12:00      -74.493        1.105      -10.949       13.974       11.710        8.695      195.278      137.117       75.611        0.304        0.020       74.501        7.596        0.010      332.121        0.577      864.501
11/23/2013  22:13:00      -55.037       -6.020       -7.728       10.037       15.267        9.322      100.747      233.067       86.898        0.177        0.021       55.365        7.517        0.018      332.226        0.751      864.523
11/23/2013  22:14:00      -55.454      -28.236      -14.670       10.070       14.548       10.437      101.398      211.644      108.934        0.225        0.021       62.229        7.133        0.013      331.968        0.325      864.531
11/23/2013  22:15:00      -75.856      -10.370      -15.834       12.888        9.383       10.296      166.104       88.049      106.005        0.324        0.018       76.561        5.568        0.005      331.885        0.188      864.523
11/23/2013  22:16:00      -85.351      -10.387      -17.667        7.371        8.316        7.684       54.334       69.157       59.048        0.394        0.009       85.981        3.211        0.001      331.838        0.111      864.510
11/23/2013  22:17:00      -84.431      -16.184      -18.498       10.338       11.777        7.052      106.882      138.691       49.735        0.401        0.015       85.969        4.424        0.003      331.906        0.223      864.504
11/23/2013  22:18:00      -96.038      -13.731      -20.341       16.739       13.219        9.305      280.210      174.753       86.576        0.518        0.027       97.014        5.303        0.003      331.951        0.297      864.508
11/23/2013  22:19:00      -82.498      -45.504      -21.234       18.126       18.905       14.488      328.562      357.404      209.915        0.511        0.045       94.215       11.375        0.015      331.837        0.109      864.518
11/23/2013  22:20:00      -66.822      -50.747      -17.508       14.238       13.107       10.831      202.734      171.787      117.314        0.392        0.025       83.908        5.826        0.005      331.815        0.074      864.515
11/23/2013  22:21:00      -65.741      -16.322      -21.582       16.181       17.300       13.315      261.824      299.297      177.296        0.290        0.037       67.737       10.096        0.022      331.905        0.223      864.510
11/23/2013  22:22:00      -72.945      -14.899      -13.444       17.599       23.026       10.668      309.709      530.183      113.797        0.334        0.048       74.452        8.860        0.014      332.025        0.418      864.499
11/23/2013  22:23:00      -68.888       -6.365      -20.105       11.180       15.444        8.504      125.002      238.517       72.315        0.281        0.022       69.182        5.498        0.006      332.280        0.841      864.479
11/23/2013  22:24:00      -45.962      -11.235      -15.599       13.054       12.077       11.079      170.409      145.849      122.755        0.146        0.022       47.316        7.504        0.025      332.177        0.670      864.485
11/23/2013  22:25:00      -74.881       -9.012      -17.300       11.239        9.201        7.997      126.310       84.649       63.949        0.313        0.014       75.421        4.452        0.003      331.993        0.366      864.492
11/23/2013  22:26:00      -67.687       -6.918      -10.623       16.546       11.089        9.639      273.773      122.972       92.901        0.262        0.024       68.040       10.320        0.023      332.021        0.413      864.494
11/23/2013  22:27:00      -66.719       -5.977      -14.325       14.691        9.874        7.816      215.834       97.497       61.091        0.253        0.019       66.987        5.419        0.007      332.098        0.540      864.489
11/23/2013  22:28:00      -82.984      -11.567      -21.771       10.720       11.352        8.370      114.910      128.873       70.054        0.390        0.016       83.787        4.958        0.004      332.054        0.467      864.489
11/23/2013  22:29:00      -75.982      -17.285      -11.693       18.756       16.788       12.224      351.792      281.829      149.416        0.350        0.039       77.923       10.129        0.017      331.974        0.335      864.492
11/23/2013  22:30:00      -79.124      -21.199      -13.053       14.970       14.878       14.197      224.090      221.362      201.546        0.376        0.032       81.914        9.159        0.013      331.956        0.306      864.504
11/23/2013  22:31:00     -101.133       -8.236      -19.381       18.160       10.756       13.677      329.779      115.696      187.067        0.565        0.032      101.468        9.537        0.009      331.966        0.322      864.520
11/23/2013  22:32:00     -109.992      -20.057      -21.260       17.022       22.072       11.813      289.732      487.181      139.554        0.693        0.046      111.805        8.417        0.006      331.954        0.302      864.522
11/23/2013  22:33:00     -114.681      -46.982      -17.314       25.395       17.454       17.278      644.909      304.656      298.545        0.845        0.062      123.931        7.337        0.004      331.908        0.226      864.515
11/23/2013  22:34:00      -52.901      -53.833       -6.783       26.648       24.114       16.516      710.102      581.474      272.787        0.365        0.078       75.475       14.574        0.037      331.850        0.131      864.506
11/23/2013  22:35:00      -89.875      -23.511      -15.006       18.110       17.475        9.148      327.970      305.372       83.682        0.479        0.036       92.899        4.976        0.003      332.046        0.454      864.504
11/23/2013  22:36:00      -98.862       -5.191      -16.910       11.936        6.902        6.912      142.470       47.638       47.780        0.516        0.012       98.999        5.223        0.003      332.220        0.741      864.518
11/23/2013  22:37:00      -34.744      -12.180       -1.810       25.182       17.504       12.661      634.142      306.390      160.301        0.123        0.055       36.817       14.275        0.150      332.009        0.394      864.525
11/23/2013  22:38:00      -64.405      -18.460      -12.026       24.791        9.783        9.011      614.586       95.699       81.200        0.271        0.040       66.998       12.474        0.035      332.110        0.559      864.510
11/23/2013  22:39:00      -88.773      -28.529      -15.241        9.919        8.940        6.582       98.394       79.922       43.324        0.457        0.011       93.245        1.894        0.000      332.124        0.583      864.493
11/23/2013  22:40:00      -98.558      -28.973      -12.446       10.019       11.694        6.815      100.371      136.741       46.441        0.550        0.014      102.728        4.407        0.002      332.114        0.567      864.494
11/23/2013  22:41:00      -35.891      -26.176       -0.748       33.404        8.702        6.353     1115.854       75.719       40.366        0.160        0.062       44.422        8.247        0.034      332.054        0.467      864.514
11/23/2013  22:42:00      -26.891      -31.554       -5.161       15.703       15.827        8.924      246.580      250.504       79.646        0.116        0.029       41.458        7.304        0.031      332.226        0.752      864.533
11/23/2013  22:43:00      -75.486      -44.978       -6.531       21.614       14.053       13.025      467.183      197.474      169.659        0.430        0.042       87.870        8.894        0.010      332.157        0.638      864.550
11/23/2013  22:44:00      -86.797      -38.037        1.133       24.352       19.577       13.853      593.044      383.261      191.909        0.507        0.058       94.765       13.149        0.019      331.984        0.352      864.548
11/23/2013  22:45:00     -102.767      -28.716       -7.183       19.941       22.444       15.511      397.645      503.717      240.588        0.629        0.057      106.704       10.120        0.009      331.953        0.301      864.544
11/23/2013  22:46:00      -97.890      -20.109      -10.357       18.130       21.240       16.016      328.695      451.148      256.510        0.556        0.052       99.934       11.998        0.014      331.898        0.210      864.541
11/23/2013  22:47:00      -95.568      -24.051       -7.414       19.929       18.159       15.726      397.156      329.733      247.305        0.537        0.049       98.548        9.988        0.010      331.914        0.237      864.542
11/23/2013  22:48:00     -121.469      -81.488       -8.524       29.128       42.093       20.625      848.468     1771.810      425.402        1.226        0.152      146.270       17.487        0.014      332.014        0.400      864.549
11/23/2013  22:49:00      -84.305      -38.830       -2.014       29.103       22.115       18.370      846.994      489.063      337.457        0.515        0.084       92.817       14.642        0.025      331.994        0.368      864.565
11/23/2013  22:50:00      -97.556      -57.911       -3.396       28.833       28.167       18.025      831.331      793.382      324.885        0.742        0.097      113.449       11.565        0.010      331.893        0.203      864.578
11/23/2013  22:51:00      -68.164      -40.472       -1.087       20.561       17.300       14.097      422.736      299.299      198.733        0.360        0.046       79.274        7.899        0.010      331.844        0.121      864.600
11/23/2013  22:52:00      -36.563      -28.560        3.929       22.602       16.137       15.458      510.839      260.415      238.964        0.159        0.051       46.395       12.275        0.070      331.866        0.156      864.623
11/23/2013  22:53:00      -48.521      -33.480       -0.460       47.850       20.723       14.805     2289.648      429.449      219.178        0.321        0.147       58.951       15.831        0.072      331.797        0.044      864.636
11/23/2013  22:54:00     -103.969      -62.803        1.768       36.157       25.465       20.427     1307.340      648.469      417.281        0.856        0.119      121.465       17.273        0.020      331.816        0.075      864.650
11/23/2013  22:55:00      -78.275      -35.853        6.746       49.749       33.863       21.642     2474.965     1146.723      468.393        0.577        0.205       86.095       24.179        0.079      331.751       -0.033      864.672
11/23/2013  22:56:00     -115.234      -47.814       -6.467       32.987       23.921       17.675     1088.115      572.205      312.408        0.879        0.099      124.760       11.552        0.009      331.819        0.079      864.677
11/23/2013  22:57:00      -90.523      -31.288      -12.713       24.654       22.856       13.837      607.805      522.418      191.467        0.533        0.066       95.778       11.476        0.014      331.710       -0.100      864.675
11/23/2013  22:58:00     -143.320      -46.454      -17.529       19.871       15.808       11.913      394.868      249.883      141.908        1.190        0.039      150.661        6.937        0.002      331.626       -0.237      864.655
11/23/2013  22:59:00     -129.620      -23.123      -13.984       32.197       27.696       22.239     1036.615      767.081      494.593        0.991        0.115      131.666       15.709        0.014      331.523       -0.409      864.645
11/23/2013  23:00:00     -126.872      -34.068       -5.695       39.114       32.870       20.482     1529.898     1080.456      419.494        1.016        0.151      131.366       17.365        0.017      331.485       -0.471      864.646
11/23/2013  23:01:00     -157.348      -56.743       -9.763       17.689       23.193       13.381      312.913      537.933      179.062        1.455        0.051      167.267        9.841        0.003      331.559       -0.348      864.676
11/23/2013  23:02:00     -122.587      -51.647       -8.947       27.516       24.890       18.079      757.126      619.533      326.849        0.974        0.085      133.022       13.763        0.011      331.554       -0.356      864.694
11/23/2013  23:03:00     -157.415      -82.036      -17.087       21.448       23.924       15.100      460.033      572.349      228.003        1.653        0.063      177.509       10.633        0.004      331.563       -0.341      864.684
11/23/2013  23:04:00     -136.866      -70.436       -7.459       39.043       30.148       24.559     1524.360      908.882      603.125        1.339        0.152      153.927       22.156        0.021      331.542       -0.374      864.672
11/23/2013  23:05:00     -114.399      -56.746       -5.114       34.822       29.205       16.778     1212.591      852.915      281.513        0.934        0.117      127.700       13.225        0.011      331.566       -0.337      864.678
11/23/2013  23:06:00     -123.741      -82.069       -6.297       38.515       30.713       21.093     1483.403      943.296      444.926        1.248        0.144      148.483       19.451        0.017      331.632       -0.226      864.692
11/23/2013  23:07:00     -142.468      -70.267      -11.558       36.910       25.666       23.934     1362.328      658.750      572.851        1.398        0.130      158.854       15.812        0.010      331.573       -0.323      864.706
11/23/2013  23:08:00     -141.147      -74.077       -8.006       32.763       21.608       19.737     1073.400      466.918      389.549        1.370        0.096      159.404       21.241        0.018      331.527       -0.400      864.723
11/23/2013  23:09:00     -119.474      -64.723      -11.872       28.203       24.067       12.718      795.387      579.207      161.739        1.007        0.077      135.879        8.594        0.004      331.544       -0.373      864.739
11/23/2013  23:10:00      -90.206      -61.648       -8.169       30.237       26.918       21.299      914.277      724.598      453.646        0.705        0.105      109.260       12.018        0.012      331.517       -0.418      864.738
11/23/2013  23:11:00     -122.315      -70.356       -6.260       47.079       23.666       20.782     2216.429      560.062      431.898        1.158        0.160      141.106       15.893        0.013      331.492       -0.458      864.748
11/23/2013  23:12:00     -116.028      -58.504        1.775       38.709       36.675       25.771     1498.381     1345.080      664.147        1.020        0.175      129.943       24.534        0.036      331.451       -0.526      864.771
11/23/2013  23:13:00      -98.653      -21.114       -9.477       25.650       28.789       19.944      657.916      828.834      397.762        0.608        0.094      100.887       13.769        0.019      331.431       -0.559      864.801
11/23/2013  23:14:00     -101.063      -13.557       -7.428       45.596       44.769       27.425     2078.988     2004.244      752.136        0.764        0.242      101.969       27.462        0.073      331.350       -0.691      864.822
11/23/2013  23:15:00     -124.550      -10.442      -11.301       37.423       28.067       22.043     1400.450      787.759      485.903        0.921        0.134      124.987       20.340        0.026      331.400       -0.608      864.833
11/23/2013  23:16:00     -113.018      -27.278       -4.850       34.577       30.443       18.224     1195.602      926.791      332.106        0.800        0.123      116.263       17.896        0.024      331.406       -0.599      864.834
11/23/2013  23:17:00      -67.807      -37.146        1.249       34.103       25.921       19.167     1163.026      671.904      367.389        0.409        0.110       77.315       16.774        0.047      331.517       -0.417      864.829
11/23/2013  23:18:00      -90.833      -52.911       -7.090       29.891       28.439       17.304      893.464      808.782      299.435        0.655        0.100      105.120       16.102        0.023      331.518       -0.415      864.832
11/23/2013  23:19:00      -81.161      -17.744       -9.226       43.774       22.469       14.025     1916.190      504.836      196.694        0.480        0.131       83.078        3.723        0.002      331.578       -0.316      864.834
11/23/2013  23:20:00     -108.114      -27.571       -5.503       30.755       36.086       24.131      945.849     1302.215      582.300        0.765        0.142      111.574       18.053        0.026      331.483       -0.472      864.831
11/23/2013  23:21:00     -154.962      -72.447      -14.402       41.381       33.452       20.738     1712.357     1119.012      430.057        1.636        0.163      171.061       21.000        0.015      331.427       -0.567      864.820
11/23/2013  23:22:00     -123.356      -39.900       -2.827       49.006       40.470       24.037     2401.549     1637.860      577.773        1.072        0.231      129.649       23.910        0.034      331.408       -0.597      864.811
11/23/2013  23:23:00     -111.383      -11.897      -17.379       22.308       28.436       17.598      497.648      808.624      309.692        0.723        0.081      112.016        9.889        0.008      331.409       -0.596      864.827
11/23/2013  23:24:00      -75.693      -31.569       -8.782       28.570       23.511       19.084      816.266      552.765      364.201        0.427        0.087       82.012       12.966        0.025      331.396       -0.617      864.846
11/23/2013  23:25:00      -85.761      -14.164       -9.404       44.127       21.368       16.002     1947.172      456.591      256.065        0.515        0.133       86.922        6.438        0.005      331.421       -0.576      864.856
11/23/2013  23:26:00     -121.357      -21.690      -11.091       31.140       30.597       17.789      969.677      936.178      316.442        0.877        0.111      123.280       10.850        0.008      331.398       -0.613      864.851
11/23/2013  23:27:00      -38.021      -11.706        6.653       44.816       25.943       25.888     2008.435      673.021      670.185        0.249        0.168       39.782       20.676        0.270      331.361       -0.672      864.838
11/23/2013  23:28:00      -56.451      -28.139       -5.535       31.451       29.303       22.268      989.189      858.667      495.847        0.318        0.117       63.075       17.259        0.075      331.341       -0.705      864.832
11/23/2013  23:29:00     -113.050       -4.931      -18.683       43.803       24.524       17.701     1918.699      601.408      313.315        0.799        0.142      113.158       11.385        0.010      331.298       -0.778      864.839
11/23/2013  23:30:00     -140.815        5.094      -24.433       29.561       21.096       17.490      873.878      445.037      305.897        1.104        0.081      140.907       10.053        0.005      331.249       -0.856      864.845
11/23/2013  23:31:00     -133.517      -45.999      -14.113       27.429       29.154       16.121      752.376      849.983      259.898        1.100        0.093      141.219        7.424        0.003      331.278       -0.809      864.851
11/23/2013  23:32:00      -90.134      -44.463       -1.158       30.633       30.398       18.004      938.372      924.027      324.138        0.614        0.109      100.504       13.073        0.017      331.332       -0.721      864.850
11/23/2013  23:33:00      -96.800      -39.107       -1.797       32.942       31.402       21.336     1085.145      986.059      455.206        0.671        0.126      104.401       19.089        0.033      331.293       -0.785      864.853
11/23/2013  23:34:00     -133.589      -54.898       -8.016       34.373       32.413       22.274     1181.474     1050.591      496.138        1.183        0.136      144.429       18.496        0.016      331.276       -0.813      864.866
11/23/2013  23:35:00     -123.642      -44.266       -1.595       44.759       32.170       24.955     2003.349     1034.877      622.744        1.045        0.183      131.328       26.051        0.039      331.262       -0.836      864.877
11/23/2013  23:36:00     -146.835      -61.245       -7.020       34.021       23.326       16.818     1157.398      544.121      282.840        1.367        0.099      159.096       16.496        0.011      331.299       -0.774      864.880
11/23/2013  23:37:00     -118.321      -51.713        0.728       35.573       34.814       19.528     1265.466     1211.983      381.358        0.977        0.143      129.128       18.298        0.020      331.297       -0.777      864.885
11/23/2013  23:38:00     -110.887      -22.946      -10.054       28.205       43.109       18.841      795.536     1858.372      355.001        0.797        0.150      113.236       15.724        0.019      331.284       -0.801      864.895
11/23/2013  23:39:00      -86.786       -9.201       -7.672       39.357       27.790       15.021     1548.991      772.306      225.636        0.511        0.127       87.272        9.786        0.013      331.241       -0.870      864.913
11/23/2013  23:40:00      -85.845      -32.280       -2.215       27.112       24.042       12.804      735.045      577.995      163.938        0.495        0.074       91.714        9.257        0.010      331.271       -0.822      864.934
11/23/2013  23:41:00      -98.780      -25.485       -9.173       24.284       23.072       15.167      589.724      532.306      230.028        0.592        0.068      102.014       11.066        0.012      331.309       -0.757      864.941
11/23/2013  23:42:00      -90.586      -51.729      -11.309       17.412       13.284       10.203      303.194      176.467      104.101        0.580        0.029      104.316        7.003        0.005      331.421       -0.576      864.936
11/23/2013  23:43:00     -106.972      -53.873       -9.628       17.107       16.718       12.466      292.658      279.476      155.401        0.758        0.036      119.772       10.986        0.008      331.382       -0.640      864.929
11/23/2013  23:44:00      -85.859      -46.164       -5.170       45.476       16.954       16.399     2068.077      287.449      268.923        0.608        0.131       97.483       18.029        0.034      331.386       -0.632      864.924
11/23/2013  23:45:00      -60.135      -44.059        0.814       46.516       28.064       21.924     2163.757      787.602      480.652        0.449        0.172       74.548       21.547        0.084      331.507       -0.433      864.923
11/23/2013  23:46:00      -65.810      -31.998        5.812       57.036       49.605       21.988     3253.090     2460.627      483.476        0.579        0.310       73.176       19.867        0.074      331.661       -0.181      864.901
11/23/2013  23:47:00      -90.599      -32.846        0.309       51.514       37.930       25.910     2653.713     1438.670      671.343        0.702        0.238       96.369       18.127        0.035      331.485       -0.469      864.878
11/23/2013  23:48:00      -85.002      -71.820       -4.750       58.574       48.518       32.296     3430.877     2353.989     1043.045        0.962        0.341      111.281       29.187        0.069      331.341       -0.707      864.869
11/23/2013  23:49:00     -118.047      -89.523       -5.910       55.064       54.464       30.706     3032.018     2966.308      942.835        1.446        0.347      148.154       25.436        0.029      331.269       -0.824      864.868
11/23/2013  23:50:00     -100.081      -68.408        0.449       70.528       42.387       27.429     4974.249     1796.663      752.371        1.111        0.376      121.227       34.556        0.081      331.258       -0.843      864.884
11/23/2013  23:51:00     -124.977      -72.839       -4.795       40.696       24.659       19.773     1656.134      608.056      390.962        1.180        0.133      144.654       20.533        0.020      331.252       -0.853      864.886
11/23/2013  23:52:00     -152.074      -48.682      -17.058       10.263       25.359       10.181      105.339      643.065      103.646        1.332        0.043      159.676        6.860        0.002      331.200       -0.937      864.876
11/23/2013  23:53:00     -138.981      -63.797       -4.144       40.545       35.219       21.877     1643.879     1240.364      478.585        1.338        0.168      152.924       22.904        0.022      331.173       -0.982      864.862
11/23/2013  23:54:00     -137.402      -69.022       -0.551       36.746       32.466       20.254     1350.247     1054.061      410.240        1.323        0.141      153.765       16.334        0.011      331.210       -0.922      864.841
11/23/2013  23:55:00     -121.707      -53.921        1.358       42.733       36.237       19.304     1826.128     1313.133      372.662        1.062        0.176      133.117       19.192        0.021      331.257       -0.845      864.841
11/23/2013  23:56:00     -122.869      -27.681      -12.319       32.936       29.186       20.323     1084.804      851.820      413.010        0.918        0.117      125.949        9.140        0.005      331.263       -0.834      864.852
11/23/2013  23:57:00     -111.547      -35.613       -6.688       26.143       34.619       16.776      683.461     1198.503      281.428        0.796        0.108      117.094       10.523        0.008      331.397       -0.613      864.849
11/23/2013  23:58:00     -112.145      -29.913       -9.841       32.879       26.199       13.577     1081.006      686.403      184.347        0.776        0.098      116.065        5.053        0.002      331.338       -0.710      864.848
11/23/2013  23:59:00     -126.036      -34.541      -12.916       34.304       28.767       19.431     1176.769      827.560      377.567        0.981        0.119      130.683       19.308        0.022      331.369       -0.660      864.852
